<?xml version="1.0" encoding="UTF-8" standalone="no" ?>
<gpx xmlns="http://www.topografix.com/GPX/1/1" xmlns:xsi="http://www.w3.org/2001/XMLSchema-instance" xsi:schemaLocation="http://www.topografix.com/GPX/1/1 http://www.topografix.com/GPX/1/1/gpx.xsd" version="1.1" creator="VisuGPX - https://www.visugpx.com">
  <metadata>
    <name>Champagnat Cyclisme sur route</name>
  </metadata>
  <trk>
    <name><![CDATA[Champagnat Cyclisme sur route_1]]></name>
    <trkseg>
      <trkpt lat="46.48273" lon="5.36839">
        <ele>274.4</ele>
        <time>2022-08-30T05:29:38Z</time>
      </trkpt>
      <trkpt lat="46.48264" lon="5.36826">
        <ele>273.8</ele>
        <time>2022-08-30T05:29:39Z</time>
      </trkpt>
      <trkpt lat="46.48254" lon="5.36815">
        <ele>272.6</ele>
        <time>2022-08-30T05:29:40Z</time>
      </trkpt>
      <trkpt lat="46.48243" lon="5.36805">
        <ele>272.2</ele>
        <time>2022-08-30T05:29:41Z</time>
      </trkpt>
      <trkpt lat="46.48232" lon="5.36796">
        <ele>271.4</ele>
        <time>2022-08-30T05:29:42Z</time>
      </trkpt>
      <trkpt lat="46.48211" lon="5.3678">
        <ele>270</ele>
        <time>2022-08-30T05:29:44Z</time>
      </trkpt>
      <trkpt lat="46.4819" lon="5.36763">
        <ele>268.2</ele>
        <time>2022-08-30T05:29:46Z</time>
      </trkpt>
      <trkpt lat="46.48168" lon="5.36746">
        <ele>266.8</ele>
        <time>2022-08-30T05:29:48Z</time>
      </trkpt>
      <trkpt lat="46.48158" lon="5.36737">
        <ele>265.6</ele>
        <time>2022-08-30T05:29:49Z</time>
      </trkpt>
      <trkpt lat="46.48138" lon="5.36722">
        <ele>264.4</ele>
        <time>2022-08-30T05:29:51Z</time>
      </trkpt>
      <trkpt lat="46.4812" lon="5.36709">
        <ele>263</ele>
        <time>2022-08-30T05:29:53Z</time>
      </trkpt>
      <trkpt lat="46.48114" lon="5.36703">
        <ele>262.2</ele>
        <time>2022-08-30T05:29:54Z</time>
      </trkpt>
      <trkpt lat="46.48111" lon="5.36695">
        <ele>261.8</ele>
        <time>2022-08-30T05:29:55Z</time>
      </trkpt>
      <trkpt lat="46.48109" lon="5.36686">
        <ele>260.8</ele>
        <time>2022-08-30T05:29:56Z</time>
      </trkpt>
      <trkpt lat="46.4811" lon="5.36677">
        <ele>260.2</ele>
        <time>2022-08-30T05:29:57Z</time>
      </trkpt>
      <trkpt lat="46.48114" lon="5.36669">
        <ele>259.4</ele>
        <time>2022-08-30T05:29:58Z</time>
      </trkpt>
      <trkpt lat="46.48121" lon="5.36663">
        <ele>259.2</ele>
        <time>2022-08-30T05:29:59Z</time>
      </trkpt>
      <trkpt lat="46.48136" lon="5.3665">
        <ele>258.2</ele>
        <time>2022-08-30T05:30:01Z</time>
      </trkpt>
      <trkpt lat="46.48157" lon="5.36628">
        <ele>257</ele>
        <time>2022-08-30T05:30:04Z</time>
      </trkpt>
      <trkpt lat="46.48174" lon="5.36614">
        <ele>256.2</ele>
        <time>2022-08-30T05:30:06Z</time>
      </trkpt>
      <trkpt lat="46.48191" lon="5.36605">
        <ele>255.8</ele>
        <time>2022-08-30T05:30:08Z</time>
      </trkpt>
      <trkpt lat="46.48207" lon="5.36599">
        <ele>255.6</ele>
        <time>2022-08-30T05:30:10Z</time>
      </trkpt>
      <trkpt lat="46.4822" lon="5.36585">
        <ele>255.4</ele>
        <time>2022-08-30T05:30:12Z</time>
      </trkpt>
      <trkpt lat="46.48224" lon="5.36574">
        <ele>255.4</ele>
        <time>2022-08-30T05:30:13Z</time>
      </trkpt>
      <trkpt lat="46.48227" lon="5.36564">
        <ele>255.2</ele>
        <time>2022-08-30T05:30:14Z</time>
      </trkpt>
      <trkpt lat="46.48232" lon="5.36555">
        <ele>254.8</ele>
        <time>2022-08-30T05:30:15Z</time>
      </trkpt>
      <trkpt lat="46.48238" lon="5.36548">
        <ele>254.8</ele>
        <time>2022-08-30T05:30:16Z</time>
      </trkpt>
      <trkpt lat="46.48278" lon="5.36505">
        <ele>253.8</ele>
        <time>2022-08-30T05:30:22Z</time>
      </trkpt>
      <trkpt lat="46.48298" lon="5.36483">
        <ele>253.4</ele>
        <time>2022-08-30T05:30:25Z</time>
      </trkpt>
      <trkpt lat="46.48318" lon="5.3646">
        <ele>252.8</ele>
        <time>2022-08-30T05:30:28Z</time>
      </trkpt>
      <trkpt lat="46.48353" lon="5.36422">
        <ele>251.4</ele>
        <time>2022-08-30T05:30:33Z</time>
      </trkpt>
      <trkpt lat="46.48375" lon="5.36398">
        <ele>250.8</ele>
        <time>2022-08-30T05:30:36Z</time>
      </trkpt>
      <trkpt lat="46.48389" lon="5.36383">
        <ele>250</ele>
        <time>2022-08-30T05:30:38Z</time>
      </trkpt>
      <trkpt lat="46.4841" lon="5.36362">
        <ele>249.6</ele>
        <time>2022-08-30T05:30:41Z</time>
      </trkpt>
      <trkpt lat="46.48418" lon="5.36357">
        <ele>249</ele>
        <time>2022-08-30T05:30:42Z</time>
      </trkpt>
      <trkpt lat="46.48434" lon="5.36351">
        <ele>248.4</ele>
        <time>2022-08-30T05:30:44Z</time>
      </trkpt>
      <trkpt lat="46.4845" lon="5.36347">
        <ele>248.2</ele>
        <time>2022-08-30T05:30:46Z</time>
      </trkpt>
      <trkpt lat="46.48504" lon="5.36339">
        <ele>248</ele>
        <time>2022-08-30T05:30:53Z</time>
      </trkpt>
      <trkpt lat="46.4852" lon="5.36336">
        <ele>248</ele>
        <time>2022-08-30T05:30:55Z</time>
      </trkpt>
      <trkpt lat="46.48558" lon="5.36329">
        <ele>247.6</ele>
        <time>2022-08-30T05:31:00Z</time>
      </trkpt>
      <trkpt lat="46.48598" lon="5.36323">
        <ele>247</ele>
        <time>2022-08-30T05:31:05Z</time>
      </trkpt>
      <trkpt lat="46.48606" lon="5.36322">
        <ele>246.6</ele>
        <time>2022-08-30T05:31:06Z</time>
      </trkpt>
      <trkpt lat="46.48622" lon="5.36312">
        <ele>246.2</ele>
        <time>2022-08-30T05:31:08Z</time>
      </trkpt>
      <trkpt lat="46.48628" lon="5.36304">
        <ele>246</ele>
        <time>2022-08-30T05:31:09Z</time>
      </trkpt>
      <trkpt lat="46.48633" lon="5.36292">
        <ele>245.6</ele>
        <time>2022-08-30T05:31:10Z</time>
      </trkpt>
      <trkpt lat="46.48636" lon="5.36279">
        <ele>245.4</ele>
        <time>2022-08-30T05:31:11Z</time>
      </trkpt>
      <trkpt lat="46.48638" lon="5.36266">
        <ele>244.6</ele>
        <time>2022-08-30T05:31:12Z</time>
      </trkpt>
      <trkpt lat="46.4864" lon="5.36244">
        <ele>243.4</ele>
        <time>2022-08-30T05:31:14Z</time>
      </trkpt>
      <trkpt lat="46.48643" lon="5.36211">
        <ele>242.8</ele>
        <time>2022-08-30T05:31:16Z</time>
      </trkpt>
      <trkpt lat="46.48644" lon="5.36198">
        <ele>242.4</ele>
        <time>2022-08-30T05:31:17Z</time>
      </trkpt>
      <trkpt lat="46.48651" lon="5.3613">
        <ele>241.2</ele>
        <time>2022-08-30T05:31:22Z</time>
      </trkpt>
      <trkpt lat="46.48653" lon="5.36117">
        <ele>241.2</ele>
        <time>2022-08-30T05:31:23Z</time>
      </trkpt>
      <trkpt lat="46.48669" lon="5.36048">
        <ele>240.8</ele>
        <time>2022-08-30T05:31:29Z</time>
      </trkpt>
      <trkpt lat="46.48677" lon="5.36019">
        <ele>240.8</ele>
        <time>2022-08-30T05:31:32Z</time>
      </trkpt>
      <trkpt lat="46.4868" lon="5.36">
        <ele>240.8</ele>
        <time>2022-08-30T05:31:34Z</time>
      </trkpt>
      <trkpt lat="46.4869" lon="5.35933">
        <ele>242</ele>
        <time>2022-08-30T05:31:41Z</time>
      </trkpt>
      <trkpt lat="46.48705" lon="5.35884">
        <ele>242</ele>
        <time>2022-08-30T05:31:46Z</time>
      </trkpt>
      <trkpt lat="46.48717" lon="5.35854">
        <ele>242</ele>
        <time>2022-08-30T05:31:49Z</time>
      </trkpt>
      <trkpt lat="46.48725" lon="5.35834">
        <ele>241.6</ele>
        <time>2022-08-30T05:31:51Z</time>
      </trkpt>
      <trkpt lat="46.48753" lon="5.35769">
        <ele>240.4</ele>
        <time>2022-08-30T05:31:58Z</time>
      </trkpt>
      <trkpt lat="46.48777" lon="5.35713">
        <ele>239.4</ele>
        <time>2022-08-30T05:32:04Z</time>
      </trkpt>
      <trkpt lat="46.48791" lon="5.35678">
        <ele>239.2</ele>
        <time>2022-08-30T05:32:08Z</time>
      </trkpt>
      <trkpt lat="46.48815" lon="5.35624">
        <ele>239.2</ele>
        <time>2022-08-30T05:32:15Z</time>
      </trkpt>
      <trkpt lat="46.48838" lon="5.35573">
        <ele>239.2</ele>
        <time>2022-08-30T05:32:21Z</time>
      </trkpt>
      <trkpt lat="46.48844" lon="5.35568">
        <ele>239.2</ele>
        <time>2022-08-30T05:32:22Z</time>
      </trkpt>
      <trkpt lat="46.4885" lon="5.35564">
        <ele>239.2</ele>
        <time>2022-08-30T05:32:23Z</time>
      </trkpt>
      <trkpt lat="46.48864" lon="5.35561">
        <ele>239.2</ele>
        <time>2022-08-30T05:32:25Z</time>
      </trkpt>
      <trkpt lat="46.48902" lon="5.3556">
        <ele>239.2</ele>
        <time>2022-08-30T05:32:30Z</time>
      </trkpt>
      <trkpt lat="46.48942" lon="5.3556">
        <ele>238.2</ele>
        <time>2022-08-30T05:32:35Z</time>
      </trkpt>
      <trkpt lat="46.48951" lon="5.35559">
        <ele>237.8</ele>
        <time>2022-08-30T05:32:36Z</time>
      </trkpt>
      <trkpt lat="46.48994" lon="5.35556">
        <ele>236.8</ele>
        <time>2022-08-30T05:32:41Z</time>
      </trkpt>
      <trkpt lat="46.4901" lon="5.35555">
        <ele>236.2</ele>
        <time>2022-08-30T05:32:43Z</time>
      </trkpt>
      <trkpt lat="46.49068" lon="5.35552">
        <ele>235.8</ele>
        <time>2022-08-30T05:32:51Z</time>
      </trkpt>
      <trkpt lat="46.49098" lon="5.35551">
        <ele>236.4</ele>
        <time>2022-08-30T05:32:56Z</time>
      </trkpt>
      <trkpt lat="46.49117" lon="5.3555">
        <ele>237</ele>
        <time>2022-08-30T05:33:00Z</time>
      </trkpt>
      <trkpt lat="46.49122" lon="5.3555">
        <ele>237</ele>
        <time>2022-08-30T05:33:01Z</time>
      </trkpt>
      <trkpt lat="46.49151" lon="5.35549">
        <ele>237.6</ele>
        <time>2022-08-30T05:33:06Z</time>
      </trkpt>
      <trkpt lat="46.49157" lon="5.35549">
        <ele>237.8</ele>
        <time>2022-08-30T05:33:07Z</time>
      </trkpt>
      <trkpt lat="46.49189" lon="5.35545">
        <ele>238.8</ele>
        <time>2022-08-30T05:33:13Z</time>
      </trkpt>
      <trkpt lat="46.49193" lon="5.35544">
        <ele>239</ele>
        <time>2022-08-30T05:33:14Z</time>
      </trkpt>
      <trkpt lat="46.49212" lon="5.3554">
        <ele>239.4</ele>
        <time>2022-08-30T05:33:17Z</time>
      </trkpt>
      <trkpt lat="46.49261" lon="5.35539">
        <ele>239.8</ele>
        <time>2022-08-30T05:33:23Z</time>
      </trkpt>
      <trkpt lat="46.49313" lon="5.35536">
        <ele>239.8</ele>
        <time>2022-08-30T05:33:30Z</time>
      </trkpt>
      <trkpt lat="46.49345" lon="5.35534">
        <ele>239.4</ele>
        <time>2022-08-30T05:33:34Z</time>
      </trkpt>
      <trkpt lat="46.49393" lon="5.35538">
        <ele>239</ele>
        <time>2022-08-30T05:33:40Z</time>
      </trkpt>
      <trkpt lat="46.49401" lon="5.35539">
        <ele>238.8</ele>
        <time>2022-08-30T05:33:41Z</time>
      </trkpt>
      <trkpt lat="46.49431" lon="5.35551">
        <ele>238.4</ele>
        <time>2022-08-30T05:33:45Z</time>
      </trkpt>
      <trkpt lat="46.49454" lon="5.3556">
        <ele>237.8</ele>
        <time>2022-08-30T05:33:48Z</time>
      </trkpt>
      <trkpt lat="46.49485" lon="5.35575">
        <ele>237.4</ele>
        <time>2022-08-30T05:33:53Z</time>
      </trkpt>
      <trkpt lat="46.49537" lon="5.35596">
        <ele>237.2</ele>
        <time>2022-08-30T05:34:00Z</time>
      </trkpt>
      <trkpt lat="46.49544" lon="5.35599">
        <ele>237</ele>
        <time>2022-08-30T05:34:01Z</time>
      </trkpt>
      <trkpt lat="46.49567" lon="5.35608">
        <ele>236.6</ele>
        <time>2022-08-30T05:34:04Z</time>
      </trkpt>
      <trkpt lat="46.49612" lon="5.35622">
        <ele>235.8</ele>
        <time>2022-08-30T05:34:10Z</time>
      </trkpt>
      <trkpt lat="46.49634" lon="5.35629">
        <ele>235.4</ele>
        <time>2022-08-30T05:34:13Z</time>
      </trkpt>
      <trkpt lat="46.49678" lon="5.35642">
        <ele>235</ele>
        <time>2022-08-30T05:34:19Z</time>
      </trkpt>
      <trkpt lat="46.49694" lon="5.35647">
        <ele>234.4</ele>
        <time>2022-08-30T05:34:22Z</time>
      </trkpt>
      <trkpt lat="46.49697" lon="5.35647">
        <ele>234.2</ele>
        <time>2022-08-30T05:34:23Z</time>
      </trkpt>
      <trkpt lat="46.497" lon="5.35644">
        <ele>234</ele>
        <time>2022-08-30T05:34:24Z</time>
      </trkpt>
      <trkpt lat="46.49705" lon="5.35634">
        <ele>233.6</ele>
        <time>2022-08-30T05:34:26Z</time>
      </trkpt>
      <trkpt lat="46.49707" lon="5.35628">
        <ele>233.2</ele>
        <time>2022-08-30T05:34:27Z</time>
      </trkpt>
      <trkpt lat="46.49709" lon="5.3562">
        <ele>233.2</ele>
        <time>2022-08-30T05:34:28Z</time>
      </trkpt>
      <trkpt lat="46.49711" lon="5.35602">
        <ele>232.6</ele>
        <time>2022-08-30T05:34:30Z</time>
      </trkpt>
      <trkpt lat="46.49718" lon="5.35534">
        <ele>232.4</ele>
        <time>2022-08-30T05:34:37Z</time>
      </trkpt>
      <trkpt lat="46.49724" lon="5.35486">
        <ele>232.2</ele>
        <time>2022-08-30T05:34:42Z</time>
      </trkpt>
      <trkpt lat="46.49727" lon="5.35465">
        <ele>232</ele>
        <time>2022-08-30T05:34:44Z</time>
      </trkpt>
      <trkpt lat="46.49736" lon="5.35392">
        <ele>231.6</ele>
        <time>2022-08-30T05:34:51Z</time>
      </trkpt>
      <trkpt lat="46.49738" lon="5.3536">
        <ele>231.2</ele>
        <time>2022-08-30T05:34:54Z</time>
      </trkpt>
      <trkpt lat="46.49737" lon="5.35329">
        <ele>230.6</ele>
        <time>2022-08-30T05:34:57Z</time>
      </trkpt>
      <trkpt lat="46.49729" lon="5.35282">
        <ele>230.6</ele>
        <time>2022-08-30T05:35:02Z</time>
      </trkpt>
      <trkpt lat="46.49721" lon="5.35242">
        <ele>231</ele>
        <time>2022-08-30T05:35:07Z</time>
      </trkpt>
      <trkpt lat="46.49703" lon="5.35163">
        <ele>231.8</ele>
        <time>2022-08-30T05:35:16Z</time>
      </trkpt>
      <trkpt lat="46.49702" lon="5.35153">
        <ele>231.8</ele>
        <time>2022-08-30T05:35:17Z</time>
      </trkpt>
      <trkpt lat="46.49686" lon="5.35078">
        <ele>231.4</ele>
        <time>2022-08-30T05:35:25Z</time>
      </trkpt>
      <trkpt lat="46.49672" lon="5.35011">
        <ele>230.8</ele>
        <time>2022-08-30T05:35:33Z</time>
      </trkpt>
      <trkpt lat="46.49671" lon="5.35003">
        <ele>230.8</ele>
        <time>2022-08-30T05:35:34Z</time>
      </trkpt>
      <trkpt lat="46.49665" lon="5.34979">
        <ele>231.4</ele>
        <time>2022-08-30T05:35:37Z</time>
      </trkpt>
      <trkpt lat="46.49663" lon="5.34964">
        <ele>231.8</ele>
        <time>2022-08-30T05:35:39Z</time>
      </trkpt>
      <trkpt lat="46.49659" lon="5.3494">
        <ele>232</ele>
        <time>2022-08-30T05:35:42Z</time>
      </trkpt>
      <trkpt lat="46.49653" lon="5.34904">
        <ele>232.6</ele>
        <time>2022-08-30T05:35:46Z</time>
      </trkpt>
      <trkpt lat="46.49647" lon="5.34877">
        <ele>233</ele>
        <time>2022-08-30T05:35:49Z</time>
      </trkpt>
      <trkpt lat="46.49638" lon="5.34831">
        <ele>233.2</ele>
        <time>2022-08-30T05:35:54Z</time>
      </trkpt>
      <trkpt lat="46.4963" lon="5.34766">
        <ele>233</ele>
        <time>2022-08-30T05:36:00Z</time>
      </trkpt>
      <trkpt lat="46.49631" lon="5.34717">
        <ele>231.8</ele>
        <time>2022-08-30T05:36:04Z</time>
      </trkpt>
      <trkpt lat="46.49632" lon="5.34705">
        <ele>231.6</ele>
        <time>2022-08-30T05:36:05Z</time>
      </trkpt>
      <trkpt lat="46.49635" lon="5.34679">
        <ele>230.6</ele>
        <time>2022-08-30T05:36:07Z</time>
      </trkpt>
      <trkpt lat="46.49639" lon="5.34626">
        <ele>229.2</ele>
        <time>2022-08-30T05:36:11Z</time>
      </trkpt>
      <trkpt lat="46.49644" lon="5.34591">
        <ele>228.2</ele>
        <time>2022-08-30T05:36:14Z</time>
      </trkpt>
      <trkpt lat="46.49645" lon="5.34578">
        <ele>228</ele>
        <time>2022-08-30T05:36:15Z</time>
      </trkpt>
      <trkpt lat="46.49653" lon="5.34535">
        <ele>226.8</ele>
        <time>2022-08-30T05:36:18Z</time>
      </trkpt>
      <trkpt lat="46.49658" lon="5.34512">
        <ele>226.6</ele>
        <time>2022-08-30T05:36:20Z</time>
      </trkpt>
      <trkpt lat="46.49672" lon="5.34463">
        <ele>226.4</ele>
        <time>2022-08-30T05:36:25Z</time>
      </trkpt>
      <trkpt lat="46.49688" lon="5.34404">
        <ele>227.8</ele>
        <time>2022-08-30T05:36:32Z</time>
      </trkpt>
      <trkpt lat="46.4969" lon="5.34397">
        <ele>228</ele>
        <time>2022-08-30T05:36:33Z</time>
      </trkpt>
      <trkpt lat="46.49692" lon="5.3439">
        <ele>228</ele>
        <time>2022-08-30T05:36:34Z</time>
      </trkpt>
      <trkpt lat="46.49701" lon="5.34362">
        <ele>228.6</ele>
        <time>2022-08-30T05:36:38Z</time>
      </trkpt>
      <trkpt lat="46.49704" lon="5.34354">
        <ele>228.8</ele>
        <time>2022-08-30T05:36:39Z</time>
      </trkpt>
      <trkpt lat="46.49715" lon="5.34327">
        <ele>229.4</ele>
        <time>2022-08-30T05:36:43Z</time>
      </trkpt>
      <trkpt lat="46.49722" lon="5.34312">
        <ele>229.8</ele>
        <time>2022-08-30T05:36:45Z</time>
      </trkpt>
      <trkpt lat="46.49725" lon="5.34305">
        <ele>230</ele>
        <time>2022-08-30T05:36:46Z</time>
      </trkpt>
      <trkpt lat="46.49737" lon="5.34281">
        <ele>230.4</ele>
        <time>2022-08-30T05:36:49Z</time>
      </trkpt>
      <trkpt lat="46.49769" lon="5.3422">
        <ele>230.4</ele>
        <time>2022-08-30T05:36:57Z</time>
      </trkpt>
      <trkpt lat="46.49801" lon="5.34165">
        <ele>230.6</ele>
        <time>2022-08-30T05:37:05Z</time>
      </trkpt>
      <trkpt lat="46.49825" lon="5.34126">
        <ele>231.2</ele>
        <time>2022-08-30T05:37:11Z</time>
      </trkpt>
      <trkpt lat="46.49835" lon="5.34109">
        <ele>231.4</ele>
        <time>2022-08-30T05:37:13Z</time>
      </trkpt>
      <trkpt lat="46.49875" lon="5.34053">
        <ele>231.4</ele>
        <time>2022-08-30T05:37:22Z</time>
      </trkpt>
      <trkpt lat="46.49914" lon="5.34009">
        <ele>231</ele>
        <time>2022-08-30T05:37:30Z</time>
      </trkpt>
      <trkpt lat="46.49933" lon="5.3399">
        <ele>231.4</ele>
        <time>2022-08-30T05:37:34Z</time>
      </trkpt>
      <trkpt lat="46.49938" lon="5.33985">
        <ele>231.6</ele>
        <time>2022-08-30T05:37:35Z</time>
      </trkpt>
      <trkpt lat="46.49957" lon="5.33966">
        <ele>232.2</ele>
        <time>2022-08-30T05:37:39Z</time>
      </trkpt>
      <trkpt lat="46.49976" lon="5.33946">
        <ele>232.6</ele>
        <time>2022-08-30T05:37:43Z</time>
      </trkpt>
      <trkpt lat="46.49987" lon="5.33934">
        <ele>232.8</ele>
        <time>2022-08-30T05:37:45Z</time>
      </trkpt>
      <trkpt lat="46.49991" lon="5.33928">
        <ele>233</ele>
        <time>2022-08-30T05:37:46Z</time>
      </trkpt>
      <trkpt lat="46.50001" lon="5.33916">
        <ele>233.2</ele>
        <time>2022-08-30T05:37:48Z</time>
      </trkpt>
      <trkpt lat="46.50045" lon="5.33867">
        <ele>233.6</ele>
        <time>2022-08-30T05:37:56Z</time>
      </trkpt>
      <trkpt lat="46.50093" lon="5.33815">
        <ele>232.6</ele>
        <time>2022-08-30T05:38:04Z</time>
      </trkpt>
      <trkpt lat="46.50112" lon="5.33795">
        <ele>232</ele>
        <time>2022-08-30T05:38:07Z</time>
      </trkpt>
      <trkpt lat="46.50131" lon="5.33774">
        <ele>231.6</ele>
        <time>2022-08-30T05:38:10Z</time>
      </trkpt>
      <trkpt lat="46.50173" lon="5.33731">
        <ele>231.2</ele>
        <time>2022-08-30T05:38:17Z</time>
      </trkpt>
      <trkpt lat="46.50211" lon="5.33689">
        <ele>231.4</ele>
        <time>2022-08-30T05:38:24Z</time>
      </trkpt>
      <trkpt lat="46.50256" lon="5.33642">
        <ele>231.6</ele>
        <time>2022-08-30T05:38:32Z</time>
      </trkpt>
      <trkpt lat="46.50301" lon="5.33592">
        <ele>230.8</ele>
        <time>2022-08-30T05:38:40Z</time>
      </trkpt>
      <trkpt lat="46.50311" lon="5.33582">
        <ele>230.6</ele>
        <time>2022-08-30T05:38:41Z</time>
      </trkpt>
      <trkpt lat="46.50354" lon="5.33535">
        <ele>230</ele>
        <time>2022-08-30T05:38:49Z</time>
      </trkpt>
      <trkpt lat="46.50366" lon="5.33523">
        <ele>229.8</ele>
        <time>2022-08-30T05:38:51Z</time>
      </trkpt>
      <trkpt lat="46.50371" lon="5.33517">
        <ele>229.8</ele>
        <time>2022-08-30T05:38:52Z</time>
      </trkpt>
      <trkpt lat="46.50411" lon="5.33473">
        <ele>229.2</ele>
        <time>2022-08-30T05:38:59Z</time>
      </trkpt>
      <trkpt lat="46.50445" lon="5.33432">
        <ele>228.6</ele>
        <time>2022-08-30T05:39:05Z</time>
      </trkpt>
      <trkpt lat="46.5045" lon="5.33423">
        <ele>228.6</ele>
        <time>2022-08-30T05:39:06Z</time>
      </trkpt>
      <trkpt lat="46.50455" lon="5.33415">
        <ele>228.2</ele>
        <time>2022-08-30T05:39:07Z</time>
      </trkpt>
      <trkpt lat="46.50462" lon="5.33396">
        <ele>228</ele>
        <time>2022-08-30T05:39:09Z</time>
      </trkpt>
      <trkpt lat="46.50464" lon="5.33385">
        <ele>228</ele>
        <time>2022-08-30T05:39:10Z</time>
      </trkpt>
      <trkpt lat="46.50469" lon="5.33353">
        <ele>227.6</ele>
        <time>2022-08-30T05:39:13Z</time>
      </trkpt>
      <trkpt lat="46.5047" lon="5.33332">
        <ele>227.4</ele>
        <time>2022-08-30T05:39:15Z</time>
      </trkpt>
      <trkpt lat="46.50471" lon="5.33262">
        <ele>227.4</ele>
        <time>2022-08-30T05:39:22Z</time>
      </trkpt>
      <trkpt lat="46.50471" lon="5.33199">
        <ele>227.8</ele>
        <time>2022-08-30T05:39:28Z</time>
      </trkpt>
      <trkpt lat="46.50471" lon="5.33178">
        <ele>227.8</ele>
        <time>2022-08-30T05:39:30Z</time>
      </trkpt>
      <trkpt lat="46.5047" lon="5.33143">
        <ele>227.8</ele>
        <time>2022-08-30T05:39:33Z</time>
      </trkpt>
      <trkpt lat="46.50472" lon="5.33067">
        <ele>226.6</ele>
        <time>2022-08-30T05:39:39Z</time>
      </trkpt>
      <trkpt lat="46.50472" lon="5.3305">
        <ele>226.6</ele>
        <time>2022-08-30T05:39:40Z</time>
      </trkpt>
      <trkpt lat="46.50473" lon="5.32997">
        <ele>225.2</ele>
        <time>2022-08-30T05:39:44Z</time>
      </trkpt>
      <trkpt lat="46.50474" lon="5.32947">
        <ele>224</ele>
        <time>2022-08-30T05:39:47Z</time>
      </trkpt>
      <trkpt lat="46.50474" lon="5.32902">
        <ele>222.2</ele>
        <time>2022-08-30T05:39:50Z</time>
      </trkpt>
      <trkpt lat="46.50475" lon="5.32856">
        <ele>220.8</ele>
        <time>2022-08-30T05:39:53Z</time>
      </trkpt>
      <trkpt lat="46.50476" lon="5.32826">
        <ele>219.4</ele>
        <time>2022-08-30T05:39:55Z</time>
      </trkpt>
      <trkpt lat="46.50476" lon="5.32811">
        <ele>219</ele>
        <time>2022-08-30T05:39:56Z</time>
      </trkpt>
      <trkpt lat="46.50476" lon="5.32799">
        <ele>218.2</ele>
        <time>2022-08-30T05:39:57Z</time>
      </trkpt>
      <trkpt lat="46.50477" lon="5.32741">
        <ele>217.2</ele>
        <time>2022-08-30T05:40:01Z</time>
      </trkpt>
      <trkpt lat="46.50478" lon="5.32714">
        <ele>216.8</ele>
        <time>2022-08-30T05:40:03Z</time>
      </trkpt>
      <trkpt lat="46.50479" lon="5.32663">
        <ele>216</ele>
        <time>2022-08-30T05:40:07Z</time>
      </trkpt>
      <trkpt lat="46.50479" lon="5.32626">
        <ele>215.4</ele>
        <time>2022-08-30T05:40:10Z</time>
      </trkpt>
      <trkpt lat="46.50477" lon="5.32576">
        <ele>214.8</ele>
        <time>2022-08-30T05:40:14Z</time>
      </trkpt>
      <trkpt lat="46.50475" lon="5.3254">
        <ele>214.4</ele>
        <time>2022-08-30T05:40:17Z</time>
      </trkpt>
      <trkpt lat="46.50472" lon="5.32491">
        <ele>213.8</ele>
        <time>2022-08-30T05:40:21Z</time>
      </trkpt>
      <trkpt lat="46.50466" lon="5.32432">
        <ele>213.2</ele>
        <time>2022-08-30T05:40:26Z</time>
      </trkpt>
      <trkpt lat="46.50462" lon="5.32409">
        <ele>212.8</ele>
        <time>2022-08-30T05:40:28Z</time>
      </trkpt>
      <trkpt lat="46.50449" lon="5.32354">
        <ele>212.2</ele>
        <time>2022-08-30T05:40:33Z</time>
      </trkpt>
      <trkpt lat="46.50437" lon="5.32291">
        <ele>212</ele>
        <time>2022-08-30T05:40:39Z</time>
      </trkpt>
      <trkpt lat="46.50432" lon="5.32243">
        <ele>212</ele>
        <time>2022-08-30T05:40:43Z</time>
      </trkpt>
      <trkpt lat="46.50432" lon="5.32232">
        <ele>212</ele>
        <time>2022-08-30T05:40:45Z</time>
      </trkpt>
      <trkpt lat="46.50432" lon="5.32218">
        <ele>212</ele>
        <time>2022-08-30T05:40:46Z</time>
      </trkpt>
      <trkpt lat="46.50436" lon="5.32199">
        <ele>212</ele>
        <time>2022-08-30T05:40:48Z</time>
      </trkpt>
      <trkpt lat="46.50446" lon="5.32186">
        <ele>212</ele>
        <time>2022-08-30T05:40:50Z</time>
      </trkpt>
      <trkpt lat="46.50451" lon="5.32182">
        <ele>211.8</ele>
        <time>2022-08-30T05:40:51Z</time>
      </trkpt>
      <trkpt lat="46.50457" lon="5.32177">
        <ele>211.6</ele>
        <time>2022-08-30T05:40:52Z</time>
      </trkpt>
      <trkpt lat="46.50465" lon="5.32161">
        <ele>211.6</ele>
        <time>2022-08-30T05:40:54Z</time>
      </trkpt>
      <trkpt lat="46.50485" lon="5.32105">
        <ele>211</ele>
        <time>2022-08-30T05:41:00Z</time>
      </trkpt>
      <trkpt lat="46.50514" lon="5.32045">
        <ele>211.6</ele>
        <time>2022-08-30T05:41:07Z</time>
      </trkpt>
      <trkpt lat="46.50544" lon="5.32003">
        <ele>211.6</ele>
        <time>2022-08-30T05:41:13Z</time>
      </trkpt>
      <trkpt lat="46.5056" lon="5.31969">
        <ele>211.8</ele>
        <time>2022-08-30T05:41:18Z</time>
      </trkpt>
      <trkpt lat="46.50568" lon="5.3195">
        <ele>212.8</ele>
        <time>2022-08-30T05:41:21Z</time>
      </trkpt>
      <trkpt lat="46.50574" lon="5.31931">
        <ele>213.6</ele>
        <time>2022-08-30T05:41:24Z</time>
      </trkpt>
      <trkpt lat="46.50577" lon="5.31925">
        <ele>213.8</ele>
        <time>2022-08-30T05:41:25Z</time>
      </trkpt>
      <trkpt lat="46.50579" lon="5.31919">
        <ele>213.8</ele>
        <time>2022-08-30T05:41:26Z</time>
      </trkpt>
      <trkpt lat="46.5058" lon="5.31914">
        <ele>214</ele>
        <time>2022-08-30T05:41:27Z</time>
      </trkpt>
      <trkpt lat="46.50588" lon="5.31891">
        <ele>215</ele>
        <time>2022-08-30T05:41:31Z</time>
      </trkpt>
      <trkpt lat="46.5059" lon="5.31886">
        <ele>215.2</ele>
        <time>2022-08-30T05:41:32Z</time>
      </trkpt>
      <trkpt lat="46.50595" lon="5.31877">
        <ele>216</ele>
        <time>2022-08-30T05:41:34Z</time>
      </trkpt>
      <trkpt lat="46.50601" lon="5.31868">
        <ele>216.4</ele>
        <time>2022-08-30T05:41:36Z</time>
      </trkpt>
      <trkpt lat="46.50606" lon="5.31859">
        <ele>216.8</ele>
        <time>2022-08-30T05:41:38Z</time>
      </trkpt>
      <trkpt lat="46.50612" lon="5.31844">
        <ele>217.4</ele>
        <time>2022-08-30T05:41:41Z</time>
      </trkpt>
      <trkpt lat="46.50626" lon="5.318">
        <ele>218.6</ele>
        <time>2022-08-30T05:41:48Z</time>
      </trkpt>
      <trkpt lat="46.50642" lon="5.31749">
        <ele>219.8</ele>
        <time>2022-08-30T05:41:55Z</time>
      </trkpt>
      <trkpt lat="46.50646" lon="5.31742">
        <ele>219.8</ele>
        <time>2022-08-30T05:41:56Z</time>
      </trkpt>
      <trkpt lat="46.50654" lon="5.3173">
        <ele>220</ele>
        <time>2022-08-30T05:41:58Z</time>
      </trkpt>
      <trkpt lat="46.50663" lon="5.31721">
        <ele>220</ele>
        <time>2022-08-30T05:42:00Z</time>
      </trkpt>
      <trkpt lat="46.50673" lon="5.31715">
        <ele>220</ele>
        <time>2022-08-30T05:42:02Z</time>
      </trkpt>
      <trkpt lat="46.50689" lon="5.31712">
        <ele>220</ele>
        <time>2022-08-30T05:42:05Z</time>
      </trkpt>
      <trkpt lat="46.50749" lon="5.31705">
        <ele>220.2</ele>
        <time>2022-08-30T05:42:15Z</time>
      </trkpt>
      <trkpt lat="46.50761" lon="5.31705">
        <ele>220</ele>
        <time>2022-08-30T05:42:17Z</time>
      </trkpt>
      <trkpt lat="46.50779" lon="5.3171">
        <ele>220</ele>
        <time>2022-08-30T05:42:20Z</time>
      </trkpt>
      <trkpt lat="46.50811" lon="5.31734">
        <ele>220</ele>
        <time>2022-08-30T05:42:26Z</time>
      </trkpt>
      <trkpt lat="46.50832" lon="5.31746">
        <ele>220.2</ele>
        <time>2022-08-30T05:42:30Z</time>
      </trkpt>
      <trkpt lat="46.50837" lon="5.31748">
        <ele>220.2</ele>
        <time>2022-08-30T05:42:31Z</time>
      </trkpt>
      <trkpt lat="46.50842" lon="5.31747">
        <ele>220.4</ele>
        <time>2022-08-30T05:42:32Z</time>
      </trkpt>
      <trkpt lat="46.50851" lon="5.31742">
        <ele>220.6</ele>
        <time>2022-08-30T05:42:34Z</time>
      </trkpt>
      <trkpt lat="46.50856" lon="5.31739">
        <ele>220.6</ele>
        <time>2022-08-30T05:42:35Z</time>
      </trkpt>
      <trkpt lat="46.50866" lon="5.3173">
        <ele>220.8</ele>
        <time>2022-08-30T05:42:37Z</time>
      </trkpt>
      <trkpt lat="46.50876" lon="5.3172">
        <ele>221</ele>
        <time>2022-08-30T05:42:39Z</time>
      </trkpt>
      <trkpt lat="46.50923" lon="5.31669">
        <ele>221.2</ele>
        <time>2022-08-30T05:42:48Z</time>
      </trkpt>
      <trkpt lat="46.50962" lon="5.3163">
        <ele>220.4</ele>
        <time>2022-08-30T05:42:54Z</time>
      </trkpt>
      <trkpt lat="46.5098" lon="5.31611">
        <ele>219.8</ele>
        <time>2022-08-30T05:42:57Z</time>
      </trkpt>
      <trkpt lat="46.51007" lon="5.31583">
        <ele>219.6</ele>
        <time>2022-08-30T05:43:02Z</time>
      </trkpt>
      <trkpt lat="46.51033" lon="5.31554">
        <ele>220</ele>
        <time>2022-08-30T05:43:07Z</time>
      </trkpt>
      <trkpt lat="46.51037" lon="5.31546">
        <ele>220</ele>
        <time>2022-08-30T05:43:08Z</time>
      </trkpt>
      <trkpt lat="46.5104" lon="5.31538">
        <ele>220.2</ele>
        <time>2022-08-30T05:43:09Z</time>
      </trkpt>
      <trkpt lat="46.51043" lon="5.31529">
        <ele>220.2</ele>
        <time>2022-08-30T05:43:10Z</time>
      </trkpt>
      <trkpt lat="46.51047" lon="5.31513">
        <ele>220.2</ele>
        <time>2022-08-30T05:43:11Z</time>
      </trkpt>
      <trkpt lat="46.51047" lon="5.31513">
        <ele>220.2</ele>
        <time>2022-08-30T05:43:12Z</time>
      </trkpt>
      <trkpt lat="46.51061" lon="5.31452">
        <ele>220.2</ele>
        <time>2022-08-30T05:43:17Z</time>
      </trkpt>
      <trkpt lat="46.5107" lon="5.31407">
        <ele>218.4</ele>
        <time>2022-08-30T05:43:21Z</time>
      </trkpt>
      <trkpt lat="46.51073" lon="5.3138">
        <ele>217.8</ele>
        <time>2022-08-30T05:43:23Z</time>
      </trkpt>
      <trkpt lat="46.51072" lon="5.31357">
        <ele>217.4</ele>
        <time>2022-08-30T05:43:25Z</time>
      </trkpt>
      <trkpt lat="46.51072" lon="5.31347">
        <ele>217.2</ele>
        <time>2022-08-30T05:43:26Z</time>
      </trkpt>
      <trkpt lat="46.51073" lon="5.31339">
        <ele>217</ele>
        <time>2022-08-30T05:43:27Z</time>
      </trkpt>
      <trkpt lat="46.5108" lon="5.31315">
        <ele>216.4</ele>
        <time>2022-08-30T05:43:29Z</time>
      </trkpt>
      <trkpt lat="46.51086" lon="5.31302">
        <ele>216</ele>
        <time>2022-08-30T05:43:30Z</time>
      </trkpt>
      <trkpt lat="46.51091" lon="5.31295">
        <ele>215.8</ele>
        <time>2022-08-30T05:43:31Z</time>
      </trkpt>
      <trkpt lat="46.51108" lon="5.31274">
        <ele>215.4</ele>
        <time>2022-08-30T05:43:33Z</time>
      </trkpt>
      <trkpt lat="46.51121" lon="5.31254">
        <ele>214.2</ele>
        <time>2022-08-30T05:43:35Z</time>
      </trkpt>
      <trkpt lat="46.51134" lon="5.31234">
        <ele>213.4</ele>
        <time>2022-08-30T05:43:37Z</time>
      </trkpt>
      <trkpt lat="46.51141" lon="5.31224">
        <ele>213</ele>
        <time>2022-08-30T05:43:38Z</time>
      </trkpt>
      <trkpt lat="46.5117" lon="5.31188">
        <ele>211.6</ele>
        <time>2022-08-30T05:43:42Z</time>
      </trkpt>
      <trkpt lat="46.51176" lon="5.31181">
        <ele>211.6</ele>
        <time>2022-08-30T05:43:43Z</time>
      </trkpt>
      <trkpt lat="46.5121" lon="5.31142">
        <ele>210.6</ele>
        <time>2022-08-30T05:43:48Z</time>
      </trkpt>
      <trkpt lat="46.51217" lon="5.31134">
        <ele>210.6</ele>
        <time>2022-08-30T05:43:49Z</time>
      </trkpt>
      <trkpt lat="46.51253" lon="5.31094">
        <ele>209.8</ele>
        <time>2022-08-30T05:43:54Z</time>
      </trkpt>
      <trkpt lat="46.51261" lon="5.31088">
        <ele>209.6</ele>
        <time>2022-08-30T05:43:55Z</time>
      </trkpt>
      <trkpt lat="46.5127" lon="5.31085">
        <ele>209.2</ele>
        <time>2022-08-30T05:43:56Z</time>
      </trkpt>
      <trkpt lat="46.51277" lon="5.31083">
        <ele>209.2</ele>
        <time>2022-08-30T05:43:57Z</time>
      </trkpt>
      <trkpt lat="46.51303" lon="5.31081">
        <ele>208.4</ele>
        <time>2022-08-30T05:44:00Z</time>
      </trkpt>
      <trkpt lat="46.51327" lon="5.31079">
        <ele>208.2</ele>
        <time>2022-08-30T05:44:03Z</time>
      </trkpt>
      <trkpt lat="46.51363" lon="5.31076">
        <ele>208.2</ele>
        <time>2022-08-30T05:44:08Z</time>
      </trkpt>
      <trkpt lat="46.51424" lon="5.31073">
        <ele>208.8</ele>
        <time>2022-08-30T05:44:16Z</time>
      </trkpt>
      <trkpt lat="46.51482" lon="5.31072">
        <ele>208.8</ele>
        <time>2022-08-30T05:44:24Z</time>
      </trkpt>
      <trkpt lat="46.51538" lon="5.31075">
        <ele>208.6</ele>
        <time>2022-08-30T05:44:32Z</time>
      </trkpt>
      <trkpt lat="46.51592" lon="5.31083">
        <ele>208.6</ele>
        <time>2022-08-30T05:44:40Z</time>
      </trkpt>
      <trkpt lat="46.51632" lon="5.31102">
        <ele>209</ele>
        <time>2022-08-30T05:44:47Z</time>
      </trkpt>
      <trkpt lat="46.51638" lon="5.31104">
        <ele>209.2</ele>
        <time>2022-08-30T05:44:48Z</time>
      </trkpt>
      <trkpt lat="46.51647" lon="5.31104">
        <ele>209.4</ele>
        <time>2022-08-30T05:44:50Z</time>
      </trkpt>
      <trkpt lat="46.51652" lon="5.31103">
        <ele>209.6</ele>
        <time>2022-08-30T05:44:51Z</time>
      </trkpt>
      <trkpt lat="46.51658" lon="5.31102">
        <ele>209.6</ele>
        <time>2022-08-30T05:44:52Z</time>
      </trkpt>
      <trkpt lat="46.51667" lon="5.31103">
        <ele>209.8</ele>
        <time>2022-08-30T05:44:54Z</time>
      </trkpt>
      <trkpt lat="46.51672" lon="5.31106">
        <ele>210</ele>
        <time>2022-08-30T05:44:55Z</time>
      </trkpt>
      <trkpt lat="46.51676" lon="5.3111">
        <ele>210.4</ele>
        <time>2022-08-30T05:44:56Z</time>
      </trkpt>
      <trkpt lat="46.51684" lon="5.31124">
        <ele>210.6</ele>
        <time>2022-08-30T05:44:58Z</time>
      </trkpt>
      <trkpt lat="46.51703" lon="5.31153">
        <ele>210.8</ele>
        <time>2022-08-30T05:45:02Z</time>
      </trkpt>
      <trkpt lat="46.51708" lon="5.31158">
        <ele>210.8</ele>
        <time>2022-08-30T05:45:03Z</time>
      </trkpt>
      <trkpt lat="46.51729" lon="5.31173">
        <ele>210.6</ele>
        <time>2022-08-30T05:45:06Z</time>
      </trkpt>
      <trkpt lat="46.5176" lon="5.31179">
        <ele>209.6</ele>
        <time>2022-08-30T05:45:10Z</time>
      </trkpt>
      <trkpt lat="46.51809" lon="5.31181">
        <ele>208.6</ele>
        <time>2022-08-30T05:45:15Z</time>
      </trkpt>
      <trkpt lat="46.51826" lon="5.31184">
        <ele>207.2</ele>
        <time>2022-08-30T05:45:17Z</time>
      </trkpt>
      <trkpt lat="46.51837" lon="5.31188">
        <ele>206.8</ele>
        <time>2022-08-30T05:45:18Z</time>
      </trkpt>
      <trkpt lat="46.51855" lon="5.31199">
        <ele>206</ele>
        <time>2022-08-30T05:45:20Z</time>
      </trkpt>
      <trkpt lat="46.51862" lon="5.31206">
        <ele>205.4</ele>
        <time>2022-08-30T05:45:21Z</time>
      </trkpt>
      <trkpt lat="46.51869" lon="5.31214">
        <ele>205.2</ele>
        <time>2022-08-30T05:45:22Z</time>
      </trkpt>
      <trkpt lat="46.51876" lon="5.31223">
        <ele>204.6</ele>
        <time>2022-08-30T05:45:23Z</time>
      </trkpt>
      <trkpt lat="46.51889" lon="5.31241">
        <ele>204</ele>
        <time>2022-08-30T05:45:25Z</time>
      </trkpt>
      <trkpt lat="46.51906" lon="5.31268">
        <ele>203.4</ele>
        <time>2022-08-30T05:45:28Z</time>
      </trkpt>
      <trkpt lat="46.51929" lon="5.31301">
        <ele>203</ele>
        <time>2022-08-30T05:45:32Z</time>
      </trkpt>
      <trkpt lat="46.51961" lon="5.31348">
        <ele>202.8</ele>
        <time>2022-08-30T05:45:38Z</time>
      </trkpt>
      <trkpt lat="46.52" lon="5.31406">
        <ele>203.4</ele>
        <time>2022-08-30T05:45:46Z</time>
      </trkpt>
      <trkpt lat="46.52005" lon="5.31413">
        <ele>203.6</ele>
        <time>2022-08-30T05:45:47Z</time>
      </trkpt>
      <trkpt lat="46.52043" lon="5.3147">
        <ele>204.4</ele>
        <time>2022-08-30T05:45:56Z</time>
      </trkpt>
      <trkpt lat="46.52047" lon="5.31476">
        <ele>204.6</ele>
        <time>2022-08-30T05:45:57Z</time>
      </trkpt>
      <trkpt lat="46.5207" lon="5.3151">
        <ele>205.2</ele>
        <time>2022-08-30T05:46:03Z</time>
      </trkpt>
      <trkpt lat="46.52078" lon="5.3152">
        <ele>205.6</ele>
        <time>2022-08-30T05:46:05Z</time>
      </trkpt>
      <trkpt lat="46.52099" lon="5.3155">
        <ele>206.4</ele>
        <time>2022-08-30T05:46:11Z</time>
      </trkpt>
      <trkpt lat="46.5211" lon="5.31568">
        <ele>206.8</ele>
        <time>2022-08-30T05:46:14Z</time>
      </trkpt>
      <trkpt lat="46.52121" lon="5.31584">
        <ele>207.6</ele>
        <time>2022-08-30T05:46:17Z</time>
      </trkpt>
      <trkpt lat="46.52128" lon="5.31595">
        <ele>208</ele>
        <time>2022-08-30T05:46:19Z</time>
      </trkpt>
      <trkpt lat="46.52156" lon="5.31637">
        <ele>209</ele>
        <time>2022-08-30T05:46:27Z</time>
      </trkpt>
      <trkpt lat="46.52159" lon="5.31642">
        <ele>209.4</ele>
        <time>2022-08-30T05:46:28Z</time>
      </trkpt>
      <trkpt lat="46.52169" lon="5.31657">
        <ele>210</ele>
        <time>2022-08-30T05:46:31Z</time>
      </trkpt>
      <trkpt lat="46.52192" lon="5.31687">
        <ele>210.8</ele>
        <time>2022-08-30T05:46:37Z</time>
      </trkpt>
      <trkpt lat="46.52195" lon="5.31693">
        <ele>211.2</ele>
        <time>2022-08-30T05:46:38Z</time>
      </trkpt>
      <trkpt lat="46.52217" lon="5.31723">
        <ele>212</ele>
        <time>2022-08-30T05:46:44Z</time>
      </trkpt>
      <trkpt lat="46.52224" lon="5.31732">
        <ele>212.2</ele>
        <time>2022-08-30T05:46:46Z</time>
      </trkpt>
      <trkpt lat="46.52241" lon="5.31757">
        <ele>212.8</ele>
        <time>2022-08-30T05:46:51Z</time>
      </trkpt>
      <trkpt lat="46.52248" lon="5.31766">
        <ele>213</ele>
        <time>2022-08-30T05:46:53Z</time>
      </trkpt>
      <trkpt lat="46.52251" lon="5.31771">
        <ele>213.2</ele>
        <time>2022-08-30T05:46:54Z</time>
      </trkpt>
      <trkpt lat="46.52271" lon="5.318">
        <ele>214</ele>
        <time>2022-08-30T05:47:00Z</time>
      </trkpt>
      <trkpt lat="46.52288" lon="5.31823">
        <ele>214.6</ele>
        <time>2022-08-30T05:47:05Z</time>
      </trkpt>
      <trkpt lat="46.52301" lon="5.31842">
        <ele>215.2</ele>
        <time>2022-08-30T05:47:09Z</time>
      </trkpt>
      <trkpt lat="46.52308" lon="5.31851">
        <ele>215.4</ele>
        <time>2022-08-30T05:47:11Z</time>
      </trkpt>
      <trkpt lat="46.52317" lon="5.31863">
        <ele>215.6</ele>
        <time>2022-08-30T05:47:13Z</time>
      </trkpt>
      <trkpt lat="46.52328" lon="5.31879">
        <ele>216.2</ele>
        <time>2022-08-30T05:47:17Z</time>
      </trkpt>
      <trkpt lat="46.52352" lon="5.31911">
        <ele>217</ele>
        <time>2022-08-30T05:47:24Z</time>
      </trkpt>
      <trkpt lat="46.5236" lon="5.31922">
        <ele>217.4</ele>
        <time>2022-08-30T05:47:26Z</time>
      </trkpt>
      <trkpt lat="46.52378" lon="5.31946">
        <ele>217.4</ele>
        <time>2022-08-30T05:47:30Z</time>
      </trkpt>
      <trkpt lat="46.52412" lon="5.31997">
        <ele>216.6</ele>
        <time>2022-08-30T05:47:36Z</time>
      </trkpt>
      <trkpt lat="46.52432" lon="5.32024">
        <ele>216</ele>
        <time>2022-08-30T05:47:39Z</time>
      </trkpt>
      <trkpt lat="46.52459" lon="5.32062">
        <ele>215.4</ele>
        <time>2022-08-30T05:47:43Z</time>
      </trkpt>
      <trkpt lat="46.52467" lon="5.32072">
        <ele>215</ele>
        <time>2022-08-30T05:47:44Z</time>
      </trkpt>
      <trkpt lat="46.52494" lon="5.32112">
        <ele>213.8</ele>
        <time>2022-08-30T05:47:48Z</time>
      </trkpt>
      <trkpt lat="46.52501" lon="5.32122">
        <ele>213.4</ele>
        <time>2022-08-30T05:47:49Z</time>
      </trkpt>
      <trkpt lat="46.52515" lon="5.32142">
        <ele>212.4</ele>
        <time>2022-08-30T05:47:51Z</time>
      </trkpt>
      <trkpt lat="46.52522" lon="5.32151">
        <ele>212</ele>
        <time>2022-08-30T05:47:52Z</time>
      </trkpt>
      <trkpt lat="46.52537" lon="5.32168">
        <ele>211.2</ele>
        <time>2022-08-30T05:47:54Z</time>
      </trkpt>
      <trkpt lat="46.52558" lon="5.32188">
        <ele>210.4</ele>
        <time>2022-08-30T05:47:57Z</time>
      </trkpt>
      <trkpt lat="46.52564" lon="5.32191">
        <ele>210</ele>
        <time>2022-08-30T05:47:58Z</time>
      </trkpt>
      <trkpt lat="46.5257" lon="5.3219">
        <ele>209.6</ele>
        <time>2022-08-30T05:47:59Z</time>
      </trkpt>
      <trkpt lat="46.52575" lon="5.32185">
        <ele>209.4</ele>
        <time>2022-08-30T05:48:00Z</time>
      </trkpt>
      <trkpt lat="46.5258" lon="5.32178">
        <ele>209</ele>
        <time>2022-08-30T05:48:01Z</time>
      </trkpt>
      <trkpt lat="46.52583" lon="5.32171">
        <ele>208.6</ele>
        <time>2022-08-30T05:48:02Z</time>
      </trkpt>
      <trkpt lat="46.52589" lon="5.32156">
        <ele>208.2</ele>
        <time>2022-08-30T05:48:04Z</time>
      </trkpt>
      <trkpt lat="46.52604" lon="5.32125">
        <ele>207.8</ele>
        <time>2022-08-30T05:48:09Z</time>
      </trkpt>
      <trkpt lat="46.52621" lon="5.32083">
        <ele>209</ele>
        <time>2022-08-30T05:48:16Z</time>
      </trkpt>
      <trkpt lat="46.52631" lon="5.32059">
        <ele>209.8</ele>
        <time>2022-08-30T05:48:20Z</time>
      </trkpt>
      <trkpt lat="46.52633" lon="5.32053">
        <ele>210</ele>
        <time>2022-08-30T05:48:21Z</time>
      </trkpt>
      <trkpt lat="46.52639" lon="5.32036">
        <ele>211.2</ele>
        <time>2022-08-30T05:48:24Z</time>
      </trkpt>
      <trkpt lat="46.52647" lon="5.32015">
        <ele>211.8</ele>
        <time>2022-08-30T05:48:28Z</time>
      </trkpt>
      <trkpt lat="46.52653" lon="5.31999">
        <ele>212.2</ele>
        <time>2022-08-30T05:48:31Z</time>
      </trkpt>
      <trkpt lat="46.52656" lon="5.31988">
        <ele>212.4</ele>
        <time>2022-08-30T05:48:33Z</time>
      </trkpt>
      <trkpt lat="46.5266" lon="5.31972">
        <ele>213.4</ele>
        <time>2022-08-30T05:48:36Z</time>
      </trkpt>
      <trkpt lat="46.52661" lon="5.31966">
        <ele>213.6</ele>
        <time>2022-08-30T05:48:37Z</time>
      </trkpt>
      <trkpt lat="46.52666" lon="5.31946">
        <ele>214.8</ele>
        <time>2022-08-30T05:48:41Z</time>
      </trkpt>
      <trkpt lat="46.52669" lon="5.31936">
        <ele>215.4</ele>
        <time>2022-08-30T05:48:43Z</time>
      </trkpt>
      <trkpt lat="46.52672" lon="5.31925">
        <ele>215.8</ele>
        <time>2022-08-30T05:48:45Z</time>
      </trkpt>
      <trkpt lat="46.52677" lon="5.31899">
        <ele>217</ele>
        <time>2022-08-30T05:48:50Z</time>
      </trkpt>
      <trkpt lat="46.52679" lon="5.31894">
        <ele>217.2</ele>
        <time>2022-08-30T05:48:51Z</time>
      </trkpt>
      <trkpt lat="46.52683" lon="5.31876">
        <ele>218</ele>
        <time>2022-08-30T05:48:54Z</time>
      </trkpt>
      <trkpt lat="46.52685" lon="5.31866">
        <ele>218.6</ele>
        <time>2022-08-30T05:48:56Z</time>
      </trkpt>
      <trkpt lat="46.52688" lon="5.31855">
        <ele>219</ele>
        <time>2022-08-30T05:48:58Z</time>
      </trkpt>
      <trkpt lat="46.52697" lon="5.31833">
        <ele>220</ele>
        <time>2022-08-30T05:49:02Z</time>
      </trkpt>
      <trkpt lat="46.527" lon="5.31827">
        <ele>220.2</ele>
        <time>2022-08-30T05:49:03Z</time>
      </trkpt>
      <trkpt lat="46.52704" lon="5.31822">
        <ele>220.2</ele>
        <time>2022-08-30T05:49:04Z</time>
      </trkpt>
      <trkpt lat="46.52715" lon="5.31808">
        <ele>220.6</ele>
        <time>2022-08-30T05:49:07Z</time>
      </trkpt>
      <trkpt lat="46.52718" lon="5.31805">
        <ele>220.6</ele>
        <time>2022-08-30T05:49:08Z</time>
      </trkpt>
      <trkpt lat="46.52727" lon="5.31797">
        <ele>220.8</ele>
        <time>2022-08-30T05:49:10Z</time>
      </trkpt>
      <trkpt lat="46.52739" lon="5.31791">
        <ele>221</ele>
        <time>2022-08-30T05:49:12Z</time>
      </trkpt>
      <trkpt lat="46.52761" lon="5.31781">
        <ele>221.2</ele>
        <time>2022-08-30T05:49:17Z</time>
      </trkpt>
      <trkpt lat="46.52786" lon="5.3177">
        <ele>221.4</ele>
        <time>2022-08-30T05:49:22Z</time>
      </trkpt>
      <trkpt lat="46.52816" lon="5.31756">
        <ele>221.6</ele>
        <time>2022-08-30T05:49:28Z</time>
      </trkpt>
      <trkpt lat="46.52822" lon="5.31754">
        <ele>221.6</ele>
        <time>2022-08-30T05:49:29Z</time>
      </trkpt>
      <trkpt lat="46.52868" lon="5.31734">
        <ele>221.6</ele>
        <time>2022-08-30T05:49:37Z</time>
      </trkpt>
      <trkpt lat="46.52895" lon="5.31726">
        <ele>221.2</ele>
        <time>2022-08-30T05:49:41Z</time>
      </trkpt>
      <trkpt lat="46.52902" lon="5.31726">
        <ele>221</ele>
        <time>2022-08-30T05:49:42Z</time>
      </trkpt>
      <trkpt lat="46.52915" lon="5.31729">
        <ele>220.6</ele>
        <time>2022-08-30T05:49:44Z</time>
      </trkpt>
      <trkpt lat="46.52927" lon="5.31738">
        <ele>220.6</ele>
        <time>2022-08-30T05:49:46Z</time>
      </trkpt>
      <trkpt lat="46.52958" lon="5.31767">
        <ele>220.6</ele>
        <time>2022-08-30T05:49:52Z</time>
      </trkpt>
      <trkpt lat="46.52969" lon="5.31775">
        <ele>220.6</ele>
        <time>2022-08-30T05:49:54Z</time>
      </trkpt>
      <trkpt lat="46.52984" lon="5.31778">
        <ele>220.8</ele>
        <time>2022-08-30T05:49:56Z</time>
      </trkpt>
      <trkpt lat="46.52999" lon="5.31774">
        <ele>220.4</ele>
        <time>2022-08-30T05:49:58Z</time>
      </trkpt>
      <trkpt lat="46.53004" lon="5.31771">
        <ele>220.2</ele>
        <time>2022-08-30T05:49:59Z</time>
      </trkpt>
      <trkpt lat="46.53011" lon="5.31764">
        <ele>220.2</ele>
        <time>2022-08-30T05:50:00Z</time>
      </trkpt>
      <trkpt lat="46.53019" lon="5.3175">
        <ele>220</ele>
        <time>2022-08-30T05:50:02Z</time>
      </trkpt>
      <trkpt lat="46.53023" lon="5.31741">
        <ele>219.8</ele>
        <time>2022-08-30T05:50:03Z</time>
      </trkpt>
      <trkpt lat="46.53034" lon="5.31713">
        <ele>219.4</ele>
        <time>2022-08-30T05:50:06Z</time>
      </trkpt>
      <trkpt lat="46.5305" lon="5.31672">
        <ele>218.8</ele>
        <time>2022-08-30T05:50:10Z</time>
      </trkpt>
      <trkpt lat="46.53055" lon="5.31662">
        <ele>218.6</ele>
        <time>2022-08-30T05:50:11Z</time>
      </trkpt>
      <trkpt lat="46.53067" lon="5.3165">
        <ele>218.4</ele>
        <time>2022-08-30T05:50:12Z</time>
      </trkpt>
      <trkpt lat="46.53075" lon="5.31644">
        <ele>218.4</ele>
        <time>2022-08-30T05:50:13Z</time>
      </trkpt>
      <trkpt lat="46.53098" lon="5.31634">
        <ele>217.6</ele>
        <time>2022-08-30T05:50:16Z</time>
      </trkpt>
      <trkpt lat="46.53116" lon="5.31625">
        <ele>216.4</ele>
        <time>2022-08-30T05:50:18Z</time>
      </trkpt>
      <trkpt lat="46.53126" lon="5.3162">
        <ele>215.4</ele>
        <time>2022-08-30T05:50:19Z</time>
      </trkpt>
      <trkpt lat="46.53135" lon="5.31616">
        <ele>215</ele>
        <time>2022-08-30T05:50:20Z</time>
      </trkpt>
      <trkpt lat="46.53173" lon="5.31601">
        <ele>213.2</ele>
        <time>2022-08-30T05:50:24Z</time>
      </trkpt>
      <trkpt lat="46.53193" lon="5.31593">
        <ele>212.2</ele>
        <time>2022-08-30T05:50:26Z</time>
      </trkpt>
      <trkpt lat="46.53202" lon="5.31589">
        <ele>211.8</ele>
        <time>2022-08-30T05:50:27Z</time>
      </trkpt>
      <trkpt lat="46.5324" lon="5.31572">
        <ele>210.4</ele>
        <time>2022-08-30T05:50:31Z</time>
      </trkpt>
      <trkpt lat="46.53249" lon="5.31566">
        <ele>210</ele>
        <time>2022-08-30T05:50:32Z</time>
      </trkpt>
      <trkpt lat="46.53259" lon="5.31558">
        <ele>208.8</ele>
        <time>2022-08-30T05:50:33Z</time>
      </trkpt>
      <trkpt lat="46.53268" lon="5.31551">
        <ele>207.8</ele>
        <time>2022-08-30T05:50:34Z</time>
      </trkpt>
      <trkpt lat="46.53286" lon="5.31535">
        <ele>206.4</ele>
        <time>2022-08-30T05:50:36Z</time>
      </trkpt>
      <trkpt lat="46.53305" lon="5.31518">
        <ele>206</ele>
        <time>2022-08-30T05:50:38Z</time>
      </trkpt>
      <trkpt lat="46.53339" lon="5.31488">
        <ele>205.4</ele>
        <time>2022-08-30T05:50:42Z</time>
      </trkpt>
      <trkpt lat="46.53347" lon="5.31481">
        <ele>204.8</ele>
        <time>2022-08-30T05:50:43Z</time>
      </trkpt>
      <trkpt lat="46.53362" lon="5.31468">
        <ele>204.2</ele>
        <time>2022-08-30T05:50:45Z</time>
      </trkpt>
      <trkpt lat="46.5338" lon="5.31445">
        <ele>203.8</ele>
        <time>2022-08-30T05:50:48Z</time>
      </trkpt>
      <trkpt lat="46.53385" lon="5.31437">
        <ele>203.8</ele>
        <time>2022-08-30T05:50:49Z</time>
      </trkpt>
      <trkpt lat="46.53397" lon="5.31409">
        <ele>203.8</ele>
        <time>2022-08-30T05:50:52Z</time>
      </trkpt>
      <trkpt lat="46.53424" lon="5.31349">
        <ele>203.8</ele>
        <time>2022-08-30T05:50:58Z</time>
      </trkpt>
      <trkpt lat="46.53458" lon="5.31275">
        <ele>203.2</ele>
        <time>2022-08-30T05:51:05Z</time>
      </trkpt>
      <trkpt lat="46.53463" lon="5.31266">
        <ele>202.8</ele>
        <time>2022-08-30T05:51:06Z</time>
      </trkpt>
      <trkpt lat="46.53482" lon="5.3122">
        <ele>202.6</ele>
        <time>2022-08-30T05:51:11Z</time>
      </trkpt>
      <trkpt lat="46.53487" lon="5.31198">
        <ele>202.8</ele>
        <time>2022-08-30T05:51:13Z</time>
      </trkpt>
      <trkpt lat="46.53491" lon="5.31176">
        <ele>202.8</ele>
        <time>2022-08-30T05:51:16Z</time>
      </trkpt>
      <trkpt lat="46.53495" lon="5.31145">
        <ele>204</ele>
        <time>2022-08-30T05:51:20Z</time>
      </trkpt>
      <trkpt lat="46.535" lon="5.31129">
        <ele>204.2</ele>
        <time>2022-08-30T05:51:22Z</time>
      </trkpt>
      <trkpt lat="46.53507" lon="5.31117">
        <ele>205</ele>
        <time>2022-08-30T05:51:24Z</time>
      </trkpt>
      <trkpt lat="46.53511" lon="5.31112">
        <ele>205.2</ele>
        <time>2022-08-30T05:51:25Z</time>
      </trkpt>
      <trkpt lat="46.53515" lon="5.31108">
        <ele>205.6</ele>
        <time>2022-08-30T05:51:26Z</time>
      </trkpt>
      <trkpt lat="46.53533" lon="5.31094">
        <ele>206.4</ele>
        <time>2022-08-30T05:51:30Z</time>
      </trkpt>
      <trkpt lat="46.53547" lon="5.31086">
        <ele>207</ele>
        <time>2022-08-30T05:51:33Z</time>
      </trkpt>
      <trkpt lat="46.53561" lon="5.31078">
        <ele>207.6</ele>
        <time>2022-08-30T05:51:36Z</time>
      </trkpt>
      <trkpt lat="46.53588" lon="5.31062">
        <ele>208</ele>
        <time>2022-08-30T05:51:41Z</time>
      </trkpt>
      <trkpt lat="46.53631" lon="5.31036">
        <ele>207.8</ele>
        <time>2022-08-30T05:51:48Z</time>
      </trkpt>
      <trkpt lat="46.5366" lon="5.31024">
        <ele>207.6</ele>
        <time>2022-08-30T05:51:53Z</time>
      </trkpt>
      <trkpt lat="46.53668" lon="5.31023">
        <ele>207.6</ele>
        <time>2022-08-30T05:51:54Z</time>
      </trkpt>
      <trkpt lat="46.53675" lon="5.31024">
        <ele>207.6</ele>
        <time>2022-08-30T05:51:55Z</time>
      </trkpt>
      <trkpt lat="46.53706" lon="5.31031">
        <ele>207.4</ele>
        <time>2022-08-30T05:52:00Z</time>
      </trkpt>
      <trkpt lat="46.53725" lon="5.31032">
        <ele>207.4</ele>
        <time>2022-08-30T05:52:03Z</time>
      </trkpt>
      <trkpt lat="46.53745" lon="5.31028">
        <ele>207.4</ele>
        <time>2022-08-30T05:52:06Z</time>
      </trkpt>
      <trkpt lat="46.53791" lon="5.31014">
        <ele>207.2</ele>
        <time>2022-08-30T05:52:12Z</time>
      </trkpt>
      <trkpt lat="46.53805" lon="5.31002">
        <ele>206.8</ele>
        <time>2022-08-30T05:52:15Z</time>
      </trkpt>
      <trkpt lat="46.53818" lon="5.30978">
        <ele>206.2</ele>
        <time>2022-08-30T05:52:17Z</time>
      </trkpt>
      <trkpt lat="46.53821" lon="5.30969">
        <ele>206</ele>
        <time>2022-08-30T05:52:18Z</time>
      </trkpt>
      <trkpt lat="46.5383" lon="5.30949">
        <ele>205.2</ele>
        <time>2022-08-30T05:52:20Z</time>
      </trkpt>
      <trkpt lat="46.5385" lon="5.30899">
        <ele>204.4</ele>
        <time>2022-08-30T05:52:25Z</time>
      </trkpt>
      <trkpt lat="46.53868" lon="5.30853">
        <ele>204.4</ele>
        <time>2022-08-30T05:52:30Z</time>
      </trkpt>
      <trkpt lat="46.53883" lon="5.3081">
        <ele>205.4</ele>
        <time>2022-08-30T05:52:36Z</time>
      </trkpt>
      <trkpt lat="46.5389" lon="5.30776">
        <ele>206.4</ele>
        <time>2022-08-30T05:52:41Z</time>
      </trkpt>
      <trkpt lat="46.53891" lon="5.30763">
        <ele>206.8</ele>
        <time>2022-08-30T05:52:43Z</time>
      </trkpt>
      <trkpt lat="46.53891" lon="5.3075">
        <ele>207.6</ele>
        <time>2022-08-30T05:52:45Z</time>
      </trkpt>
      <trkpt lat="46.53892" lon="5.30723">
        <ele>208.8</ele>
        <time>2022-08-30T05:52:49Z</time>
      </trkpt>
      <trkpt lat="46.53892" lon="5.30716">
        <ele>209</ele>
        <time>2022-08-30T05:52:50Z</time>
      </trkpt>
      <trkpt lat="46.53895" lon="5.30689">
        <ele>209.8</ele>
        <time>2022-08-30T05:52:54Z</time>
      </trkpt>
      <trkpt lat="46.53902" lon="5.30653">
        <ele>210.6</ele>
        <time>2022-08-30T05:52:59Z</time>
      </trkpt>
      <trkpt lat="46.53906" lon="5.30639">
        <ele>210.8</ele>
        <time>2022-08-30T05:53:01Z</time>
      </trkpt>
      <trkpt lat="46.53917" lon="5.30607">
        <ele>211.6</ele>
        <time>2022-08-30T05:53:06Z</time>
      </trkpt>
      <trkpt lat="46.53922" lon="5.30595">
        <ele>212</ele>
        <time>2022-08-30T05:53:08Z</time>
      </trkpt>
      <trkpt lat="46.5393" lon="5.30578">
        <ele>212.2</ele>
        <time>2022-08-30T05:53:11Z</time>
      </trkpt>
      <trkpt lat="46.53938" lon="5.30566">
        <ele>212.6</ele>
        <time>2022-08-30T05:53:13Z</time>
      </trkpt>
      <trkpt lat="46.53946" lon="5.30555">
        <ele>213</ele>
        <time>2022-08-30T05:53:16Z</time>
      </trkpt>
      <trkpt lat="46.53958" lon="5.30546">
        <ele>213.4</ele>
        <time>2022-08-30T05:53:19Z</time>
      </trkpt>
      <trkpt lat="46.53969" lon="5.30541">
        <ele>214.2</ele>
        <time>2022-08-30T05:53:22Z</time>
      </trkpt>
      <trkpt lat="46.53984" lon="5.30532">
        <ele>215.2</ele>
        <time>2022-08-30T05:53:26Z</time>
      </trkpt>
      <trkpt lat="46.54005" lon="5.30519">
        <ele>216.2</ele>
        <time>2022-08-30T05:53:32Z</time>
      </trkpt>
      <trkpt lat="46.54016" lon="5.30511">
        <ele>217</ele>
        <time>2022-08-30T05:53:35Z</time>
      </trkpt>
      <trkpt lat="46.54019" lon="5.30508">
        <ele>217.2</ele>
        <time>2022-08-30T05:53:36Z</time>
      </trkpt>
      <trkpt lat="46.54031" lon="5.30497">
        <ele>217.6</ele>
        <time>2022-08-30T05:53:39Z</time>
      </trkpt>
      <trkpt lat="46.54037" lon="5.30488">
        <ele>218</ele>
        <time>2022-08-30T05:53:41Z</time>
      </trkpt>
      <trkpt lat="46.54046" lon="5.30468">
        <ele>218.2</ele>
        <time>2022-08-30T05:53:44Z</time>
      </trkpt>
      <trkpt lat="46.54054" lon="5.30446">
        <ele>218.4</ele>
        <time>2022-08-30T05:53:47Z</time>
      </trkpt>
      <trkpt lat="46.54066" lon="5.30391">
        <ele>218.6</ele>
        <time>2022-08-30T05:53:54Z</time>
      </trkpt>
      <trkpt lat="46.54073" lon="5.30362">
        <ele>218.8</ele>
        <time>2022-08-30T05:53:58Z</time>
      </trkpt>
      <trkpt lat="46.54077" lon="5.30348">
        <ele>219</ele>
        <time>2022-08-30T05:54:00Z</time>
      </trkpt>
      <trkpt lat="46.54088" lon="5.30314">
        <ele>219.2</ele>
        <time>2022-08-30T05:54:05Z</time>
      </trkpt>
      <trkpt lat="46.54091" lon="5.30307">
        <ele>219.2</ele>
        <time>2022-08-30T05:54:06Z</time>
      </trkpt>
      <trkpt lat="46.54093" lon="5.30301">
        <ele>219.4</ele>
        <time>2022-08-30T05:54:07Z</time>
      </trkpt>
      <trkpt lat="46.54102" lon="5.30274">
        <ele>219.6</ele>
        <time>2022-08-30T05:54:11Z</time>
      </trkpt>
      <trkpt lat="46.54109" lon="5.30256">
        <ele>219.6</ele>
        <time>2022-08-30T05:54:13Z</time>
      </trkpt>
      <trkpt lat="46.54129" lon="5.30187">
        <ele>219.8</ele>
        <time>2022-08-30T05:54:22Z</time>
      </trkpt>
      <trkpt lat="46.54149" lon="5.30124">
        <ele>219.6</ele>
        <time>2022-08-30T05:54:30Z</time>
      </trkpt>
      <trkpt lat="46.54157" lon="5.30111">
        <ele>219.6</ele>
        <time>2022-08-30T05:54:32Z</time>
      </trkpt>
      <trkpt lat="46.5418" lon="5.30101">
        <ele>219.6</ele>
        <time>2022-08-30T05:54:36Z</time>
      </trkpt>
      <trkpt lat="46.54198" lon="5.30095">
        <ele>219.4</ele>
        <time>2022-08-30T05:54:39Z</time>
      </trkpt>
      <trkpt lat="46.54216" lon="5.30095">
        <ele>219.2</ele>
        <time>2022-08-30T05:54:42Z</time>
      </trkpt>
      <trkpt lat="46.5424" lon="5.30096">
        <ele>219.2</ele>
        <time>2022-08-30T05:54:46Z</time>
      </trkpt>
      <trkpt lat="46.54245" lon="5.30092">
        <ele>219.2</ele>
        <time>2022-08-30T05:54:47Z</time>
      </trkpt>
      <trkpt lat="46.54249" lon="5.30086">
        <ele>219</ele>
        <time>2022-08-30T05:54:48Z</time>
      </trkpt>
      <trkpt lat="46.54252" lon="5.30077">
        <ele>219</ele>
        <time>2022-08-30T05:54:49Z</time>
      </trkpt>
      <trkpt lat="46.54262" lon="5.30025">
        <ele>218.8</ele>
        <time>2022-08-30T05:54:54Z</time>
      </trkpt>
      <trkpt lat="46.54271" lon="5.29992">
        <ele>218</ele>
        <time>2022-08-30T05:54:57Z</time>
      </trkpt>
      <trkpt lat="46.54282" lon="5.2996">
        <ele>217.2</ele>
        <time>2022-08-30T05:55:00Z</time>
      </trkpt>
      <trkpt lat="46.54286" lon="5.29949">
        <ele>216.6</ele>
        <time>2022-08-30T05:55:01Z</time>
      </trkpt>
      <trkpt lat="46.54306" lon="5.299">
        <ele>215.6</ele>
        <time>2022-08-30T05:55:06Z</time>
      </trkpt>
      <trkpt lat="46.54314" lon="5.29879">
        <ele>215.2</ele>
        <time>2022-08-30T05:55:08Z</time>
      </trkpt>
      <trkpt lat="46.5433" lon="5.29838">
        <ele>214.4</ele>
        <time>2022-08-30T05:55:12Z</time>
      </trkpt>
      <trkpt lat="46.54336" lon="5.29816">
        <ele>214.2</ele>
        <time>2022-08-30T05:55:14Z</time>
      </trkpt>
      <trkpt lat="46.54337" lon="5.29805">
        <ele>214</ele>
        <time>2022-08-30T05:55:15Z</time>
      </trkpt>
      <trkpt lat="46.54335" lon="5.29793">
        <ele>213.8</ele>
        <time>2022-08-30T05:55:16Z</time>
      </trkpt>
      <trkpt lat="46.54331" lon="5.29782">
        <ele>212.8</ele>
        <time>2022-08-30T05:55:17Z</time>
      </trkpt>
      <trkpt lat="46.54326" lon="5.29771">
        <ele>212.4</ele>
        <time>2022-08-30T05:55:18Z</time>
      </trkpt>
      <trkpt lat="46.5431" lon="5.2974">
        <ele>211.8</ele>
        <time>2022-08-30T05:55:21Z</time>
      </trkpt>
      <trkpt lat="46.54298" lon="5.29718">
        <ele>211.4</ele>
        <time>2022-08-30T05:55:23Z</time>
      </trkpt>
      <trkpt lat="46.54287" lon="5.29697">
        <ele>210.6</ele>
        <time>2022-08-30T05:55:25Z</time>
      </trkpt>
      <trkpt lat="46.54275" lon="5.29675">
        <ele>209.4</ele>
        <time>2022-08-30T05:55:27Z</time>
      </trkpt>
      <trkpt lat="46.54258" lon="5.29642">
        <ele>208.6</ele>
        <time>2022-08-30T05:55:30Z</time>
      </trkpt>
      <trkpt lat="46.54252" lon="5.2963">
        <ele>208.2</ele>
        <time>2022-08-30T05:55:31Z</time>
      </trkpt>
      <trkpt lat="46.54234" lon="5.29597">
        <ele>206.8</ele>
        <time>2022-08-30T05:55:34Z</time>
      </trkpt>
      <trkpt lat="46.54216" lon="5.29563">
        <ele>206</ele>
        <time>2022-08-30T05:55:37Z</time>
      </trkpt>
      <trkpt lat="46.54201" lon="5.29533">
        <ele>204.8</ele>
        <time>2022-08-30T05:55:40Z</time>
      </trkpt>
      <trkpt lat="46.54187" lon="5.29506">
        <ele>203.8</ele>
        <time>2022-08-30T05:55:42Z</time>
      </trkpt>
      <trkpt lat="46.54175" lon="5.29485">
        <ele>202.6</ele>
        <time>2022-08-30T05:55:44Z</time>
      </trkpt>
      <trkpt lat="46.54162" lon="5.29465">
        <ele>201.4</ele>
        <time>2022-08-30T05:55:46Z</time>
      </trkpt>
      <trkpt lat="46.54155" lon="5.29456">
        <ele>201.2</ele>
        <time>2022-08-30T05:55:47Z</time>
      </trkpt>
      <trkpt lat="46.54117" lon="5.29416">
        <ele>200</ele>
        <time>2022-08-30T05:55:52Z</time>
      </trkpt>
      <trkpt lat="46.5411" lon="5.29409">
        <ele>200</ele>
        <time>2022-08-30T05:55:53Z</time>
      </trkpt>
      <trkpt lat="46.54087" lon="5.29387">
        <ele>199.2</ele>
        <time>2022-08-30T05:55:56Z</time>
      </trkpt>
      <trkpt lat="46.54081" lon="5.29378">
        <ele>199</ele>
        <time>2022-08-30T05:55:57Z</time>
      </trkpt>
      <trkpt lat="46.54075" lon="5.29369">
        <ele>199</ele>
        <time>2022-08-30T05:55:58Z</time>
      </trkpt>
      <trkpt lat="46.54065" lon="5.29348">
        <ele>198.4</ele>
        <time>2022-08-30T05:56:00Z</time>
      </trkpt>
      <trkpt lat="46.54063" lon="5.29337">
        <ele>198.2</ele>
        <time>2022-08-30T05:56:01Z</time>
      </trkpt>
      <trkpt lat="46.5406" lon="5.29326">
        <ele>198</ele>
        <time>2022-08-30T05:56:02Z</time>
      </trkpt>
      <trkpt lat="46.54059" lon="5.29314">
        <ele>198</ele>
        <time>2022-08-30T05:56:03Z</time>
      </trkpt>
      <trkpt lat="46.54058" lon="5.29291">
        <ele>198</ele>
        <time>2022-08-30T05:56:05Z</time>
      </trkpt>
      <trkpt lat="46.54057" lon="5.29223">
        <ele>197.4</ele>
        <time>2022-08-30T05:56:11Z</time>
      </trkpt>
      <trkpt lat="46.54056" lon="5.29139">
        <ele>197.6</ele>
        <time>2022-08-30T05:56:19Z</time>
      </trkpt>
      <trkpt lat="46.54058" lon="5.29121">
        <ele>197.8</ele>
        <time>2022-08-30T05:56:21Z</time>
      </trkpt>
      <trkpt lat="46.54062" lon="5.29104">
        <ele>198</ele>
        <time>2022-08-30T05:56:23Z</time>
      </trkpt>
      <trkpt lat="46.54068" lon="5.29091">
        <ele>198.4</ele>
        <time>2022-08-30T05:56:25Z</time>
      </trkpt>
      <trkpt lat="46.54077" lon="5.29081">
        <ele>198.8</ele>
        <time>2022-08-30T05:56:27Z</time>
      </trkpt>
      <trkpt lat="46.54086" lon="5.29076">
        <ele>199.2</ele>
        <time>2022-08-30T05:56:29Z</time>
      </trkpt>
      <trkpt lat="46.54096" lon="5.29072">
        <ele>199.8</ele>
        <time>2022-08-30T05:56:31Z</time>
      </trkpt>
      <trkpt lat="46.54099" lon="5.29069">
        <ele>200</ele>
        <time>2022-08-30T05:56:32Z</time>
      </trkpt>
      <trkpt lat="46.54103" lon="5.29065">
        <ele>200.2</ele>
        <time>2022-08-30T05:56:33Z</time>
      </trkpt>
      <trkpt lat="46.54105" lon="5.2906">
        <ele>200.4</ele>
        <time>2022-08-30T05:56:34Z</time>
      </trkpt>
      <trkpt lat="46.54106" lon="5.29038">
        <ele>201.4</ele>
        <time>2022-08-30T05:56:38Z</time>
      </trkpt>
      <trkpt lat="46.54106" lon="5.29025">
        <ele>202.2</ele>
        <time>2022-08-30T05:56:40Z</time>
      </trkpt>
      <trkpt lat="46.54109" lon="5.29013">
        <ele>202.4</ele>
        <time>2022-08-30T05:56:42Z</time>
      </trkpt>
      <trkpt lat="46.54112" lon="5.29008">
        <ele>202.6</ele>
        <time>2022-08-30T05:56:43Z</time>
      </trkpt>
      <trkpt lat="46.54115" lon="5.29003">
        <ele>202.8</ele>
        <time>2022-08-30T05:56:44Z</time>
      </trkpt>
      <trkpt lat="46.54126" lon="5.2899">
        <ele>203.4</ele>
        <time>2022-08-30T05:56:47Z</time>
      </trkpt>
      <trkpt lat="46.54131" lon="5.28986">
        <ele>203.6</ele>
        <time>2022-08-30T05:56:48Z</time>
      </trkpt>
      <trkpt lat="46.54138" lon="5.28978">
        <ele>203.8</ele>
        <time>2022-08-30T05:56:50Z</time>
      </trkpt>
      <trkpt lat="46.54154" lon="5.28959">
        <ele>204.4</ele>
        <time>2022-08-30T05:56:54Z</time>
      </trkpt>
      <trkpt lat="46.54159" lon="5.28951">
        <ele>204.8</ele>
        <time>2022-08-30T05:56:56Z</time>
      </trkpt>
      <trkpt lat="46.54167" lon="5.28937">
        <ele>205.6</ele>
        <time>2022-08-30T05:56:59Z</time>
      </trkpt>
      <trkpt lat="46.5417" lon="5.28932">
        <ele>205.8</ele>
        <time>2022-08-30T05:57:00Z</time>
      </trkpt>
      <trkpt lat="46.54183" lon="5.28897">
        <ele>207</ele>
        <time>2022-08-30T05:57:06Z</time>
      </trkpt>
      <trkpt lat="46.54193" lon="5.2886">
        <ele>208</ele>
        <time>2022-08-30T05:57:11Z</time>
      </trkpt>
      <trkpt lat="46.54196" lon="5.28851">
        <ele>208.4</ele>
        <time>2022-08-30T05:57:13Z</time>
      </trkpt>
      <trkpt lat="46.54198" lon="5.28845">
        <ele>208.6</ele>
        <time>2022-08-30T05:57:14Z</time>
      </trkpt>
      <trkpt lat="46.54205" lon="5.28826">
        <ele>209.2</ele>
        <time>2022-08-30T05:57:17Z</time>
      </trkpt>
      <trkpt lat="46.54214" lon="5.28803">
        <ele>209.6</ele>
        <time>2022-08-30T05:57:21Z</time>
      </trkpt>
      <trkpt lat="46.54215" lon="5.28797">
        <ele>210</ele>
        <time>2022-08-30T05:57:22Z</time>
      </trkpt>
      <trkpt lat="46.54216" lon="5.28791">
        <ele>210</ele>
        <time>2022-08-30T05:57:23Z</time>
      </trkpt>
      <trkpt lat="46.54216" lon="5.28785">
        <ele>210.4</ele>
        <time>2022-08-30T05:57:24Z</time>
      </trkpt>
      <trkpt lat="46.54214" lon="5.28779">
        <ele>210.8</ele>
        <time>2022-08-30T05:57:25Z</time>
      </trkpt>
      <trkpt lat="46.54213" lon="5.28773">
        <ele>210.8</ele>
        <time>2022-08-30T05:57:26Z</time>
      </trkpt>
      <trkpt lat="46.54211" lon="5.28768">
        <ele>211</ele>
        <time>2022-08-30T05:57:27Z</time>
      </trkpt>
      <trkpt lat="46.54199" lon="5.28749">
        <ele>211.4</ele>
        <time>2022-08-30T05:57:31Z</time>
      </trkpt>
      <trkpt lat="46.54186" lon="5.28731">
        <ele>212.4</ele>
        <time>2022-08-30T05:57:35Z</time>
      </trkpt>
      <trkpt lat="46.54163" lon="5.28699">
        <ele>213.4</ele>
        <time>2022-08-30T05:57:42Z</time>
      </trkpt>
      <trkpt lat="46.5416" lon="5.28694">
        <ele>213.6</ele>
        <time>2022-08-30T05:57:43Z</time>
      </trkpt>
      <trkpt lat="46.54156" lon="5.2869">
        <ele>213.6</ele>
        <time>2022-08-30T05:57:44Z</time>
      </trkpt>
      <trkpt lat="46.54139" lon="5.28666">
        <ele>214.2</ele>
        <time>2022-08-30T05:57:49Z</time>
      </trkpt>
      <trkpt lat="46.54138" lon="5.28656">
        <ele>214.2</ele>
        <time>2022-08-30T05:57:51Z</time>
      </trkpt>
      <trkpt lat="46.5414" lon="5.28651">
        <ele>214</ele>
        <time>2022-08-30T05:57:52Z</time>
      </trkpt>
      <trkpt lat="46.54144" lon="5.28649">
        <ele>214</ele>
        <time>2022-08-30T05:57:53Z</time>
      </trkpt>
      <trkpt lat="46.54155" lon="5.28647">
        <ele>213.6</ele>
        <time>2022-08-30T05:57:55Z</time>
      </trkpt>
      <trkpt lat="46.54188" lon="5.28636">
        <ele>213</ele>
        <time>2022-08-30T05:58:00Z</time>
      </trkpt>
      <trkpt lat="46.54202" lon="5.28629">
        <ele>212.4</ele>
        <time>2022-08-30T05:58:02Z</time>
      </trkpt>
      <trkpt lat="46.54226" lon="5.28615">
        <ele>211</ele>
        <time>2022-08-30T05:58:05Z</time>
      </trkpt>
      <trkpt lat="46.54251" lon="5.28597">
        <ele>209.4</ele>
        <time>2022-08-30T05:58:08Z</time>
      </trkpt>
      <trkpt lat="46.54268" lon="5.28585">
        <ele>208.2</ele>
        <time>2022-08-30T05:58:10Z</time>
      </trkpt>
      <trkpt lat="46.5429" lon="5.28569">
        <ele>207.6</ele>
        <time>2022-08-30T05:58:12Z</time>
      </trkpt>
      <trkpt lat="46.54298" lon="5.28562">
        <ele>207</ele>
        <time>2022-08-30T05:58:14Z</time>
      </trkpt>
      <trkpt lat="46.54338" lon="5.28533">
        <ele>205.4</ele>
        <time>2022-08-30T05:58:18Z</time>
      </trkpt>
      <trkpt lat="46.54366" lon="5.28511">
        <ele>204</ele>
        <time>2022-08-30T05:58:21Z</time>
      </trkpt>
      <trkpt lat="46.54393" lon="5.2849">
        <ele>202.8</ele>
        <time>2022-08-30T05:58:24Z</time>
      </trkpt>
      <trkpt lat="46.54418" lon="5.28467">
        <ele>201.8</ele>
        <time>2022-08-30T05:58:27Z</time>
      </trkpt>
      <trkpt lat="46.54426" lon="5.2846">
        <ele>201.4</ele>
        <time>2022-08-30T05:58:28Z</time>
      </trkpt>
      <trkpt lat="46.54435" lon="5.28455">
        <ele>201.2</ele>
        <time>2022-08-30T05:58:29Z</time>
      </trkpt>
      <trkpt lat="46.54454" lon="5.2845">
        <ele>201</ele>
        <time>2022-08-30T05:58:31Z</time>
      </trkpt>
      <trkpt lat="46.54463" lon="5.28451">
        <ele>200.8</ele>
        <time>2022-08-30T05:58:32Z</time>
      </trkpt>
      <trkpt lat="46.54508" lon="5.28452">
        <ele>200.8</ele>
        <time>2022-08-30T05:58:37Z</time>
      </trkpt>
      <trkpt lat="46.54542" lon="5.28448">
        <ele>199.8</ele>
        <time>2022-08-30T05:58:41Z</time>
      </trkpt>
      <trkpt lat="46.54558" lon="5.2845">
        <ele>199.8</ele>
        <time>2022-08-30T05:58:43Z</time>
      </trkpt>
      <trkpt lat="46.54594" lon="5.28458">
        <ele>200</ele>
        <time>2022-08-30T05:58:48Z</time>
      </trkpt>
      <trkpt lat="46.54635" lon="5.28453">
        <ele>200.2</ele>
        <time>2022-08-30T05:58:54Z</time>
      </trkpt>
      <trkpt lat="46.54674" lon="5.2844">
        <ele>200.4</ele>
        <time>2022-08-30T05:59:00Z</time>
      </trkpt>
      <trkpt lat="46.54685" lon="5.28433">
        <ele>201</ele>
        <time>2022-08-30T05:59:02Z</time>
      </trkpt>
      <trkpt lat="46.54713" lon="5.28419">
        <ele>201.6</ele>
        <time>2022-08-30T05:59:07Z</time>
      </trkpt>
      <trkpt lat="46.54719" lon="5.28416">
        <ele>202</ele>
        <time>2022-08-30T05:59:08Z</time>
      </trkpt>
      <trkpt lat="46.54743" lon="5.28406">
        <ele>202.6</ele>
        <time>2022-08-30T05:59:12Z</time>
      </trkpt>
      <trkpt lat="46.54748" lon="5.28403">
        <ele>203</ele>
        <time>2022-08-30T05:59:13Z</time>
      </trkpt>
      <trkpt lat="46.54748" lon="5.28403">
        <ele>203.2</ele>
        <time>2022-08-30T05:59:14Z</time>
      </trkpt>
      <trkpt lat="46.54755" lon="5.28399">
        <ele>203.6</ele>
        <time>2022-08-30T05:59:15Z</time>
      </trkpt>
      <trkpt lat="46.54766" lon="5.28385">
        <ele>204</ele>
        <time>2022-08-30T05:59:18Z</time>
      </trkpt>
      <trkpt lat="46.54775" lon="5.28375">
        <ele>204.6</ele>
        <time>2022-08-30T05:59:20Z</time>
      </trkpt>
      <trkpt lat="46.54784" lon="5.28366">
        <ele>205</ele>
        <time>2022-08-30T05:59:22Z</time>
      </trkpt>
      <trkpt lat="46.54795" lon="5.28362">
        <ele>205.4</ele>
        <time>2022-08-30T05:59:24Z</time>
      </trkpt>
      <trkpt lat="46.54801" lon="5.28363">
        <ele>205.6</ele>
        <time>2022-08-30T05:59:25Z</time>
      </trkpt>
      <trkpt lat="46.54817" lon="5.28373">
        <ele>205.6</ele>
        <time>2022-08-30T05:59:28Z</time>
      </trkpt>
      <trkpt lat="46.54849" lon="5.28393">
        <ele>205.6</ele>
        <time>2022-08-30T05:59:33Z</time>
      </trkpt>
      <trkpt lat="46.54885" lon="5.28418">
        <ele>204.6</ele>
        <time>2022-08-30T05:59:38Z</time>
      </trkpt>
      <trkpt lat="46.54893" lon="5.28426">
        <ele>204</ele>
        <time>2022-08-30T05:59:39Z</time>
      </trkpt>
      <trkpt lat="46.54899" lon="5.28431">
        <ele>203.6</ele>
        <time>2022-08-30T05:59:40Z</time>
      </trkpt>
      <trkpt lat="46.54921" lon="5.28444">
        <ele>202.8</ele>
        <time>2022-08-30T05:59:43Z</time>
      </trkpt>
      <trkpt lat="46.54931" lon="5.28447">
        <ele>202.6</ele>
        <time>2022-08-30T05:59:44Z</time>
      </trkpt>
      <trkpt lat="46.54946" lon="5.28448">
        <ele>202.6</ele>
        <time>2022-08-30T05:59:46Z</time>
      </trkpt>
      <trkpt lat="46.54963" lon="5.28442">
        <ele>202.2</ele>
        <time>2022-08-30T05:59:48Z</time>
      </trkpt>
      <trkpt lat="46.54976" lon="5.28436">
        <ele>202.2</ele>
        <time>2022-08-30T05:59:50Z</time>
      </trkpt>
      <trkpt lat="46.55009" lon="5.28413">
        <ele>202</ele>
        <time>2022-08-30T05:59:55Z</time>
      </trkpt>
      <trkpt lat="46.55059" lon="5.28392">
        <ele>201.8</ele>
        <time>2022-08-30T06:00:02Z</time>
      </trkpt>
      <trkpt lat="46.55067" lon="5.2839">
        <ele>201.8</ele>
        <time>2022-08-30T06:00:03Z</time>
      </trkpt>
      <trkpt lat="46.55104" lon="5.28383">
        <ele>201.6</ele>
        <time>2022-08-30T06:00:08Z</time>
      </trkpt>
      <trkpt lat="46.55142" lon="5.28392">
        <ele>201.4</ele>
        <time>2022-08-30T06:00:13Z</time>
      </trkpt>
      <trkpt lat="46.552" lon="5.28416">
        <ele>201</ele>
        <time>2022-08-30T06:00:21Z</time>
      </trkpt>
      <trkpt lat="46.55242" lon="5.28427">
        <ele>200.8</ele>
        <time>2022-08-30T06:00:27Z</time>
      </trkpt>
      <trkpt lat="46.55259" lon="5.28421">
        <ele>200.6</ele>
        <time>2022-08-30T06:00:29Z</time>
      </trkpt>
      <trkpt lat="46.55266" lon="5.28414">
        <ele>200.4</ele>
        <time>2022-08-30T06:00:30Z</time>
      </trkpt>
      <trkpt lat="46.55291" lon="5.28376">
        <ele>199.2</ele>
        <time>2022-08-30T06:00:34Z</time>
      </trkpt>
      <trkpt lat="46.55309" lon="5.28346">
        <ele>198.2</ele>
        <time>2022-08-30T06:00:37Z</time>
      </trkpt>
      <trkpt lat="46.55337" lon="5.28297">
        <ele>197.2</ele>
        <time>2022-08-30T06:00:42Z</time>
      </trkpt>
      <trkpt lat="46.55349" lon="5.28277">
        <ele>196.4</ele>
        <time>2022-08-30T06:00:44Z</time>
      </trkpt>
      <trkpt lat="46.55368" lon="5.28251">
        <ele>196</ele>
        <time>2022-08-30T06:00:47Z</time>
      </trkpt>
      <trkpt lat="46.55382" lon="5.28237">
        <ele>195.8</ele>
        <time>2022-08-30T06:00:49Z</time>
      </trkpt>
      <trkpt lat="46.55419" lon="5.28205">
        <ele>195</ele>
        <time>2022-08-30T06:00:54Z</time>
      </trkpt>
      <trkpt lat="46.55433" lon="5.28195">
        <ele>194.8</ele>
        <time>2022-08-30T06:00:56Z</time>
      </trkpt>
      <trkpt lat="46.55448" lon="5.28183">
        <ele>194.6</ele>
        <time>2022-08-30T06:00:58Z</time>
      </trkpt>
      <trkpt lat="46.55459" lon="5.28169">
        <ele>194.6</ele>
        <time>2022-08-30T06:01:00Z</time>
      </trkpt>
      <trkpt lat="46.55468" lon="5.28151">
        <ele>194.6</ele>
        <time>2022-08-30T06:01:02Z</time>
      </trkpt>
      <trkpt lat="46.55469" lon="5.2814">
        <ele>194.6</ele>
        <time>2022-08-30T06:01:03Z</time>
      </trkpt>
      <trkpt lat="46.55474" lon="5.28107">
        <ele>194.4</ele>
        <time>2022-08-30T06:01:06Z</time>
      </trkpt>
      <trkpt lat="46.55478" lon="5.28097">
        <ele>194.4</ele>
        <time>2022-08-30T06:01:07Z</time>
      </trkpt>
      <trkpt lat="46.55484" lon="5.28089">
        <ele>194.4</ele>
        <time>2022-08-30T06:01:08Z</time>
      </trkpt>
      <trkpt lat="46.55501" lon="5.28068">
        <ele>194.2</ele>
        <time>2022-08-30T06:01:11Z</time>
      </trkpt>
      <trkpt lat="46.5554" lon="5.28016">
        <ele>194.4</ele>
        <time>2022-08-30T06:01:18Z</time>
      </trkpt>
      <trkpt lat="46.55567" lon="5.28">
        <ele>194.4</ele>
        <time>2022-08-30T06:01:22Z</time>
      </trkpt>
      <trkpt lat="46.55615" lon="5.27964">
        <ele>194.6</ele>
        <time>2022-08-30T06:01:29Z</time>
      </trkpt>
      <trkpt lat="46.55658" lon="5.27927">
        <ele>194.2</ele>
        <time>2022-08-30T06:01:36Z</time>
      </trkpt>
      <trkpt lat="46.55675" lon="5.27927">
        <ele>194.2</ele>
        <time>2022-08-30T06:01:38Z</time>
      </trkpt>
      <trkpt lat="46.5568" lon="5.27932">
        <ele>194.2</ele>
        <time>2022-08-30T06:01:39Z</time>
      </trkpt>
      <trkpt lat="46.55684" lon="5.27938">
        <ele>194.4</ele>
        <time>2022-08-30T06:01:41Z</time>
      </trkpt>
      <trkpt lat="46.55697" lon="5.27961">
        <ele>194.6</ele>
        <time>2022-08-30T06:01:44Z</time>
      </trkpt>
      <trkpt lat="46.55706" lon="5.27981">
        <ele>194.6</ele>
        <time>2022-08-30T06:01:47Z</time>
      </trkpt>
      <trkpt lat="46.55713" lon="5.27991">
        <ele>194.8</ele>
        <time>2022-08-30T06:01:49Z</time>
      </trkpt>
      <trkpt lat="46.55715" lon="5.27995">
        <ele>194.8</ele>
        <time>2022-08-30T06:01:50Z</time>
      </trkpt>
      <trkpt lat="46.5572" lon="5.28002">
        <ele>194.8</ele>
        <time>2022-08-30T06:01:54Z</time>
      </trkpt>
      <trkpt lat="46.5572" lon="5.28002">
        <ele>194.8</ele>
        <time>2022-08-30T06:01:57Z</time>
      </trkpt>
      <trkpt lat="46.55721" lon="5.28008">
        <ele>194.8</ele>
        <time>2022-08-30T06:02:38Z</time>
      </trkpt>
      <trkpt lat="46.55722" lon="5.28012">
        <ele>194.8</ele>
        <time>2022-08-30T06:02:39Z</time>
      </trkpt>
      <trkpt lat="46.55729" lon="5.28034">
        <ele>194.8</ele>
        <time>2022-08-30T06:02:43Z</time>
      </trkpt>
      <trkpt lat="46.55748" lon="5.28072">
        <ele>195</ele>
        <time>2022-08-30T06:02:48Z</time>
      </trkpt>
      <trkpt lat="46.55762" lon="5.28099">
        <ele>195.2</ele>
        <time>2022-08-30T06:02:52Z</time>
      </trkpt>
      <trkpt lat="46.55766" lon="5.28109">
        <ele>195.2</ele>
        <time>2022-08-30T06:02:53Z</time>
      </trkpt>
      <trkpt lat="46.55774" lon="5.28122">
        <ele>195.4</ele>
        <time>2022-08-30T06:02:55Z</time>
      </trkpt>
      <trkpt lat="46.55779" lon="5.28134">
        <ele>195.4</ele>
        <time>2022-08-30T06:02:57Z</time>
      </trkpt>
      <trkpt lat="46.5579" lon="5.28157">
        <ele>195.8</ele>
        <time>2022-08-30T06:03:01Z</time>
      </trkpt>
      <trkpt lat="46.55795" lon="5.28159">
        <ele>195.8</ele>
        <time>2022-08-30T06:03:02Z</time>
      </trkpt>
      <trkpt lat="46.55798" lon="5.28159">
        <ele>195.8</ele>
        <time>2022-08-30T06:03:03Z</time>
      </trkpt>
      <trkpt lat="46.55808" lon="5.28156">
        <ele>196</ele>
        <time>2022-08-30T06:03:05Z</time>
      </trkpt>
      <trkpt lat="46.55813" lon="5.28153">
        <ele>196.4</ele>
        <time>2022-08-30T06:03:06Z</time>
      </trkpt>
      <trkpt lat="46.55819" lon="5.28151">
        <ele>196.6</ele>
        <time>2022-08-30T06:03:07Z</time>
      </trkpt>
      <trkpt lat="46.55837" lon="5.28149">
        <ele>197</ele>
        <time>2022-08-30T06:03:10Z</time>
      </trkpt>
      <trkpt lat="46.55843" lon="5.28149">
        <ele>197</ele>
        <time>2022-08-30T06:03:11Z</time>
      </trkpt>
      <trkpt lat="46.55848" lon="5.2815">
        <ele>197</ele>
        <time>2022-08-30T06:03:12Z</time>
      </trkpt>
      <trkpt lat="46.55861" lon="5.28154">
        <ele>197.2</ele>
        <time>2022-08-30T06:03:14Z</time>
      </trkpt>
      <trkpt lat="46.55873" lon="5.28161">
        <ele>197.2</ele>
        <time>2022-08-30T06:03:16Z</time>
      </trkpt>
      <trkpt lat="46.55897" lon="5.28178">
        <ele>197.2</ele>
        <time>2022-08-30T06:03:20Z</time>
      </trkpt>
      <trkpt lat="46.55908" lon="5.28191">
        <ele>197.2</ele>
        <time>2022-08-30T06:03:22Z</time>
      </trkpt>
      <trkpt lat="46.55925" lon="5.28211">
        <ele>197</ele>
        <time>2022-08-30T06:03:25Z</time>
      </trkpt>
      <trkpt lat="46.55939" lon="5.28219">
        <ele>196.6</ele>
        <time>2022-08-30T06:03:27Z</time>
      </trkpt>
      <trkpt lat="46.55977" lon="5.28225">
        <ele>196.6</ele>
        <time>2022-08-30T06:03:32Z</time>
      </trkpt>
      <trkpt lat="46.56028" lon="5.28224">
        <ele>195.8</ele>
        <time>2022-08-30T06:03:39Z</time>
      </trkpt>
      <trkpt lat="46.56043" lon="5.28222">
        <ele>195.6</ele>
        <time>2022-08-30T06:03:41Z</time>
      </trkpt>
      <trkpt lat="46.56083" lon="5.28217">
        <ele>195.6</ele>
        <time>2022-08-30T06:03:47Z</time>
      </trkpt>
      <trkpt lat="46.56132" lon="5.28211">
        <ele>196.4</ele>
        <time>2022-08-30T06:03:55Z</time>
      </trkpt>
      <trkpt lat="46.56143" lon="5.28209">
        <ele>196.8</ele>
        <time>2022-08-30T06:03:57Z</time>
      </trkpt>
      <trkpt lat="46.56154" lon="5.28205">
        <ele>197</ele>
        <time>2022-08-30T06:03:59Z</time>
      </trkpt>
      <trkpt lat="46.5616" lon="5.28202">
        <ele>197.2</ele>
        <time>2022-08-30T06:04:00Z</time>
      </trkpt>
      <trkpt lat="46.56164" lon="5.28198">
        <ele>197.2</ele>
        <time>2022-08-30T06:04:01Z</time>
      </trkpt>
      <trkpt lat="46.56176" lon="5.28183">
        <ele>197.8</ele>
        <time>2022-08-30T06:04:04Z</time>
      </trkpt>
      <trkpt lat="46.56179" lon="5.28177">
        <ele>198.2</ele>
        <time>2022-08-30T06:04:05Z</time>
      </trkpt>
      <trkpt lat="46.56185" lon="5.28166">
        <ele>198.6</ele>
        <time>2022-08-30T06:04:07Z</time>
      </trkpt>
      <trkpt lat="46.56189" lon="5.28153">
        <ele>198.6</ele>
        <time>2022-08-30T06:04:09Z</time>
      </trkpt>
      <trkpt lat="46.56195" lon="5.2814">
        <ele>199.2</ele>
        <time>2022-08-30T06:04:11Z</time>
      </trkpt>
      <trkpt lat="46.56198" lon="5.28134">
        <ele>199.2</ele>
        <time>2022-08-30T06:04:12Z</time>
      </trkpt>
      <trkpt lat="46.56207" lon="5.28122">
        <ele>199.4</ele>
        <time>2022-08-30T06:04:14Z</time>
      </trkpt>
      <trkpt lat="46.56211" lon="5.28118">
        <ele>199.4</ele>
        <time>2022-08-30T06:04:15Z</time>
      </trkpt>
      <trkpt lat="46.56231" lon="5.28101">
        <ele>200</ele>
        <time>2022-08-30T06:04:19Z</time>
      </trkpt>
      <trkpt lat="46.56262" lon="5.28072">
        <ele>200.4</ele>
        <time>2022-08-30T06:04:25Z</time>
      </trkpt>
      <trkpt lat="46.56281" lon="5.28046">
        <ele>201</ele>
        <time>2022-08-30T06:04:30Z</time>
      </trkpt>
      <trkpt lat="46.56285" lon="5.28039">
        <ele>201</ele>
        <time>2022-08-30T06:04:31Z</time>
      </trkpt>
      <trkpt lat="46.56308" lon="5.28002">
        <ele>201.4</ele>
        <time>2022-08-30T06:04:36Z</time>
      </trkpt>
      <trkpt lat="46.5634" lon="5.27955">
        <ele>200.6</ele>
        <time>2022-08-30T06:04:42Z</time>
      </trkpt>
      <trkpt lat="46.56365" lon="5.27928">
        <ele>200</ele>
        <time>2022-08-30T06:04:46Z</time>
      </trkpt>
      <trkpt lat="46.56391" lon="5.27903">
        <ele>199</ele>
        <time>2022-08-30T06:04:50Z</time>
      </trkpt>
      <trkpt lat="46.56398" lon="5.27898">
        <ele>198.8</ele>
        <time>2022-08-30T06:04:51Z</time>
      </trkpt>
      <trkpt lat="46.56439" lon="5.27861">
        <ele>197.6</ele>
        <time>2022-08-30T06:04:57Z</time>
      </trkpt>
      <trkpt lat="46.5646" lon="5.27841">
        <ele>197</ele>
        <time>2022-08-30T06:05:00Z</time>
      </trkpt>
      <trkpt lat="46.56488" lon="5.27816">
        <ele>196.4</ele>
        <time>2022-08-30T06:05:04Z</time>
      </trkpt>
      <trkpt lat="46.56511" lon="5.278">
        <ele>195.8</ele>
        <time>2022-08-30T06:05:07Z</time>
      </trkpt>
      <trkpt lat="46.56527" lon="5.27789">
        <ele>195.4</ele>
        <time>2022-08-30T06:05:09Z</time>
      </trkpt>
      <trkpt lat="46.56564" lon="5.27766">
        <ele>194.2</ele>
        <time>2022-08-30T06:05:14Z</time>
      </trkpt>
      <trkpt lat="46.56571" lon="5.27762">
        <ele>194.2</ele>
        <time>2022-08-30T06:05:15Z</time>
      </trkpt>
      <trkpt lat="46.56598" lon="5.27743">
        <ele>194.2</ele>
        <time>2022-08-30T06:05:19Z</time>
      </trkpt>
      <trkpt lat="46.56604" lon="5.27737">
        <ele>194.2</ele>
        <time>2022-08-30T06:05:20Z</time>
      </trkpt>
      <trkpt lat="46.56626" lon="5.27702">
        <ele>195</ele>
        <time>2022-08-30T06:05:25Z</time>
      </trkpt>
      <trkpt lat="46.56641" lon="5.27661">
        <ele>195.4</ele>
        <time>2022-08-30T06:05:30Z</time>
      </trkpt>
      <trkpt lat="46.56643" lon="5.27653">
        <ele>195.6</ele>
        <time>2022-08-30T06:05:31Z</time>
      </trkpt>
      <trkpt lat="46.56656" lon="5.27598">
        <ele>196.4</ele>
        <time>2022-08-30T06:05:38Z</time>
      </trkpt>
      <trkpt lat="46.56661" lon="5.27579">
        <ele>196.8</ele>
        <time>2022-08-30T06:05:40Z</time>
      </trkpt>
      <trkpt lat="46.56669" lon="5.2755">
        <ele>197.8</ele>
        <time>2022-08-30T06:05:45Z</time>
      </trkpt>
      <trkpt lat="46.56671" lon="5.27544">
        <ele>198</ele>
        <time>2022-08-30T06:05:46Z</time>
      </trkpt>
      <trkpt lat="46.56682" lon="5.27509">
        <ele>199</ele>
        <time>2022-08-30T06:05:52Z</time>
      </trkpt>
      <trkpt lat="46.56688" lon="5.27493">
        <ele>200</ele>
        <time>2022-08-30T06:05:55Z</time>
      </trkpt>
      <trkpt lat="46.56689" lon="5.27488">
        <ele>200.2</ele>
        <time>2022-08-30T06:05:56Z</time>
      </trkpt>
      <trkpt lat="46.56695" lon="5.27468">
        <ele>201</ele>
        <time>2022-08-30T06:06:00Z</time>
      </trkpt>
      <trkpt lat="46.56699" lon="5.27453">
        <ele>202.2</ele>
        <time>2022-08-30T06:06:03Z</time>
      </trkpt>
      <trkpt lat="46.56701" lon="5.27439">
        <ele>203.2</ele>
        <time>2022-08-30T06:06:06Z</time>
      </trkpt>
      <trkpt lat="46.56702" lon="5.27434">
        <ele>203.8</ele>
        <time>2022-08-30T06:06:07Z</time>
      </trkpt>
      <trkpt lat="46.56707" lon="5.27415">
        <ele>205.4</ele>
        <time>2022-08-30T06:06:11Z</time>
      </trkpt>
      <trkpt lat="46.56708" lon="5.2741">
        <ele>205.8</ele>
        <time>2022-08-30T06:06:12Z</time>
      </trkpt>
      <trkpt lat="46.5671" lon="5.27396">
        <ele>206.4</ele>
        <time>2022-08-30T06:06:15Z</time>
      </trkpt>
      <trkpt lat="46.56713" lon="5.27388">
        <ele>207</ele>
        <time>2022-08-30T06:06:17Z</time>
      </trkpt>
      <trkpt lat="46.56715" lon="5.27378">
        <ele>207.6</ele>
        <time>2022-08-30T06:06:19Z</time>
      </trkpt>
      <trkpt lat="46.56718" lon="5.27359">
        <ele>208.6</ele>
        <time>2022-08-30T06:06:23Z</time>
      </trkpt>
      <trkpt lat="46.56719" lon="5.27354">
        <ele>208.8</ele>
        <time>2022-08-30T06:06:24Z</time>
      </trkpt>
      <trkpt lat="46.56721" lon="5.27345">
        <ele>209.8</ele>
        <time>2022-08-30T06:06:26Z</time>
      </trkpt>
      <trkpt lat="46.56726" lon="5.27324">
        <ele>211</ele>
        <time>2022-08-30T06:06:30Z</time>
      </trkpt>
      <trkpt lat="46.56735" lon="5.27288">
        <ele>211.8</ele>
        <time>2022-08-30T06:06:36Z</time>
      </trkpt>
      <trkpt lat="46.56737" lon="5.27282">
        <ele>212</ele>
        <time>2022-08-30T06:06:37Z</time>
      </trkpt>
      <trkpt lat="46.56745" lon="5.27244">
        <ele>212.2</ele>
        <time>2022-08-30T06:06:42Z</time>
      </trkpt>
      <trkpt lat="46.5675" lon="5.27217">
        <ele>212</ele>
        <time>2022-08-30T06:06:45Z</time>
      </trkpt>
      <trkpt lat="46.56755" lon="5.27199">
        <ele>212</ele>
        <time>2022-08-30T06:06:47Z</time>
      </trkpt>
      <trkpt lat="46.56772" lon="5.27156">
        <ele>211.2</ele>
        <time>2022-08-30T06:06:52Z</time>
      </trkpt>
      <trkpt lat="46.56775" lon="5.27147">
        <ele>211</ele>
        <time>2022-08-30T06:06:53Z</time>
      </trkpt>
      <trkpt lat="46.56781" lon="5.27125">
        <ele>210.6</ele>
        <time>2022-08-30T06:06:55Z</time>
      </trkpt>
      <trkpt lat="46.5679" lon="5.27105">
        <ele>210</ele>
        <time>2022-08-30T06:06:57Z</time>
      </trkpt>
      <trkpt lat="46.56811" lon="5.27053">
        <ele>208.8</ele>
        <time>2022-08-30T06:07:02Z</time>
      </trkpt>
      <trkpt lat="46.56834" lon="5.26996">
        <ele>208.4</ele>
        <time>2022-08-30T06:07:08Z</time>
      </trkpt>
      <trkpt lat="46.56857" lon="5.26939">
        <ele>208.6</ele>
        <time>2022-08-30T06:07:15Z</time>
      </trkpt>
      <trkpt lat="46.5688" lon="5.26893">
        <ele>209.4</ele>
        <time>2022-08-30T06:07:21Z</time>
      </trkpt>
      <trkpt lat="46.56891" lon="5.26874">
        <ele>209.6</ele>
        <time>2022-08-30T06:07:24Z</time>
      </trkpt>
      <trkpt lat="46.56901" lon="5.26852">
        <ele>210</ele>
        <time>2022-08-30T06:07:27Z</time>
      </trkpt>
      <trkpt lat="46.56915" lon="5.26816">
        <ele>210.8</ele>
        <time>2022-08-30T06:07:32Z</time>
      </trkpt>
      <trkpt lat="46.56928" lon="5.2678">
        <ele>211.4</ele>
        <time>2022-08-30T06:07:37Z</time>
      </trkpt>
      <trkpt lat="46.56939" lon="5.26738">
        <ele>211.8</ele>
        <time>2022-08-30T06:07:42Z</time>
      </trkpt>
      <trkpt lat="46.56941" lon="5.26728">
        <ele>211.8</ele>
        <time>2022-08-30T06:07:43Z</time>
      </trkpt>
      <trkpt lat="46.56956" lon="5.26677">
        <ele>211.8</ele>
        <time>2022-08-30T06:07:48Z</time>
      </trkpt>
      <trkpt lat="46.56984" lon="5.26629">
        <ele>210.6</ele>
        <time>2022-08-30T06:07:53Z</time>
      </trkpt>
      <trkpt lat="46.56997" lon="5.26609">
        <ele>209.4</ele>
        <time>2022-08-30T06:07:55Z</time>
      </trkpt>
      <trkpt lat="46.57014" lon="5.26575">
        <ele>208.2</ele>
        <time>2022-08-30T06:07:58Z</time>
      </trkpt>
      <trkpt lat="46.5702" lon="5.26563">
        <ele>207.8</ele>
        <time>2022-08-30T06:07:59Z</time>
      </trkpt>
      <trkpt lat="46.57025" lon="5.26551">
        <ele>207</ele>
        <time>2022-08-30T06:08:00Z</time>
      </trkpt>
      <trkpt lat="46.57035" lon="5.26526">
        <ele>206</ele>
        <time>2022-08-30T06:08:02Z</time>
      </trkpt>
      <trkpt lat="46.5704" lon="5.26514">
        <ele>205.4</ele>
        <time>2022-08-30T06:08:03Z</time>
      </trkpt>
      <trkpt lat="46.5705" lon="5.2649">
        <ele>204.4</ele>
        <time>2022-08-30T06:08:05Z</time>
      </trkpt>
      <trkpt lat="46.5706" lon="5.26467">
        <ele>203.4</ele>
        <time>2022-08-30T06:08:07Z</time>
      </trkpt>
      <trkpt lat="46.57087" lon="5.26408">
        <ele>202.2</ele>
        <time>2022-08-30T06:08:12Z</time>
      </trkpt>
      <trkpt lat="46.57113" lon="5.26367">
        <ele>202.2</ele>
        <time>2022-08-30T06:08:19Z</time>
      </trkpt>
      <trkpt lat="46.57131" lon="5.26347">
        <ele>203.2</ele>
        <time>2022-08-30T06:08:23Z</time>
      </trkpt>
      <trkpt lat="46.57138" lon="5.26338">
        <ele>204</ele>
        <time>2022-08-30T06:08:25Z</time>
      </trkpt>
      <trkpt lat="46.57146" lon="5.2633">
        <ele>204.4</ele>
        <time>2022-08-30T06:08:27Z</time>
      </trkpt>
      <trkpt lat="46.57156" lon="5.26318">
        <ele>205</ele>
        <time>2022-08-30T06:08:30Z</time>
      </trkpt>
      <trkpt lat="46.5716" lon="5.26315">
        <ele>205.4</ele>
        <time>2022-08-30T06:08:31Z</time>
      </trkpt>
      <trkpt lat="46.57164" lon="5.26311">
        <ele>205.6</ele>
        <time>2022-08-30T06:08:32Z</time>
      </trkpt>
      <trkpt lat="46.5717" lon="5.26304">
        <ele>206.4</ele>
        <time>2022-08-30T06:08:34Z</time>
      </trkpt>
      <trkpt lat="46.57184" lon="5.2629">
        <ele>207.6</ele>
        <time>2022-08-30T06:08:38Z</time>
      </trkpt>
      <trkpt lat="46.5719" lon="5.26283">
        <ele>208.4</ele>
        <time>2022-08-30T06:08:40Z</time>
      </trkpt>
      <trkpt lat="46.57196" lon="5.26275">
        <ele>208.8</ele>
        <time>2022-08-30T06:08:42Z</time>
      </trkpt>
      <trkpt lat="46.5721" lon="5.26261">
        <ele>210</ele>
        <time>2022-08-30T06:08:46Z</time>
      </trkpt>
      <trkpt lat="46.57214" lon="5.26257">
        <ele>210.4</ele>
        <time>2022-08-30T06:08:47Z</time>
      </trkpt>
      <trkpt lat="46.57221" lon="5.2625">
        <ele>210.8</ele>
        <time>2022-08-30T06:08:49Z</time>
      </trkpt>
      <trkpt lat="46.57225" lon="5.26246">
        <ele>211.2</ele>
        <time>2022-08-30T06:08:50Z</time>
      </trkpt>
      <trkpt lat="46.57239" lon="5.26233">
        <ele>212</ele>
        <time>2022-08-30T06:08:54Z</time>
      </trkpt>
      <trkpt lat="46.57247" lon="5.26226">
        <ele>212.2</ele>
        <time>2022-08-30T06:08:56Z</time>
      </trkpt>
      <trkpt lat="46.57265" lon="5.26207">
        <ele>213.2</ele>
        <time>2022-08-30T06:09:01Z</time>
      </trkpt>
      <trkpt lat="46.57269" lon="5.26203">
        <ele>213.4</ele>
        <time>2022-08-30T06:09:02Z</time>
      </trkpt>
      <trkpt lat="46.57301" lon="5.26168">
        <ele>214.6</ele>
        <time>2022-08-30T06:09:10Z</time>
      </trkpt>
      <trkpt lat="46.57305" lon="5.26163">
        <ele>214.8</ele>
        <time>2022-08-30T06:09:11Z</time>
      </trkpt>
      <trkpt lat="46.57344" lon="5.26121">
        <ele>215.2</ele>
        <time>2022-08-30T06:09:20Z</time>
      </trkpt>
      <trkpt lat="46.5737" lon="5.26093">
        <ele>215.6</ele>
        <time>2022-08-30T06:09:26Z</time>
      </trkpt>
      <trkpt lat="46.57389" lon="5.26073">
        <ele>215.6</ele>
        <time>2022-08-30T06:09:30Z</time>
      </trkpt>
      <trkpt lat="46.57431" lon="5.26029">
        <ele>215</ele>
        <time>2022-08-30T06:09:38Z</time>
      </trkpt>
      <trkpt lat="46.57448" lon="5.2601">
        <ele>214.4</ele>
        <time>2022-08-30T06:09:41Z</time>
      </trkpt>
      <trkpt lat="46.57453" lon="5.26002">
        <ele>214.4</ele>
        <time>2022-08-30T06:09:42Z</time>
      </trkpt>
      <trkpt lat="46.57461" lon="5.25988">
        <ele>214.2</ele>
        <time>2022-08-30T06:09:43Z</time>
      </trkpt>
      <trkpt lat="46.57465" lon="5.25978">
        <ele>214.2</ele>
        <time>2022-08-30T06:09:44Z</time>
      </trkpt>
      <trkpt lat="46.57473" lon="5.2595">
        <ele>213.8</ele>
        <time>2022-08-30T06:09:47Z</time>
      </trkpt>
      <trkpt lat="46.57475" lon="5.25937">
        <ele>213.4</ele>
        <time>2022-08-30T06:09:48Z</time>
      </trkpt>
      <trkpt lat="46.57485" lon="5.25885">
        <ele>212</ele>
        <time>2022-08-30T06:09:52Z</time>
      </trkpt>
      <trkpt lat="46.57492" lon="5.25846">
        <ele>210.6</ele>
        <time>2022-08-30T06:09:55Z</time>
      </trkpt>
      <trkpt lat="46.57501" lon="5.25796">
        <ele>209.2</ele>
        <time>2022-08-30T06:09:59Z</time>
      </trkpt>
      <trkpt lat="46.57519" lon="5.25741">
        <ele>208</ele>
        <time>2022-08-30T06:10:04Z</time>
      </trkpt>
      <trkpt lat="46.57546" lon="5.25672">
        <ele>207.4</ele>
        <time>2022-08-30T06:10:11Z</time>
      </trkpt>
      <trkpt lat="46.57549" lon="5.25662">
        <ele>207.4</ele>
        <time>2022-08-30T06:10:12Z</time>
      </trkpt>
      <trkpt lat="46.57568" lon="5.25611">
        <ele>207</ele>
        <time>2022-08-30T06:10:18Z</time>
      </trkpt>
      <trkpt lat="46.57577" lon="5.25588">
        <ele>206.6</ele>
        <time>2022-08-30T06:10:21Z</time>
      </trkpt>
      <trkpt lat="46.5758" lon="5.25572">
        <ele>206.4</ele>
        <time>2022-08-30T06:10:23Z</time>
      </trkpt>
      <trkpt lat="46.57578" lon="5.25525">
        <ele>205.8</ele>
        <time>2022-08-30T06:10:27Z</time>
      </trkpt>
      <trkpt lat="46.57575" lon="5.25468">
        <ele>204</ele>
        <time>2022-08-30T06:10:31Z</time>
      </trkpt>
      <trkpt lat="46.57573" lon="5.25437">
        <ele>203.4</ele>
        <time>2022-08-30T06:10:33Z</time>
      </trkpt>
      <trkpt lat="46.57572" lon="5.25422">
        <ele>203</ele>
        <time>2022-08-30T06:10:34Z</time>
      </trkpt>
      <trkpt lat="46.5757" lon="5.25389">
        <ele>201.8</ele>
        <time>2022-08-30T06:10:36Z</time>
      </trkpt>
      <trkpt lat="46.57571" lon="5.25373">
        <ele>201.2</ele>
        <time>2022-08-30T06:10:37Z</time>
      </trkpt>
      <trkpt lat="46.57573" lon="5.25358">
        <ele>200.2</ele>
        <time>2022-08-30T06:10:38Z</time>
      </trkpt>
      <trkpt lat="46.57578" lon="5.25343">
        <ele>199.6</ele>
        <time>2022-08-30T06:10:39Z</time>
      </trkpt>
      <trkpt lat="46.57585" lon="5.25333">
        <ele>198.6</ele>
        <time>2022-08-30T06:10:40Z</time>
      </trkpt>
      <trkpt lat="46.57593" lon="5.25324">
        <ele>197.6</ele>
        <time>2022-08-30T06:10:41Z</time>
      </trkpt>
      <trkpt lat="46.57601" lon="5.25317">
        <ele>197.4</ele>
        <time>2022-08-30T06:10:42Z</time>
      </trkpt>
      <trkpt lat="46.57623" lon="5.25299">
        <ele>197</ele>
        <time>2022-08-30T06:10:44Z</time>
      </trkpt>
      <trkpt lat="46.57623" lon="5.25299">
        <ele>196.2</ele>
        <time>2022-08-30T06:10:45Z</time>
      </trkpt>
      <trkpt lat="46.57651" lon="5.25274">
        <ele>195.2</ele>
        <time>2022-08-30T06:10:48Z</time>
      </trkpt>
      <trkpt lat="46.57692" lon="5.2524">
        <ele>194.6</ele>
        <time>2022-08-30T06:10:53Z</time>
      </trkpt>
      <trkpt lat="46.57707" lon="5.25227">
        <ele>194.2</ele>
        <time>2022-08-30T06:10:55Z</time>
      </trkpt>
      <trkpt lat="46.57752" lon="5.25189">
        <ele>193.2</ele>
        <time>2022-08-30T06:11:01Z</time>
      </trkpt>
      <trkpt lat="46.57759" lon="5.25183">
        <ele>193</ele>
        <time>2022-08-30T06:11:02Z</time>
      </trkpt>
      <trkpt lat="46.57808" lon="5.25144">
        <ele>192.6</ele>
        <time>2022-08-30T06:11:09Z</time>
      </trkpt>
      <trkpt lat="46.57816" lon="5.2514">
        <ele>192.6</ele>
        <time>2022-08-30T06:11:10Z</time>
      </trkpt>
      <trkpt lat="46.5783" lon="5.25134">
        <ele>192.4</ele>
        <time>2022-08-30T06:11:12Z</time>
      </trkpt>
      <trkpt lat="46.57845" lon="5.25131">
        <ele>192.4</ele>
        <time>2022-08-30T06:11:14Z</time>
      </trkpt>
      <trkpt lat="46.57852" lon="5.25131">
        <ele>192.6</ele>
        <time>2022-08-30T06:11:15Z</time>
      </trkpt>
      <trkpt lat="46.57888" lon="5.25135">
        <ele>192.8</ele>
        <time>2022-08-30T06:11:20Z</time>
      </trkpt>
      <trkpt lat="46.57942" lon="5.25145">
        <ele>192.8</ele>
        <time>2022-08-30T06:11:28Z</time>
      </trkpt>
      <trkpt lat="46.57948" lon="5.25145">
        <ele>192.8</ele>
        <time>2022-08-30T06:11:29Z</time>
      </trkpt>
      <trkpt lat="46.57959" lon="5.25142">
        <ele>193</ele>
        <time>2022-08-30T06:11:31Z</time>
      </trkpt>
      <trkpt lat="46.57968" lon="5.25134">
        <ele>193.2</ele>
        <time>2022-08-30T06:11:33Z</time>
      </trkpt>
      <trkpt lat="46.57973" lon="5.25121">
        <ele>193.6</ele>
        <time>2022-08-30T06:11:35Z</time>
      </trkpt>
      <trkpt lat="46.57975" lon="5.25114">
        <ele>193.8</ele>
        <time>2022-08-30T06:11:36Z</time>
      </trkpt>
      <trkpt lat="46.57975" lon="5.25107">
        <ele>193.8</ele>
        <time>2022-08-30T06:11:37Z</time>
      </trkpt>
      <trkpt lat="46.57969" lon="5.25095">
        <ele>194.2</ele>
        <time>2022-08-30T06:11:39Z</time>
      </trkpt>
      <trkpt lat="46.57964" lon="5.25093">
        <ele>194.2</ele>
        <time>2022-08-30T06:11:40Z</time>
      </trkpt>
      <trkpt lat="46.57959" lon="5.25093">
        <ele>194.2</ele>
        <time>2022-08-30T06:11:41Z</time>
      </trkpt>
      <trkpt lat="46.57953" lon="5.25093">
        <ele>194.4</ele>
        <time>2022-08-30T06:11:42Z</time>
      </trkpt>
      <trkpt lat="46.57924" lon="5.25095">
        <ele>195</ele>
        <time>2022-08-30T06:11:47Z</time>
      </trkpt>
      <trkpt lat="46.57917" lon="5.25095">
        <ele>195</ele>
        <time>2022-08-30T06:11:48Z</time>
      </trkpt>
      <trkpt lat="46.57905" lon="5.25095">
        <ele>195.2</ele>
        <time>2022-08-30T06:11:50Z</time>
      </trkpt>
      <trkpt lat="46.57881" lon="5.25095">
        <ele>195.8</ele>
        <time>2022-08-30T06:11:54Z</time>
      </trkpt>
      <trkpt lat="46.57863" lon="5.25095">
        <ele>196.6</ele>
        <time>2022-08-30T06:11:57Z</time>
      </trkpt>
      <trkpt lat="46.57833" lon="5.25094">
        <ele>197.8</ele>
        <time>2022-08-30T06:12:02Z</time>
      </trkpt>
      <trkpt lat="46.57822" lon="5.25094">
        <ele>198</ele>
        <time>2022-08-30T06:12:04Z</time>
      </trkpt>
      <trkpt lat="46.57785" lon="5.25093">
        <ele>198.8</ele>
        <time>2022-08-30T06:12:10Z</time>
      </trkpt>
      <trkpt lat="46.5778" lon="5.25092">
        <ele>199</ele>
        <time>2022-08-30T06:12:11Z</time>
      </trkpt>
      <trkpt lat="46.57723" lon="5.2509">
        <ele>199.4</ele>
        <time>2022-08-30T06:12:21Z</time>
      </trkpt>
      <trkpt lat="46.57717" lon="5.25091">
        <ele>199.6</ele>
        <time>2022-08-30T06:12:22Z</time>
      </trkpt>
      <trkpt lat="46.57675" lon="5.25102">
        <ele>199.2</ele>
        <time>2022-08-30T06:12:28Z</time>
      </trkpt>
      <trkpt lat="46.5763" lon="5.25129">
        <ele>198</ele>
        <time>2022-08-30T06:12:34Z</time>
      </trkpt>
      <trkpt lat="46.57614" lon="5.25136">
        <ele>197.4</ele>
        <time>2022-08-30T06:12:36Z</time>
      </trkpt>
      <trkpt lat="46.57597" lon="5.25138">
        <ele>197</ele>
        <time>2022-08-30T06:12:38Z</time>
      </trkpt>
      <trkpt lat="46.57571" lon="5.25135">
        <ele>196</ele>
        <time>2022-08-30T06:12:41Z</time>
      </trkpt>
      <trkpt lat="46.57562" lon="5.25132">
        <ele>195.8</ele>
        <time>2022-08-30T06:12:42Z</time>
      </trkpt>
      <trkpt lat="46.57538" lon="5.25116">
        <ele>195</ele>
        <time>2022-08-30T06:12:45Z</time>
      </trkpt>
      <trkpt lat="46.57531" lon="5.25109">
        <ele>194.6</ele>
        <time>2022-08-30T06:12:46Z</time>
      </trkpt>
      <trkpt lat="46.57524" lon="5.25101">
        <ele>194.4</ele>
        <time>2022-08-30T06:12:47Z</time>
      </trkpt>
      <trkpt lat="46.57518" lon="5.25092">
        <ele>193.8</ele>
        <time>2022-08-30T06:12:48Z</time>
      </trkpt>
      <trkpt lat="46.57506" lon="5.25072">
        <ele>193.4</ele>
        <time>2022-08-30T06:12:50Z</time>
      </trkpt>
      <trkpt lat="46.57496" lon="5.25051">
        <ele>192.8</ele>
        <time>2022-08-30T06:12:52Z</time>
      </trkpt>
      <trkpt lat="46.57469" lon="5.24988">
        <ele>191.8</ele>
        <time>2022-08-30T06:12:58Z</time>
      </trkpt>
      <trkpt lat="46.57455" lon="5.24957">
        <ele>191.8</ele>
        <time>2022-08-30T06:13:01Z</time>
      </trkpt>
      <trkpt lat="46.57427" lon="5.24897">
        <ele>191.6</ele>
        <time>2022-08-30T06:13:07Z</time>
      </trkpt>
      <trkpt lat="46.57396" lon="5.24826">
        <ele>191.4</ele>
        <time>2022-08-30T06:13:14Z</time>
      </trkpt>
      <trkpt lat="46.57378" lon="5.24789">
        <ele>191.2</ele>
        <time>2022-08-30T06:13:18Z</time>
      </trkpt>
      <trkpt lat="46.57373" lon="5.24782">
        <ele>191.2</ele>
        <time>2022-08-30T06:13:19Z</time>
      </trkpt>
      <trkpt lat="46.57354" lon="5.24764">
        <ele>191.2</ele>
        <time>2022-08-30T06:13:22Z</time>
      </trkpt>
      <trkpt lat="46.57311" lon="5.2472">
        <ele>191.2</ele>
        <time>2022-08-30T06:13:29Z</time>
      </trkpt>
      <trkpt lat="46.57302" lon="5.24704">
        <ele>191.2</ele>
        <time>2022-08-30T06:13:31Z</time>
      </trkpt>
      <trkpt lat="46.57298" lon="5.24694">
        <ele>191.2</ele>
        <time>2022-08-30T06:13:32Z</time>
      </trkpt>
      <trkpt lat="46.57287" lon="5.24664">
        <ele>191</ele>
        <time>2022-08-30T06:13:35Z</time>
      </trkpt>
      <trkpt lat="46.57277" lon="5.24651">
        <ele>190.8</ele>
        <time>2022-08-30T06:13:37Z</time>
      </trkpt>
      <trkpt lat="46.5727" lon="5.24648">
        <ele>190.6</ele>
        <time>2022-08-30T06:13:38Z</time>
      </trkpt>
      <trkpt lat="46.57263" lon="5.24649">
        <ele>190.6</ele>
        <time>2022-08-30T06:13:39Z</time>
      </trkpt>
      <trkpt lat="46.57225" lon="5.24664">
        <ele>190.6</ele>
        <time>2022-08-30T06:13:44Z</time>
      </trkpt>
      <trkpt lat="46.57177" lon="5.2468">
        <ele>191</ele>
        <time>2022-08-30T06:13:52Z</time>
      </trkpt>
      <trkpt lat="46.57145" lon="5.2469">
        <ele>191.4</ele>
        <time>2022-08-30T06:13:57Z</time>
      </trkpt>
      <trkpt lat="46.57134" lon="5.24691">
        <ele>191.4</ele>
        <time>2022-08-30T06:13:59Z</time>
      </trkpt>
      <trkpt lat="46.57127" lon="5.24691">
        <ele>191.6</ele>
        <time>2022-08-30T06:14:00Z</time>
      </trkpt>
      <trkpt lat="46.57116" lon="5.24688">
        <ele>191.8</ele>
        <time>2022-08-30T06:14:02Z</time>
      </trkpt>
      <trkpt lat="46.57104" lon="5.24685">
        <ele>192</ele>
        <time>2022-08-30T06:14:04Z</time>
      </trkpt>
      <trkpt lat="46.57065" lon="5.24672">
        <ele>192.8</ele>
        <time>2022-08-30T06:14:11Z</time>
      </trkpt>
      <trkpt lat="46.57059" lon="5.2467">
        <ele>193</ele>
        <time>2022-08-30T06:14:12Z</time>
      </trkpt>
      <trkpt lat="46.57026" lon="5.24658">
        <ele>194</ele>
        <time>2022-08-30T06:14:18Z</time>
      </trkpt>
      <trkpt lat="46.5701" lon="5.24652">
        <ele>194.6</ele>
        <time>2022-08-30T06:14:21Z</time>
      </trkpt>
      <trkpt lat="46.57005" lon="5.24651">
        <ele>195</ele>
        <time>2022-08-30T06:14:22Z</time>
      </trkpt>
      <trkpt lat="46.56969" lon="5.24638">
        <ele>196</ele>
        <time>2022-08-30T06:14:29Z</time>
      </trkpt>
      <trkpt lat="46.56954" lon="5.24632">
        <ele>196.2</ele>
        <time>2022-08-30T06:14:32Z</time>
      </trkpt>
      <trkpt lat="46.56924" lon="5.24621">
        <ele>197.2</ele>
        <time>2022-08-30T06:14:38Z</time>
      </trkpt>
      <trkpt lat="46.56896" lon="5.24611">
        <ele>197.8</ele>
        <time>2022-08-30T06:14:43Z</time>
      </trkpt>
      <trkpt lat="46.56886" lon="5.24608">
        <ele>198.2</ele>
        <time>2022-08-30T06:14:46Z</time>
      </trkpt>
      <trkpt lat="46.5684" lon="5.24592">
        <ele>199.2</ele>
        <time>2022-08-30T06:14:54Z</time>
      </trkpt>
      <trkpt lat="46.5683" lon="5.24588">
        <ele>199.4</ele>
        <time>2022-08-30T06:14:56Z</time>
      </trkpt>
      <trkpt lat="46.56774" lon="5.24569">
        <ele>200.2</ele>
        <time>2022-08-30T06:15:06Z</time>
      </trkpt>
      <trkpt lat="46.56768" lon="5.24567">
        <ele>200.2</ele>
        <time>2022-08-30T06:15:07Z</time>
      </trkpt>
      <trkpt lat="46.56758" lon="5.24563">
        <ele>200.4</ele>
        <time>2022-08-30T06:15:09Z</time>
      </trkpt>
      <trkpt lat="46.56722" lon="5.2455">
        <ele>201.4</ele>
        <time>2022-08-30T06:15:16Z</time>
      </trkpt>
      <trkpt lat="46.56712" lon="5.24547">
        <ele>201.6</ele>
        <time>2022-08-30T06:15:18Z</time>
      </trkpt>
      <trkpt lat="46.56682" lon="5.24536">
        <ele>202.4</ele>
        <time>2022-08-30T06:15:24Z</time>
      </trkpt>
      <trkpt lat="46.56664" lon="5.24529">
        <ele>203</ele>
        <time>2022-08-30T06:15:28Z</time>
      </trkpt>
      <trkpt lat="46.56655" lon="5.24527">
        <ele>203.4</ele>
        <time>2022-08-30T06:15:30Z</time>
      </trkpt>
      <trkpt lat="46.56636" lon="5.24521">
        <ele>204.8</ele>
        <time>2022-08-30T06:15:34Z</time>
      </trkpt>
      <trkpt lat="46.56623" lon="5.24517">
        <ele>205</ele>
        <time>2022-08-30T06:15:37Z</time>
      </trkpt>
      <trkpt lat="46.56609" lon="5.24512">
        <ele>206</ele>
        <time>2022-08-30T06:15:40Z</time>
      </trkpt>
      <trkpt lat="46.56593" lon="5.24506">
        <ele>207</ele>
        <time>2022-08-30T06:15:43Z</time>
      </trkpt>
      <trkpt lat="46.56577" lon="5.245">
        <ele>207.4</ele>
        <time>2022-08-30T06:15:47Z</time>
      </trkpt>
      <trkpt lat="46.56546" lon="5.24489">
        <ele>208</ele>
        <time>2022-08-30T06:15:53Z</time>
      </trkpt>
      <trkpt lat="46.56531" lon="5.24483">
        <ele>208.8</ele>
        <time>2022-08-30T06:15:56Z</time>
      </trkpt>
      <trkpt lat="46.56516" lon="5.24478">
        <ele>209</ele>
        <time>2022-08-30T06:15:59Z</time>
      </trkpt>
      <trkpt lat="46.56464" lon="5.24461">
        <ele>209.8</ele>
        <time>2022-08-30T06:16:09Z</time>
      </trkpt>
      <trkpt lat="46.56452" lon="5.24457">
        <ele>210.2</ele>
        <time>2022-08-30T06:16:11Z</time>
      </trkpt>
      <trkpt lat="46.56407" lon="5.24442">
        <ele>211.2</ele>
        <time>2022-08-30T06:16:20Z</time>
      </trkpt>
      <trkpt lat="46.56402" lon="5.2444">
        <ele>211.4</ele>
        <time>2022-08-30T06:16:21Z</time>
      </trkpt>
      <trkpt lat="46.56367" lon="5.24427">
        <ele>212.2</ele>
        <time>2022-08-30T06:16:28Z</time>
      </trkpt>
      <trkpt lat="46.56352" lon="5.24422">
        <ele>212.4</ele>
        <time>2022-08-30T06:16:31Z</time>
      </trkpt>
      <trkpt lat="46.56321" lon="5.24412">
        <ele>213.4</ele>
        <time>2022-08-30T06:16:37Z</time>
      </trkpt>
      <trkpt lat="46.56295" lon="5.24403">
        <ele>214</ele>
        <time>2022-08-30T06:16:42Z</time>
      </trkpt>
      <trkpt lat="46.56239" lon="5.24384">
        <ele>214.2</ele>
        <time>2022-08-30T06:16:52Z</time>
      </trkpt>
      <trkpt lat="46.56233" lon="5.24382">
        <ele>214.4</ele>
        <time>2022-08-30T06:16:53Z</time>
      </trkpt>
      <trkpt lat="46.56219" lon="5.24378">
        <ele>214.4</ele>
        <time>2022-08-30T06:16:55Z</time>
      </trkpt>
      <trkpt lat="46.56202" lon="5.24371">
        <ele>214.4</ele>
        <time>2022-08-30T06:16:58Z</time>
      </trkpt>
      <trkpt lat="46.56146" lon="5.24351">
        <ele>214.6</ele>
        <time>2022-08-30T06:17:07Z</time>
      </trkpt>
      <trkpt lat="46.56094" lon="5.24333">
        <ele>214.6</ele>
        <time>2022-08-30T06:17:15Z</time>
      </trkpt>
      <trkpt lat="46.56037" lon="5.24313">
        <ele>214.6</ele>
        <time>2022-08-30T06:17:23Z</time>
      </trkpt>
      <trkpt lat="46.5603" lon="5.24311">
        <ele>214.4</ele>
        <time>2022-08-30T06:17:24Z</time>
      </trkpt>
      <trkpt lat="46.55991" lon="5.24302">
        <ele>214.4</ele>
        <time>2022-08-30T06:17:30Z</time>
      </trkpt>
      <trkpt lat="46.55984" lon="5.24302">
        <ele>214.4</ele>
        <time>2022-08-30T06:17:31Z</time>
      </trkpt>
      <trkpt lat="46.55969" lon="5.243">
        <ele>214.4</ele>
        <time>2022-08-30T06:17:33Z</time>
      </trkpt>
      <trkpt lat="46.55963" lon="5.24294">
        <ele>214.2</ele>
        <time>2022-08-30T06:17:34Z</time>
      </trkpt>
      <trkpt lat="46.55956" lon="5.24277">
        <ele>214</ele>
        <time>2022-08-30T06:17:36Z</time>
      </trkpt>
      <trkpt lat="46.55954" lon="5.24266">
        <ele>214</ele>
        <time>2022-08-30T06:17:37Z</time>
      </trkpt>
      <trkpt lat="46.55954" lon="5.24253">
        <ele>213.8</ele>
        <time>2022-08-30T06:17:38Z</time>
      </trkpt>
      <trkpt lat="46.55952" lon="5.24229">
        <ele>213.4</ele>
        <time>2022-08-30T06:17:40Z</time>
      </trkpt>
      <trkpt lat="46.55949" lon="5.24207">
        <ele>213.2</ele>
        <time>2022-08-30T06:17:42Z</time>
      </trkpt>
      <trkpt lat="46.55933" lon="5.24142">
        <ele>213.2</ele>
        <time>2022-08-30T06:17:48Z</time>
      </trkpt>
      <trkpt lat="46.55916" lon="5.24087">
        <ele>214</ele>
        <time>2022-08-30T06:17:54Z</time>
      </trkpt>
      <trkpt lat="46.55904" lon="5.24048">
        <ele>214.4</ele>
        <time>2022-08-30T06:17:58Z</time>
      </trkpt>
      <trkpt lat="46.55896" lon="5.24019">
        <ele>214.6</ele>
        <time>2022-08-30T06:18:01Z</time>
      </trkpt>
      <trkpt lat="46.55869" lon="5.23944">
        <ele>214.4</ele>
        <time>2022-08-30T06:18:09Z</time>
      </trkpt>
      <trkpt lat="46.55858" lon="5.23927">
        <ele>214.4</ele>
        <time>2022-08-30T06:18:11Z</time>
      </trkpt>
      <trkpt lat="46.55846" lon="5.23915">
        <ele>214.4</ele>
        <time>2022-08-30T06:18:13Z</time>
      </trkpt>
      <trkpt lat="46.5581" lon="5.23893">
        <ele>214.2</ele>
        <time>2022-08-30T06:18:18Z</time>
      </trkpt>
      <trkpt lat="46.55803" lon="5.23888">
        <ele>214.2</ele>
        <time>2022-08-30T06:18:19Z</time>
      </trkpt>
      <trkpt lat="46.55753" lon="5.23849">
        <ele>214.4</ele>
        <time>2022-08-30T06:18:27Z</time>
      </trkpt>
      <trkpt lat="46.55746" lon="5.23844">
        <ele>214.4</ele>
        <time>2022-08-30T06:18:28Z</time>
      </trkpt>
      <trkpt lat="46.55716" lon="5.23822">
        <ele>214.6</ele>
        <time>2022-08-30T06:18:33Z</time>
      </trkpt>
      <trkpt lat="46.55689" lon="5.23818">
        <ele>214.6</ele>
        <time>2022-08-30T06:18:37Z</time>
      </trkpt>
      <trkpt lat="46.55681" lon="5.23819">
        <ele>214.6</ele>
        <time>2022-08-30T06:18:38Z</time>
      </trkpt>
      <trkpt lat="46.55666" lon="5.2382">
        <ele>214.4</ele>
        <time>2022-08-30T06:18:40Z</time>
      </trkpt>
      <trkpt lat="46.55651" lon="5.23819">
        <ele>214.2</ele>
        <time>2022-08-30T06:18:42Z</time>
      </trkpt>
      <trkpt lat="46.55615" lon="5.2382">
        <ele>213.4</ele>
        <time>2022-08-30T06:18:46Z</time>
      </trkpt>
      <trkpt lat="46.55606" lon="5.2382">
        <ele>213.2</ele>
        <time>2022-08-30T06:18:47Z</time>
      </trkpt>
      <trkpt lat="46.55576" lon="5.23819">
        <ele>212</ele>
        <time>2022-08-30T06:18:50Z</time>
      </trkpt>
      <trkpt lat="46.55566" lon="5.23817">
        <ele>211.8</ele>
        <time>2022-08-30T06:18:51Z</time>
      </trkpt>
      <trkpt lat="46.55545" lon="5.23812">
        <ele>210.6</ele>
        <time>2022-08-30T06:18:53Z</time>
      </trkpt>
      <trkpt lat="46.55524" lon="5.23803">
        <ele>209.6</ele>
        <time>2022-08-30T06:18:55Z</time>
      </trkpt>
      <trkpt lat="46.55514" lon="5.23797">
        <ele>209.2</ele>
        <time>2022-08-30T06:18:56Z</time>
      </trkpt>
      <trkpt lat="46.55495" lon="5.23784">
        <ele>208</ele>
        <time>2022-08-30T06:18:58Z</time>
      </trkpt>
      <trkpt lat="46.55465" lon="5.23764">
        <ele>206.8</ele>
        <time>2022-08-30T06:19:01Z</time>
      </trkpt>
      <trkpt lat="46.55446" lon="5.2375">
        <ele>205.2</ele>
        <time>2022-08-30T06:19:03Z</time>
      </trkpt>
      <trkpt lat="46.55418" lon="5.23729">
        <ele>203.8</ele>
        <time>2022-08-30T06:19:06Z</time>
      </trkpt>
      <trkpt lat="46.55391" lon="5.23711">
        <ele>202</ele>
        <time>2022-08-30T06:19:09Z</time>
      </trkpt>
      <trkpt lat="46.5536" lon="5.23689">
        <ele>200.8</ele>
        <time>2022-08-30T06:19:13Z</time>
      </trkpt>
      <trkpt lat="46.55333" lon="5.23669">
        <ele>200.2</ele>
        <time>2022-08-30T06:19:16Z</time>
      </trkpt>
      <trkpt lat="46.55282" lon="5.23628">
        <ele>199.8</ele>
        <time>2022-08-30T06:19:23Z</time>
      </trkpt>
      <trkpt lat="46.55275" lon="5.23622">
        <ele>199.8</ele>
        <time>2022-08-30T06:19:24Z</time>
      </trkpt>
      <trkpt lat="46.55227" lon="5.23582">
        <ele>199.8</ele>
        <time>2022-08-30T06:19:31Z</time>
      </trkpt>
      <trkpt lat="46.55221" lon="5.23577">
        <ele>199.8</ele>
        <time>2022-08-30T06:19:32Z</time>
      </trkpt>
      <trkpt lat="46.55167" lon="5.23534">
        <ele>200</ele>
        <time>2022-08-30T06:19:40Z</time>
      </trkpt>
      <trkpt lat="46.55154" lon="5.23523">
        <ele>200</ele>
        <time>2022-08-30T06:19:42Z</time>
      </trkpt>
      <trkpt lat="46.55109" lon="5.23483">
        <ele>200.2</ele>
        <time>2022-08-30T06:19:49Z</time>
      </trkpt>
      <trkpt lat="46.55097" lon="5.23469">
        <ele>200.2</ele>
        <time>2022-08-30T06:19:51Z</time>
      </trkpt>
      <trkpt lat="46.55051" lon="5.2341">
        <ele>199.8</ele>
        <time>2022-08-30T06:19:59Z</time>
      </trkpt>
      <trkpt lat="46.55035" lon="5.23384">
        <ele>199.6</ele>
        <time>2022-08-30T06:20:02Z</time>
      </trkpt>
      <trkpt lat="46.55027" lon="5.23363">
        <ele>199.4</ele>
        <time>2022-08-30T06:20:04Z</time>
      </trkpt>
      <trkpt lat="46.55017" lon="5.23331">
        <ele>198.8</ele>
        <time>2022-08-30T06:20:07Z</time>
      </trkpt>
      <trkpt lat="46.55008" lon="5.233">
        <ele>198.6</ele>
        <time>2022-08-30T06:20:11Z</time>
      </trkpt>
      <trkpt lat="46.54993" lon="5.23249">
        <ele>198.8</ele>
        <time>2022-08-30T06:20:16Z</time>
      </trkpt>
      <trkpt lat="46.54985" lon="5.23227">
        <ele>199.2</ele>
        <time>2022-08-30T06:20:19Z</time>
      </trkpt>
      <trkpt lat="46.54976" lon="5.2321">
        <ele>200</ele>
        <time>2022-08-30T06:20:22Z</time>
      </trkpt>
      <trkpt lat="46.54965" lon="5.23195">
        <ele>200.6</ele>
        <time>2022-08-30T06:20:25Z</time>
      </trkpt>
      <trkpt lat="46.54953" lon="5.23183">
        <ele>200.8</ele>
        <time>2022-08-30T06:20:28Z</time>
      </trkpt>
      <trkpt lat="46.54949" lon="5.23179">
        <ele>201.2</ele>
        <time>2022-08-30T06:20:29Z</time>
      </trkpt>
      <trkpt lat="46.54934" lon="5.23165">
        <ele>202.2</ele>
        <time>2022-08-30T06:20:33Z</time>
      </trkpt>
      <trkpt lat="46.54922" lon="5.23155">
        <ele>203</ele>
        <time>2022-08-30T06:20:36Z</time>
      </trkpt>
      <trkpt lat="46.54918" lon="5.23151">
        <ele>203.4</ele>
        <time>2022-08-30T06:20:37Z</time>
      </trkpt>
      <trkpt lat="46.54903" lon="5.23135">
        <ele>204.6</ele>
        <time>2022-08-30T06:20:41Z</time>
      </trkpt>
      <trkpt lat="46.54885" lon="5.23118">
        <ele>205.6</ele>
        <time>2022-08-30T06:20:46Z</time>
      </trkpt>
      <trkpt lat="46.54882" lon="5.23115">
        <ele>205.8</ele>
        <time>2022-08-30T06:20:47Z</time>
      </trkpt>
      <trkpt lat="46.54864" lon="5.23099">
        <ele>207</ele>
        <time>2022-08-30T06:20:52Z</time>
      </trkpt>
      <trkpt lat="46.54858" lon="5.23092">
        <ele>207.4</ele>
        <time>2022-08-30T06:20:54Z</time>
      </trkpt>
      <trkpt lat="46.54847" lon="5.23082">
        <ele>208.2</ele>
        <time>2022-08-30T06:20:57Z</time>
      </trkpt>
      <trkpt lat="46.54829" lon="5.23066">
        <ele>209.2</ele>
        <time>2022-08-30T06:21:02Z</time>
      </trkpt>
      <trkpt lat="46.54802" lon="5.23039">
        <ele>210.6</ele>
        <time>2022-08-30T06:21:09Z</time>
      </trkpt>
      <trkpt lat="46.54797" lon="5.23034">
        <ele>210.8</ele>
        <time>2022-08-30T06:21:10Z</time>
      </trkpt>
      <trkpt lat="46.54765" lon="5.23002">
        <ele>211.4</ele>
        <time>2022-08-30T06:21:17Z</time>
      </trkpt>
      <trkpt lat="46.54723" lon="5.22959">
        <ele>211.4</ele>
        <time>2022-08-30T06:21:25Z</time>
      </trkpt>
      <trkpt lat="46.54686" lon="5.22932">
        <ele>211.2</ele>
        <time>2022-08-30T06:21:32Z</time>
      </trkpt>
      <trkpt lat="46.54665" lon="5.22921">
        <ele>211.6</ele>
        <time>2022-08-30T06:21:36Z</time>
      </trkpt>
      <trkpt lat="46.54627" lon="5.22901">
        <ele>212</ele>
        <time>2022-08-30T06:21:43Z</time>
      </trkpt>
      <trkpt lat="46.5458" lon="5.22875">
        <ele>212.6</ele>
        <time>2022-08-30T06:21:52Z</time>
      </trkpt>
      <trkpt lat="46.54575" lon="5.22873">
        <ele>212.8</ele>
        <time>2022-08-30T06:21:53Z</time>
      </trkpt>
      <trkpt lat="46.54531" lon="5.22846">
        <ele>213.2</ele>
        <time>2022-08-30T06:22:01Z</time>
      </trkpt>
      <trkpt lat="46.54516" lon="5.22827">
        <ele>213.2</ele>
        <time>2022-08-30T06:22:04Z</time>
      </trkpt>
      <trkpt lat="46.54512" lon="5.22819">
        <ele>213.2</ele>
        <time>2022-08-30T06:22:05Z</time>
      </trkpt>
      <trkpt lat="46.54478" lon="5.22754">
        <ele>213.2</ele>
        <time>2022-08-30T06:22:14Z</time>
      </trkpt>
      <trkpt lat="46.54468" lon="5.22735">
        <ele>213.2</ele>
        <time>2022-08-30T06:22:16Z</time>
      </trkpt>
      <trkpt lat="46.54435" lon="5.22693">
        <ele>213.2</ele>
        <time>2022-08-30T06:22:22Z</time>
      </trkpt>
      <trkpt lat="46.54403" lon="5.22661">
        <ele>212.8</ele>
        <time>2022-08-30T06:22:27Z</time>
      </trkpt>
      <trkpt lat="46.54352" lon="5.2261">
        <ele>212.2</ele>
        <time>2022-08-30T06:22:35Z</time>
      </trkpt>
      <trkpt lat="46.54305" lon="5.22564">
        <ele>212.2</ele>
        <time>2022-08-30T06:22:43Z</time>
      </trkpt>
      <trkpt lat="46.54299" lon="5.22558">
        <ele>212.2</ele>
        <time>2022-08-30T06:22:44Z</time>
      </trkpt>
      <trkpt lat="46.54278" lon="5.22532">
        <ele>212.2</ele>
        <time>2022-08-30T06:22:48Z</time>
      </trkpt>
      <trkpt lat="46.54274" lon="5.22523">
        <ele>212.2</ele>
        <time>2022-08-30T06:22:49Z</time>
      </trkpt>
      <trkpt lat="46.54271" lon="5.22514">
        <ele>212.2</ele>
        <time>2022-08-30T06:22:50Z</time>
      </trkpt>
      <trkpt lat="46.54268" lon="5.22493">
        <ele>212.2</ele>
        <time>2022-08-30T06:22:52Z</time>
      </trkpt>
      <trkpt lat="46.5427" lon="5.22437">
        <ele>212.2</ele>
        <time>2022-08-30T06:22:57Z</time>
      </trkpt>
      <trkpt lat="46.54272" lon="5.22373">
        <ele>211.6</ele>
        <time>2022-08-30T06:23:02Z</time>
      </trkpt>
      <trkpt lat="46.54274" lon="5.22317">
        <ele>210.6</ele>
        <time>2022-08-30T06:23:06Z</time>
      </trkpt>
      <trkpt lat="46.54275" lon="5.22302">
        <ele>210</ele>
        <time>2022-08-30T06:23:07Z</time>
      </trkpt>
      <trkpt lat="46.54276" lon="5.22274">
        <ele>209.4</ele>
        <time>2022-08-30T06:23:09Z</time>
      </trkpt>
      <trkpt lat="46.54277" lon="5.2226">
        <ele>208.2</ele>
        <time>2022-08-30T06:23:11Z</time>
      </trkpt>
      <trkpt lat="46.54278" lon="5.22224">
        <ele>207.2</ele>
        <time>2022-08-30T06:23:13Z</time>
      </trkpt>
      <trkpt lat="46.5428" lon="5.22178">
        <ele>206</ele>
        <time>2022-08-30T06:23:16Z</time>
      </trkpt>
      <trkpt lat="46.54279" lon="5.2214">
        <ele>205.8</ele>
        <time>2022-08-30T06:23:19Z</time>
      </trkpt>
      <trkpt lat="46.54274" lon="5.22116">
        <ele>205.4</ele>
        <time>2022-08-30T06:23:21Z</time>
      </trkpt>
      <trkpt lat="46.54253" lon="5.22065">
        <ele>205.2</ele>
        <time>2022-08-30T06:23:26Z</time>
      </trkpt>
      <trkpt lat="46.54236" lon="5.2203">
        <ele>205.2</ele>
        <time>2022-08-30T06:23:30Z</time>
      </trkpt>
      <trkpt lat="46.54233" lon="5.22021">
        <ele>205.2</ele>
        <time>2022-08-30T06:23:31Z</time>
      </trkpt>
      <trkpt lat="46.5421" lon="5.21973">
        <ele>206.8</ele>
        <time>2022-08-30T06:23:37Z</time>
      </trkpt>
      <trkpt lat="46.54206" lon="5.21965">
        <ele>207.2</ele>
        <time>2022-08-30T06:23:38Z</time>
      </trkpt>
      <trkpt lat="46.54188" lon="5.21925">
        <ele>208.2</ele>
        <time>2022-08-30T06:23:43Z</time>
      </trkpt>
      <trkpt lat="46.54178" lon="5.21899">
        <ele>208.4</ele>
        <time>2022-08-30T06:23:46Z</time>
      </trkpt>
      <trkpt lat="46.54169" lon="5.21875">
        <ele>209</ele>
        <time>2022-08-30T06:23:49Z</time>
      </trkpt>
      <trkpt lat="46.54166" lon="5.21867">
        <ele>209.4</ele>
        <time>2022-08-30T06:23:50Z</time>
      </trkpt>
      <trkpt lat="46.54161" lon="5.2185">
        <ele>209.8</ele>
        <time>2022-08-30T06:23:52Z</time>
      </trkpt>
      <trkpt lat="46.54159" lon="5.21843">
        <ele>210.2</ele>
        <time>2022-08-30T06:23:53Z</time>
      </trkpt>
      <trkpt lat="46.54141" lon="5.21783">
        <ele>210.8</ele>
        <time>2022-08-30T06:24:00Z</time>
      </trkpt>
      <trkpt lat="46.54119" lon="5.2171">
        <ele>210.8</ele>
        <time>2022-08-30T06:24:08Z</time>
      </trkpt>
      <trkpt lat="46.54105" lon="5.21675">
        <ele>210</ele>
        <time>2022-08-30T06:24:12Z</time>
      </trkpt>
      <trkpt lat="46.54095" lon="5.21661">
        <ele>210</ele>
        <time>2022-08-30T06:24:14Z</time>
      </trkpt>
      <trkpt lat="46.54059" lon="5.21625">
        <ele>209.8</ele>
        <time>2022-08-30T06:24:20Z</time>
      </trkpt>
      <trkpt lat="46.54012" lon="5.2158">
        <ele>209.6</ele>
        <time>2022-08-30T06:24:28Z</time>
      </trkpt>
      <trkpt lat="46.53995" lon="5.21563">
        <ele>209.6</ele>
        <time>2022-08-30T06:24:31Z</time>
      </trkpt>
      <trkpt lat="46.53949" lon="5.2152">
        <ele>210</ele>
        <time>2022-08-30T06:24:40Z</time>
      </trkpt>
      <trkpt lat="46.53944" lon="5.21514">
        <ele>210.2</ele>
        <time>2022-08-30T06:24:41Z</time>
      </trkpt>
      <trkpt lat="46.53907" lon="5.2147">
        <ele>210.8</ele>
        <time>2022-08-30T06:24:48Z</time>
      </trkpt>
      <trkpt lat="46.5387" lon="5.21412">
        <ele>210.8</ele>
        <time>2022-08-30T06:24:56Z</time>
      </trkpt>
      <trkpt lat="46.53865" lon="5.21405">
        <ele>210.8</ele>
        <time>2022-08-30T06:24:57Z</time>
      </trkpt>
      <trkpt lat="46.53829" lon="5.21351">
        <ele>211</ele>
        <time>2022-08-30T06:25:05Z</time>
      </trkpt>
      <trkpt lat="46.53825" lon="5.21344">
        <ele>211</ele>
        <time>2022-08-30T06:25:06Z</time>
      </trkpt>
      <trkpt lat="46.53795" lon="5.21296">
        <ele>211.6</ele>
        <time>2022-08-30T06:25:13Z</time>
      </trkpt>
      <trkpt lat="46.53779" lon="5.21271">
        <ele>212</ele>
        <time>2022-08-30T06:25:17Z</time>
      </trkpt>
      <trkpt lat="46.53767" lon="5.21251">
        <ele>212.2</ele>
        <time>2022-08-30T06:25:20Z</time>
      </trkpt>
      <trkpt lat="46.53733" lon="5.21209">
        <ele>212</ele>
        <time>2022-08-30T06:25:27Z</time>
      </trkpt>
      <trkpt lat="46.537" lon="5.21173">
        <ele>212.2</ele>
        <time>2022-08-30T06:25:33Z</time>
      </trkpt>
      <trkpt lat="46.53665" lon="5.21135">
        <ele>212.2</ele>
        <time>2022-08-30T06:25:39Z</time>
      </trkpt>
      <trkpt lat="46.53627" lon="5.21098">
        <ele>212</ele>
        <time>2022-08-30T06:25:45Z</time>
      </trkpt>
      <trkpt lat="46.53617" lon="5.21083">
        <ele>212</ele>
        <time>2022-08-30T06:25:47Z</time>
      </trkpt>
      <trkpt lat="46.53593" lon="5.21029">
        <ele>211.8</ele>
        <time>2022-08-30T06:25:53Z</time>
      </trkpt>
      <trkpt lat="46.5359" lon="5.21008">
        <ele>211.8</ele>
        <time>2022-08-30T06:25:55Z</time>
      </trkpt>
      <trkpt lat="46.5359" lon="5.20998">
        <ele>211.8</ele>
        <time>2022-08-30T06:25:56Z</time>
      </trkpt>
      <trkpt lat="46.53592" lon="5.20934">
        <ele>211.4</ele>
        <time>2022-08-30T06:26:02Z</time>
      </trkpt>
      <trkpt lat="46.53591" lon="5.20924">
        <ele>211.2</ele>
        <time>2022-08-30T06:26:03Z</time>
      </trkpt>
      <trkpt lat="46.53585" lon="5.20883">
        <ele>211</ele>
        <time>2022-08-30T06:26:07Z</time>
      </trkpt>
      <trkpt lat="46.53578" lon="5.20852">
        <ele>210.8</ele>
        <time>2022-08-30T06:26:10Z</time>
      </trkpt>
      <trkpt lat="46.53575" lon="5.20843">
        <ele>210.8</ele>
        <time>2022-08-30T06:26:11Z</time>
      </trkpt>
      <trkpt lat="46.53565" lon="5.20824">
        <ele>210.8</ele>
        <time>2022-08-30T06:26:13Z</time>
      </trkpt>
      <trkpt lat="46.53554" lon="5.20813">
        <ele>210.8</ele>
        <time>2022-08-30T06:26:15Z</time>
      </trkpt>
      <trkpt lat="46.53541" lon="5.20804">
        <ele>210.8</ele>
        <time>2022-08-30T06:26:17Z</time>
      </trkpt>
      <trkpt lat="46.53508" lon="5.20781">
        <ele>210.4</ele>
        <time>2022-08-30T06:26:22Z</time>
      </trkpt>
      <trkpt lat="46.53502" lon="5.20774">
        <ele>210.4</ele>
        <time>2022-08-30T06:26:23Z</time>
      </trkpt>
      <trkpt lat="46.53459" lon="5.20726">
        <ele>209.8</ele>
        <time>2022-08-30T06:26:30Z</time>
      </trkpt>
      <trkpt lat="46.53418" lon="5.20679">
        <ele>208.8</ele>
        <time>2022-08-30T06:26:37Z</time>
      </trkpt>
      <trkpt lat="46.53407" lon="5.20665">
        <ele>208.4</ele>
        <time>2022-08-30T06:26:39Z</time>
      </trkpt>
      <trkpt lat="46.53405" lon="5.20649">
        <ele>208</ele>
        <time>2022-08-30T06:26:41Z</time>
      </trkpt>
      <trkpt lat="46.5341" lon="5.20634">
        <ele>207.6</ele>
        <time>2022-08-30T06:26:43Z</time>
      </trkpt>
      <trkpt lat="46.5342" lon="5.20615">
        <ele>207.2</ele>
        <time>2022-08-30T06:26:45Z</time>
      </trkpt>
      <trkpt lat="46.53442" lon="5.20584">
        <ele>206.6</ele>
        <time>2022-08-30T06:26:49Z</time>
      </trkpt>
      <trkpt lat="46.53449" lon="5.20576">
        <ele>206.4</ele>
        <time>2022-08-30T06:26:50Z</time>
      </trkpt>
      <trkpt lat="46.53488" lon="5.20524">
        <ele>205.8</ele>
        <time>2022-08-30T06:26:56Z</time>
      </trkpt>
      <trkpt lat="46.53502" lon="5.20506">
        <ele>205.6</ele>
        <time>2022-08-30T06:26:58Z</time>
      </trkpt>
      <trkpt lat="46.5353" lon="5.20468">
        <ele>204.6</ele>
        <time>2022-08-30T06:27:02Z</time>
      </trkpt>
      <trkpt lat="46.53537" lon="5.20459">
        <ele>204</ele>
        <time>2022-08-30T06:27:03Z</time>
      </trkpt>
      <trkpt lat="46.53557" lon="5.20432">
        <ele>203.4</ele>
        <time>2022-08-30T06:27:06Z</time>
      </trkpt>
      <trkpt lat="46.53588" lon="5.20391">
        <ele>203</ele>
        <time>2022-08-30T06:27:11Z</time>
      </trkpt>
      <trkpt lat="46.5362" lon="5.20347">
        <ele>203.4</ele>
        <time>2022-08-30T06:27:17Z</time>
      </trkpt>
      <trkpt lat="46.53651" lon="5.20301">
        <ele>204.6</ele>
        <time>2022-08-30T06:27:24Z</time>
      </trkpt>
      <trkpt lat="46.53672" lon="5.20266">
        <ele>205.8</ele>
        <time>2022-08-30T06:27:29Z</time>
      </trkpt>
      <trkpt lat="46.53688" lon="5.20238">
        <ele>206.8</ele>
        <time>2022-08-30T06:27:33Z</time>
      </trkpt>
      <trkpt lat="46.53712" lon="5.20196">
        <ele>208</ele>
        <time>2022-08-30T06:27:39Z</time>
      </trkpt>
      <trkpt lat="46.53749" lon="5.20132">
        <ele>208.8</ele>
        <time>2022-08-30T06:27:48Z</time>
      </trkpt>
      <trkpt lat="46.53753" lon="5.20125">
        <ele>208.8</ele>
        <time>2022-08-30T06:27:50Z</time>
      </trkpt>
      <trkpt lat="46.53775" lon="5.20089">
        <ele>208.8</ele>
        <time>2022-08-30T06:27:54Z</time>
      </trkpt>
      <trkpt lat="46.53792" lon="5.20061">
        <ele>209</ele>
        <time>2022-08-30T06:27:58Z</time>
      </trkpt>
      <trkpt lat="46.53831" lon="5.20002">
        <ele>208.6</ele>
        <time>2022-08-30T06:28:06Z</time>
      </trkpt>
      <trkpt lat="46.53837" lon="5.19994">
        <ele>208.4</ele>
        <time>2022-08-30T06:28:07Z</time>
      </trkpt>
      <trkpt lat="46.53873" lon="5.19942">
        <ele>207.4</ele>
        <time>2022-08-30T06:28:13Z</time>
      </trkpt>
      <trkpt lat="46.53886" lon="5.19923">
        <ele>206.4</ele>
        <time>2022-08-30T06:28:15Z</time>
      </trkpt>
      <trkpt lat="46.53907" lon="5.19893">
        <ele>205.2</ele>
        <time>2022-08-30T06:28:18Z</time>
      </trkpt>
      <trkpt lat="46.5392" lon="5.19873">
        <ele>204.4</ele>
        <time>2022-08-30T06:28:20Z</time>
      </trkpt>
      <trkpt lat="46.53927" lon="5.19863">
        <ele>204</ele>
        <time>2022-08-30T06:28:21Z</time>
      </trkpt>
      <trkpt lat="46.53938" lon="5.1984">
        <ele>202.6</ele>
        <time>2022-08-30T06:28:23Z</time>
      </trkpt>
      <trkpt lat="46.53948" lon="5.19816">
        <ele>201.6</ele>
        <time>2022-08-30T06:28:25Z</time>
      </trkpt>
      <trkpt lat="46.53971" lon="5.19757">
        <ele>200.4</ele>
        <time>2022-08-30T06:28:30Z</time>
      </trkpt>
      <trkpt lat="46.53992" lon="5.19702">
        <ele>199.6</ele>
        <time>2022-08-30T06:28:35Z</time>
      </trkpt>
      <trkpt lat="46.54015" lon="5.19645">
        <ele>199.4</ele>
        <time>2022-08-30T06:28:41Z</time>
      </trkpt>
      <trkpt lat="46.54034" lon="5.19599">
        <ele>199.6</ele>
        <time>2022-08-30T06:28:46Z</time>
      </trkpt>
      <trkpt lat="46.54039" lon="5.19591">
        <ele>199.8</ele>
        <time>2022-08-30T06:28:47Z</time>
      </trkpt>
      <trkpt lat="46.5407" lon="5.1956">
        <ele>200</ele>
        <time>2022-08-30T06:28:52Z</time>
      </trkpt>
      <trkpt lat="46.5412" lon="5.19531">
        <ele>200.6</ele>
        <time>2022-08-30T06:28:59Z</time>
      </trkpt>
      <trkpt lat="46.5417" lon="5.19518">
        <ele>201.2</ele>
        <time>2022-08-30T06:29:06Z</time>
      </trkpt>
      <trkpt lat="46.54223" lon="5.19505">
        <ele>201.4</ele>
        <time>2022-08-30T06:29:14Z</time>
      </trkpt>
      <trkpt lat="46.54247" lon="5.19499">
        <ele>201.4</ele>
        <time>2022-08-30T06:29:17Z</time>
      </trkpt>
      <trkpt lat="46.54297" lon="5.19487">
        <ele>201.4</ele>
        <time>2022-08-30T06:29:24Z</time>
      </trkpt>
      <trkpt lat="46.5432" lon="5.19482">
        <ele>201.4</ele>
        <time>2022-08-30T06:29:27Z</time>
      </trkpt>
      <trkpt lat="46.5438" lon="5.19467">
        <ele>201.2</ele>
        <time>2022-08-30T06:29:35Z</time>
      </trkpt>
      <trkpt lat="46.54396" lon="5.1946">
        <ele>200.8</ele>
        <time>2022-08-30T06:29:37Z</time>
      </trkpt>
      <trkpt lat="46.54404" lon="5.19455">
        <ele>200.4</ele>
        <time>2022-08-30T06:29:38Z</time>
      </trkpt>
      <trkpt lat="46.54418" lon="5.19441">
        <ele>200</ele>
        <time>2022-08-30T06:29:40Z</time>
      </trkpt>
      <trkpt lat="46.54425" lon="5.19432">
        <ele>200</ele>
        <time>2022-08-30T06:29:41Z</time>
      </trkpt>
      <trkpt lat="46.5443" lon="5.19422">
        <ele>199.6</ele>
        <time>2022-08-30T06:29:42Z</time>
      </trkpt>
      <trkpt lat="46.54434" lon="5.19411">
        <ele>199.2</ele>
        <time>2022-08-30T06:29:43Z</time>
      </trkpt>
      <trkpt lat="46.54438" lon="5.194">
        <ele>199</ele>
        <time>2022-08-30T06:29:44Z</time>
      </trkpt>
      <trkpt lat="46.54448" lon="5.19355">
        <ele>198.2</ele>
        <time>2022-08-30T06:29:48Z</time>
      </trkpt>
      <trkpt lat="46.54449" lon="5.19344">
        <ele>198</ele>
        <time>2022-08-30T06:29:49Z</time>
      </trkpt>
      <trkpt lat="46.54449" lon="5.19299">
        <ele>197.8</ele>
        <time>2022-08-30T06:29:53Z</time>
      </trkpt>
      <trkpt lat="46.54443" lon="5.19249">
        <ele>198</ele>
        <time>2022-08-30T06:29:58Z</time>
      </trkpt>
      <trkpt lat="46.54438" lon="5.19199">
        <ele>199</ele>
        <time>2022-08-30T06:30:04Z</time>
      </trkpt>
      <trkpt lat="46.54435" lon="5.19144">
        <ele>200.2</ele>
        <time>2022-08-30T06:30:10Z</time>
      </trkpt>
      <trkpt lat="46.54435" lon="5.19133">
        <ele>200.4</ele>
        <time>2022-08-30T06:30:11Z</time>
      </trkpt>
      <trkpt lat="46.54433" lon="5.19061">
        <ele>201.2</ele>
        <time>2022-08-30T06:30:18Z</time>
      </trkpt>
      <trkpt lat="46.54433" lon="5.19048">
        <ele>201.4</ele>
        <time>2022-08-30T06:30:19Z</time>
      </trkpt>
      <trkpt lat="46.54434" lon="5.18963">
        <ele>201.6</ele>
        <time>2022-08-30T06:30:28Z</time>
      </trkpt>
      <trkpt lat="46.5444" lon="5.18902">
        <ele>202.4</ele>
        <time>2022-08-30T06:30:35Z</time>
      </trkpt>
      <trkpt lat="46.54457" lon="5.18822">
        <ele>203</ele>
        <time>2022-08-30T06:30:44Z</time>
      </trkpt>
      <trkpt lat="46.54459" lon="5.18811">
        <ele>203</ele>
        <time>2022-08-30T06:30:45Z</time>
      </trkpt>
      <trkpt lat="46.54478" lon="5.1873">
        <ele>203.4</ele>
        <time>2022-08-30T06:30:54Z</time>
      </trkpt>
      <trkpt lat="46.54483" lon="5.18712">
        <ele>203.2</ele>
        <time>2022-08-30T06:30:56Z</time>
      </trkpt>
      <trkpt lat="46.54505" lon="5.18672">
        <ele>203.2</ele>
        <time>2022-08-30T06:31:01Z</time>
      </trkpt>
      <trkpt lat="46.54533" lon="5.18646">
        <ele>203</ele>
        <time>2022-08-30T06:31:05Z</time>
      </trkpt>
      <trkpt lat="46.54581" lon="5.18602">
        <ele>201.4</ele>
        <time>2022-08-30T06:31:11Z</time>
      </trkpt>
      <trkpt lat="46.54589" lon="5.18595">
        <ele>201.2</ele>
        <time>2022-08-30T06:31:12Z</time>
      </trkpt>
      <trkpt lat="46.54606" lon="5.18579">
        <ele>199.8</ele>
        <time>2022-08-30T06:31:15Z</time>
      </trkpt>
      <trkpt lat="46.54628" lon="5.18559">
        <ele>199.6</ele>
        <time>2022-08-30T06:31:18Z</time>
      </trkpt>
      <trkpt lat="46.54662" lon="5.18531">
        <ele>200</ele>
        <time>2022-08-30T06:31:24Z</time>
      </trkpt>
      <trkpt lat="46.54684" lon="5.18518">
        <ele>200.8</ele>
        <time>2022-08-30T06:31:28Z</time>
      </trkpt>
      <trkpt lat="46.547" lon="5.1851">
        <ele>201.6</ele>
        <time>2022-08-30T06:31:31Z</time>
      </trkpt>
      <trkpt lat="46.54712" lon="5.18504">
        <ele>202</ele>
        <time>2022-08-30T06:31:33Z</time>
      </trkpt>
      <trkpt lat="46.54737" lon="5.18494">
        <ele>203</ele>
        <time>2022-08-30T06:31:38Z</time>
      </trkpt>
      <trkpt lat="46.54756" lon="5.18482">
        <ele>204</ele>
        <time>2022-08-30T06:31:42Z</time>
      </trkpt>
      <trkpt lat="46.54764" lon="5.18474">
        <ele>204.4</ele>
        <time>2022-08-30T06:31:44Z</time>
      </trkpt>
      <trkpt lat="46.54778" lon="5.18453">
        <ele>205.2</ele>
        <time>2022-08-30T06:31:48Z</time>
      </trkpt>
      <trkpt lat="46.54783" lon="5.18442">
        <ele>205.8</ele>
        <time>2022-08-30T06:31:50Z</time>
      </trkpt>
      <trkpt lat="46.54788" lon="5.1843">
        <ele>206.2</ele>
        <time>2022-08-30T06:31:52Z</time>
      </trkpt>
      <trkpt lat="46.54792" lon="5.18416">
        <ele>206.6</ele>
        <time>2022-08-30T06:31:54Z</time>
      </trkpt>
      <trkpt lat="46.54794" lon="5.18402">
        <ele>206.8</ele>
        <time>2022-08-30T06:31:56Z</time>
      </trkpt>
      <trkpt lat="46.54795" lon="5.18382">
        <ele>207.4</ele>
        <time>2022-08-30T06:31:59Z</time>
      </trkpt>
      <trkpt lat="46.54795" lon="5.18369">
        <ele>207.6</ele>
        <time>2022-08-30T06:32:01Z</time>
      </trkpt>
      <trkpt lat="46.54794" lon="5.18361">
        <ele>207.8</ele>
        <time>2022-08-30T06:32:03Z</time>
      </trkpt>
      <trkpt lat="46.54794" lon="5.18358">
        <ele>208</ele>
        <time>2022-08-30T06:32:06Z</time>
      </trkpt>
      <trkpt lat="46.54793" lon="5.18355">
        <ele>207.6</ele>
        <time>2022-08-30T06:32:49Z</time>
      </trkpt>
      <trkpt lat="46.54791" lon="5.18345">
        <ele>207.6</ele>
        <time>2022-08-30T06:32:51Z</time>
      </trkpt>
      <trkpt lat="46.54784" lon="5.18315">
        <ele>207.6</ele>
        <time>2022-08-30T06:32:55Z</time>
      </trkpt>
      <trkpt lat="46.54774" lon="5.18264">
        <ele>207.6</ele>
        <time>2022-08-30T06:33:00Z</time>
      </trkpt>
      <trkpt lat="46.5476" lon="5.1819">
        <ele>207.6</ele>
        <time>2022-08-30T06:33:07Z</time>
      </trkpt>
      <trkpt lat="46.54743" lon="5.18109">
        <ele>207.4</ele>
        <time>2022-08-30T06:33:15Z</time>
      </trkpt>
      <trkpt lat="46.54738" lon="5.18083">
        <ele>207.2</ele>
        <time>2022-08-30T06:33:17Z</time>
      </trkpt>
      <trkpt lat="46.5472" lon="5.18005">
        <ele>206.6</ele>
        <time>2022-08-30T06:33:24Z</time>
      </trkpt>
      <trkpt lat="46.54715" lon="5.17983">
        <ele>206.4</ele>
        <time>2022-08-30T06:33:26Z</time>
      </trkpt>
      <trkpt lat="46.54712" lon="5.17972">
        <ele>206.4</ele>
        <time>2022-08-30T06:33:27Z</time>
      </trkpt>
      <trkpt lat="46.54703" lon="5.17919">
        <ele>206.2</ele>
        <time>2022-08-30T06:33:32Z</time>
      </trkpt>
      <trkpt lat="46.54704" lon="5.17897">
        <ele>206.2</ele>
        <time>2022-08-30T06:33:34Z</time>
      </trkpt>
      <trkpt lat="46.54707" lon="5.17876">
        <ele>206.4</ele>
        <time>2022-08-30T06:33:36Z</time>
      </trkpt>
      <trkpt lat="46.54724" lon="5.17816">
        <ele>206.6</ele>
        <time>2022-08-30T06:33:42Z</time>
      </trkpt>
      <trkpt lat="46.54746" lon="5.17737">
        <ele>206.6</ele>
        <time>2022-08-30T06:33:50Z</time>
      </trkpt>
      <trkpt lat="46.54752" lon="5.17717">
        <ele>206.6</ele>
        <time>2022-08-30T06:33:52Z</time>
      </trkpt>
      <trkpt lat="46.54776" lon="5.17635">
        <ele>206.2</ele>
        <time>2022-08-30T06:34:00Z</time>
      </trkpt>
      <trkpt lat="46.54779" lon="5.17623">
        <ele>206</ele>
        <time>2022-08-30T06:34:01Z</time>
      </trkpt>
      <trkpt lat="46.548" lon="5.17548">
        <ele>204.6</ele>
        <time>2022-08-30T06:34:07Z</time>
      </trkpt>
      <trkpt lat="46.54812" lon="5.17506">
        <ele>203.6</ele>
        <time>2022-08-30T06:34:10Z</time>
      </trkpt>
      <trkpt lat="46.54822" lon="5.17474">
        <ele>202.6</ele>
        <time>2022-08-30T06:34:12Z</time>
      </trkpt>
      <trkpt lat="46.54824" lon="5.17469">
        <ele>202</ele>
        <time>2022-08-30T06:34:13Z</time>
      </trkpt>
      <trkpt lat="46.54831" lon="5.17456">
        <ele>200.8</ele>
        <time>2022-08-30T06:34:14Z</time>
      </trkpt>
      <trkpt lat="46.54852" lon="5.17429">
        <ele>199.6</ele>
        <time>2022-08-30T06:34:16Z</time>
      </trkpt>
      <trkpt lat="46.54873" lon="5.17419">
        <ele>198.2</ele>
        <time>2022-08-30T06:34:18Z</time>
      </trkpt>
      <trkpt lat="46.54903" lon="5.17411">
        <ele>196.8</ele>
        <time>2022-08-30T06:34:21Z</time>
      </trkpt>
      <trkpt lat="46.54912" lon="5.17409">
        <ele>196.6</ele>
        <time>2022-08-30T06:34:22Z</time>
      </trkpt>
      <trkpt lat="46.54922" lon="5.17406">
        <ele>195.8</ele>
        <time>2022-08-30T06:34:23Z</time>
      </trkpt>
      <trkpt lat="46.54956" lon="5.17395">
        <ele>195.2</ele>
        <time>2022-08-30T06:34:27Z</time>
      </trkpt>
      <trkpt lat="46.54963" lon="5.1739">
        <ele>195.2</ele>
        <time>2022-08-30T06:34:28Z</time>
      </trkpt>
      <trkpt lat="46.54975" lon="5.17376">
        <ele>195.2</ele>
        <time>2022-08-30T06:34:30Z</time>
      </trkpt>
      <trkpt lat="46.54982" lon="5.17355">
        <ele>195.2</ele>
        <time>2022-08-30T06:34:32Z</time>
      </trkpt>
      <trkpt lat="46.54983" lon="5.17344">
        <ele>195.2</ele>
        <time>2022-08-30T06:34:33Z</time>
      </trkpt>
      <trkpt lat="46.54984" lon="5.17331">
        <ele>195.2</ele>
        <time>2022-08-30T06:34:34Z</time>
      </trkpt>
      <trkpt lat="46.54982" lon="5.17294">
        <ele>195.2</ele>
        <time>2022-08-30T06:34:37Z</time>
      </trkpt>
      <trkpt lat="46.54979" lon="5.17256">
        <ele>194.8</ele>
        <time>2022-08-30T06:34:40Z</time>
      </trkpt>
      <trkpt lat="46.5498" lon="5.17204">
        <ele>193.6</ele>
        <time>2022-08-30T06:34:44Z</time>
      </trkpt>
      <trkpt lat="46.54988" lon="5.17146">
        <ele>193.2</ele>
        <time>2022-08-30T06:34:49Z</time>
      </trkpt>
      <trkpt lat="46.54997" lon="5.17089">
        <ele>193.2</ele>
        <time>2022-08-30T06:34:55Z</time>
      </trkpt>
      <trkpt lat="46.54999" lon="5.17074">
        <ele>193.4</ele>
        <time>2022-08-30T06:34:57Z</time>
      </trkpt>
      <trkpt lat="46.54997" lon="5.17069">
        <ele>193.4</ele>
        <time>2022-08-30T06:34:58Z</time>
      </trkpt>
      <trkpt lat="46.54989" lon="5.17068">
        <ele>193.4</ele>
        <time>2022-08-30T06:35:00Z</time>
      </trkpt>
      <trkpt lat="46.5497" lon="5.17079">
        <ele>193.6</ele>
        <time>2022-08-30T06:35:03Z</time>
      </trkpt>
      <trkpt lat="46.54963" lon="5.17082">
        <ele>193.6</ele>
        <time>2022-08-30T06:35:04Z</time>
      </trkpt>
      <trkpt lat="46.54948" lon="5.17082">
        <ele>193.4</ele>
        <time>2022-08-30T06:35:06Z</time>
      </trkpt>
      <trkpt lat="46.5494" lon="5.17083">
        <ele>193.4</ele>
        <time>2022-08-30T06:35:07Z</time>
      </trkpt>
      <trkpt lat="46.54924" lon="5.17088">
        <ele>193.2</ele>
        <time>2022-08-30T06:35:09Z</time>
      </trkpt>
      <trkpt lat="46.54916" lon="5.17094">
        <ele>193</ele>
        <time>2022-08-30T06:35:10Z</time>
      </trkpt>
      <trkpt lat="46.54911" lon="5.17098">
        <ele>192.8</ele>
        <time>2022-08-30T06:35:11Z</time>
      </trkpt>
      <trkpt lat="46.54886" lon="5.17128">
        <ele>192.6</ele>
        <time>2022-08-30T06:35:15Z</time>
      </trkpt>
      <trkpt lat="46.5488" lon="5.17135">
        <ele>192.6</ele>
        <time>2022-08-30T06:35:16Z</time>
      </trkpt>
      <trkpt lat="46.54874" lon="5.17141">
        <ele>192.4</ele>
        <time>2022-08-30T06:35:17Z</time>
      </trkpt>
      <trkpt lat="46.54859" lon="5.17151">
        <ele>192.2</ele>
        <time>2022-08-30T06:35:19Z</time>
      </trkpt>
      <trkpt lat="46.54837" lon="5.17157">
        <ele>192</ele>
        <time>2022-08-30T06:35:22Z</time>
      </trkpt>
      <trkpt lat="46.54829" lon="5.17158">
        <ele>192</ele>
        <time>2022-08-30T06:35:23Z</time>
      </trkpt>
      <trkpt lat="46.54796" lon="5.17154">
        <ele>192</ele>
        <time>2022-08-30T06:35:28Z</time>
      </trkpt>
      <trkpt lat="46.54789" lon="5.17154">
        <ele>192</ele>
        <time>2022-08-30T06:35:29Z</time>
      </trkpt>
      <trkpt lat="46.54767" lon="5.1715">
        <ele>192.8</ele>
        <time>2022-08-30T06:35:33Z</time>
      </trkpt>
      <trkpt lat="46.54751" lon="5.17148">
        <ele>193.6</ele>
        <time>2022-08-30T06:35:36Z</time>
      </trkpt>
      <trkpt lat="46.54736" lon="5.17144">
        <ele>194.6</ele>
        <time>2022-08-30T06:35:39Z</time>
      </trkpt>
      <trkpt lat="46.54719" lon="5.17141">
        <ele>195.6</ele>
        <time>2022-08-30T06:35:42Z</time>
      </trkpt>
      <trkpt lat="46.54706" lon="5.17138">
        <ele>196.6</ele>
        <time>2022-08-30T06:35:45Z</time>
      </trkpt>
      <trkpt lat="46.54687" lon="5.17135">
        <ele>197.2</ele>
        <time>2022-08-30T06:35:48Z</time>
      </trkpt>
      <trkpt lat="46.54671" lon="5.17134">
        <ele>197.8</ele>
        <time>2022-08-30T06:35:51Z</time>
      </trkpt>
      <trkpt lat="46.54632" lon="5.17133">
        <ele>198.8</ele>
        <time>2022-08-30T06:35:58Z</time>
      </trkpt>
      <trkpt lat="46.54599" lon="5.17132">
        <ele>200</ele>
        <time>2022-08-30T06:36:04Z</time>
      </trkpt>
      <trkpt lat="46.54567" lon="5.17132">
        <ele>200.2</ele>
        <time>2022-08-30T06:36:10Z</time>
      </trkpt>
      <trkpt lat="46.54542" lon="5.17132">
        <ele>201.2</ele>
        <time>2022-08-30T06:36:15Z</time>
      </trkpt>
      <trkpt lat="46.54524" lon="5.17132">
        <ele>201.8</ele>
        <time>2022-08-30T06:36:18Z</time>
      </trkpt>
      <trkpt lat="46.54496" lon="5.17132">
        <ele>202.2</ele>
        <time>2022-08-30T06:36:23Z</time>
      </trkpt>
      <trkpt lat="46.54475" lon="5.17132">
        <ele>202.6</ele>
        <time>2022-08-30T06:36:27Z</time>
      </trkpt>
      <trkpt lat="46.54419" lon="5.17131">
        <ele>203.4</ele>
        <time>2022-08-30T06:36:37Z</time>
      </trkpt>
      <trkpt lat="46.54414" lon="5.17132">
        <ele>203.4</ele>
        <time>2022-08-30T06:36:38Z</time>
      </trkpt>
      <trkpt lat="46.54397" lon="5.17136">
        <ele>203.6</ele>
        <time>2022-08-30T06:36:41Z</time>
      </trkpt>
      <trkpt lat="46.5439" lon="5.1714">
        <ele>203.6</ele>
        <time>2022-08-30T06:36:42Z</time>
      </trkpt>
      <trkpt lat="46.54388" lon="5.17142">
        <ele>203.6</ele>
        <time>2022-08-30T06:36:43Z</time>
      </trkpt>
      <trkpt lat="46.54349" lon="5.17172">
        <ele>203.4</ele>
        <time>2022-08-30T06:36:49Z</time>
      </trkpt>
      <trkpt lat="46.54296" lon="5.17213">
        <ele>202.8</ele>
        <time>2022-08-30T06:36:57Z</time>
      </trkpt>
      <trkpt lat="46.5426" lon="5.1724">
        <ele>202</ele>
        <time>2022-08-30T06:37:02Z</time>
      </trkpt>
      <trkpt lat="46.54244" lon="5.17252">
        <ele>201.6</ele>
        <time>2022-08-30T06:37:04Z</time>
      </trkpt>
      <trkpt lat="46.54221" lon="5.1727">
        <ele>201</ele>
        <time>2022-08-30T06:37:07Z</time>
      </trkpt>
      <trkpt lat="46.54199" lon="5.17287">
        <ele>199.8</ele>
        <time>2022-08-30T06:37:10Z</time>
      </trkpt>
      <trkpt lat="46.54185" lon="5.17297">
        <ele>199.4</ele>
        <time>2022-08-30T06:37:12Z</time>
      </trkpt>
      <trkpt lat="46.54155" lon="5.17318">
        <ele>199.4</ele>
        <time>2022-08-30T06:37:17Z</time>
      </trkpt>
      <trkpt lat="46.5412" lon="5.17345">
        <ele>200.2</ele>
        <time>2022-08-30T06:37:24Z</time>
      </trkpt>
      <trkpt lat="46.5411" lon="5.17351">
        <ele>200.8</ele>
        <time>2022-08-30T06:37:26Z</time>
      </trkpt>
      <trkpt lat="46.54095" lon="5.17362">
        <ele>202</ele>
        <time>2022-08-30T06:37:29Z</time>
      </trkpt>
      <trkpt lat="46.54087" lon="5.17368">
        <ele>202.4</ele>
        <time>2022-08-30T06:37:31Z</time>
      </trkpt>
      <trkpt lat="46.54077" lon="5.17376">
        <ele>203</ele>
        <time>2022-08-30T06:37:33Z</time>
      </trkpt>
      <trkpt lat="46.54049" lon="5.17397">
        <ele>203.8</ele>
        <time>2022-08-30T06:37:38Z</time>
      </trkpt>
      <trkpt lat="46.54039" lon="5.17405">
        <ele>204</ele>
        <time>2022-08-30T06:37:40Z</time>
      </trkpt>
      <trkpt lat="46.53988" lon="5.17445">
        <ele>204.4</ele>
        <time>2022-08-30T06:37:49Z</time>
      </trkpt>
      <trkpt lat="46.53933" lon="5.17486">
        <ele>204.6</ele>
        <time>2022-08-30T06:37:58Z</time>
      </trkpt>
      <trkpt lat="46.5392" lon="5.17496">
        <ele>204.6</ele>
        <time>2022-08-30T06:38:00Z</time>
      </trkpt>
      <trkpt lat="46.53879" lon="5.17526">
        <ele>204.2</ele>
        <time>2022-08-30T06:38:06Z</time>
      </trkpt>
      <trkpt lat="46.53841" lon="5.17543">
        <ele>203.6</ele>
        <time>2022-08-30T06:38:11Z</time>
      </trkpt>
      <trkpt lat="46.53832" lon="5.17545">
        <ele>203.6</ele>
        <time>2022-08-30T06:38:12Z</time>
      </trkpt>
      <trkpt lat="46.53797" lon="5.17551">
        <ele>203.4</ele>
        <time>2022-08-30T06:38:17Z</time>
      </trkpt>
      <trkpt lat="46.53744" lon="5.17562">
        <ele>203.8</ele>
        <time>2022-08-30T06:38:25Z</time>
      </trkpt>
      <trkpt lat="46.53689" lon="5.17575">
        <ele>204.4</ele>
        <time>2022-08-30T06:38:33Z</time>
      </trkpt>
      <trkpt lat="46.53682" lon="5.17577">
        <ele>204.6</ele>
        <time>2022-08-30T06:38:34Z</time>
      </trkpt>
      <trkpt lat="46.53631" lon="5.17588">
        <ele>205</ele>
        <time>2022-08-30T06:38:41Z</time>
      </trkpt>
      <trkpt lat="46.53612" lon="5.17592">
        <ele>205</ele>
        <time>2022-08-30T06:38:44Z</time>
      </trkpt>
      <trkpt lat="46.53555" lon="5.17605">
        <ele>205</ele>
        <time>2022-08-30T06:38:52Z</time>
      </trkpt>
      <trkpt lat="46.53542" lon="5.17609">
        <ele>204.8</ele>
        <time>2022-08-30T06:38:54Z</time>
      </trkpt>
      <trkpt lat="46.53518" lon="5.17624">
        <ele>205.2</ele>
        <time>2022-08-30T06:38:58Z</time>
      </trkpt>
      <trkpt lat="46.53513" lon="5.17627">
        <ele>205.2</ele>
        <time>2022-08-30T06:38:59Z</time>
      </trkpt>
      <trkpt lat="46.5346" lon="5.17668">
        <ele>205.6</ele>
        <time>2022-08-30T06:39:08Z</time>
      </trkpt>
      <trkpt lat="46.53409" lon="5.17708">
        <ele>205.6</ele>
        <time>2022-08-30T06:39:16Z</time>
      </trkpt>
      <trkpt lat="46.53395" lon="5.17718">
        <ele>205.4</ele>
        <time>2022-08-30T06:39:18Z</time>
      </trkpt>
      <trkpt lat="46.53347" lon="5.17751">
        <ele>204.8</ele>
        <time>2022-08-30T06:39:25Z</time>
      </trkpt>
      <trkpt lat="46.53338" lon="5.17755">
        <ele>204.8</ele>
        <time>2022-08-30T06:39:26Z</time>
      </trkpt>
      <trkpt lat="46.53307" lon="5.17761">
        <ele>204.2</ele>
        <time>2022-08-30T06:39:30Z</time>
      </trkpt>
      <trkpt lat="46.53301" lon="5.17762">
        <ele>204</ele>
        <time>2022-08-30T06:39:31Z</time>
      </trkpt>
      <trkpt lat="46.53252" lon="5.17763">
        <ele>204</ele>
        <time>2022-08-30T06:39:38Z</time>
      </trkpt>
      <trkpt lat="46.53215" lon="5.17758">
        <ele>205.2</ele>
        <time>2022-08-30T06:39:44Z</time>
      </trkpt>
      <trkpt lat="46.5319" lon="5.17753">
        <ele>205.4</ele>
        <time>2022-08-30T06:39:47Z</time>
      </trkpt>
      <trkpt lat="46.53137" lon="5.17742">
        <ele>205.4</ele>
        <time>2022-08-30T06:39:54Z</time>
      </trkpt>
      <trkpt lat="46.53078" lon="5.17733">
        <ele>204</ele>
        <time>2022-08-30T06:40:01Z</time>
      </trkpt>
      <trkpt lat="46.53067" lon="5.17731">
        <ele>203.8</ele>
        <time>2022-08-30T06:40:02Z</time>
      </trkpt>
      <trkpt lat="46.53024" lon="5.17722">
        <ele>202.4</ele>
        <time>2022-08-30T06:40:07Z</time>
      </trkpt>
      <trkpt lat="46.52998" lon="5.17713">
        <ele>201.6</ele>
        <time>2022-08-30T06:40:10Z</time>
      </trkpt>
      <trkpt lat="46.52988" lon="5.17709">
        <ele>201.2</ele>
        <time>2022-08-30T06:40:11Z</time>
      </trkpt>
      <trkpt lat="46.52963" lon="5.17699">
        <ele>200</ele>
        <time>2022-08-30T06:40:14Z</time>
      </trkpt>
      <trkpt lat="46.52916" lon="5.17677">
        <ele>199.2</ele>
        <time>2022-08-30T06:40:20Z</time>
      </trkpt>
      <trkpt lat="46.5291" lon="5.17674">
        <ele>199</ele>
        <time>2022-08-30T06:40:21Z</time>
      </trkpt>
      <trkpt lat="46.52855" lon="5.1765">
        <ele>198.4</ele>
        <time>2022-08-30T06:40:28Z</time>
      </trkpt>
      <trkpt lat="46.5283" lon="5.17641">
        <ele>198</ele>
        <time>2022-08-30T06:40:31Z</time>
      </trkpt>
      <trkpt lat="46.52822" lon="5.17641">
        <ele>197.8</ele>
        <time>2022-08-30T06:40:32Z</time>
      </trkpt>
      <trkpt lat="46.52813" lon="5.17644">
        <ele>197.6</ele>
        <time>2022-08-30T06:40:33Z</time>
      </trkpt>
      <trkpt lat="46.52797" lon="5.17657">
        <ele>197.2</ele>
        <time>2022-08-30T06:40:35Z</time>
      </trkpt>
      <trkpt lat="46.52791" lon="5.17666">
        <ele>196.8</ele>
        <time>2022-08-30T06:40:36Z</time>
      </trkpt>
      <trkpt lat="46.52785" lon="5.17676">
        <ele>196.6</ele>
        <time>2022-08-30T06:40:37Z</time>
      </trkpt>
      <trkpt lat="46.5278" lon="5.17687">
        <ele>196.2</ele>
        <time>2022-08-30T06:40:38Z</time>
      </trkpt>
      <trkpt lat="46.52776" lon="5.177">
        <ele>196.2</ele>
        <time>2022-08-30T06:40:39Z</time>
      </trkpt>
      <trkpt lat="46.52772" lon="5.17737">
        <ele>195.4</ele>
        <time>2022-08-30T06:40:42Z</time>
      </trkpt>
      <trkpt lat="46.52766" lon="5.17819">
        <ele>195</ele>
        <time>2022-08-30T06:40:49Z</time>
      </trkpt>
      <trkpt lat="46.5276" lon="5.17898">
        <ele>194.8</ele>
        <time>2022-08-30T06:40:56Z</time>
      </trkpt>
      <trkpt lat="46.52758" lon="5.17953">
        <ele>194.6</ele>
        <time>2022-08-30T06:41:01Z</time>
      </trkpt>
      <trkpt lat="46.52759" lon="5.17963">
        <ele>194.6</ele>
        <time>2022-08-30T06:41:02Z</time>
      </trkpt>
      <trkpt lat="46.52768" lon="5.18011">
        <ele>194.8</ele>
        <time>2022-08-30T06:41:07Z</time>
      </trkpt>
      <trkpt lat="46.52774" lon="5.18075">
        <ele>196.2</ele>
        <time>2022-08-30T06:41:14Z</time>
      </trkpt>
      <trkpt lat="46.52774" lon="5.18085">
        <ele>196.6</ele>
        <time>2022-08-30T06:41:15Z</time>
      </trkpt>
      <trkpt lat="46.52772" lon="5.18134">
        <ele>197.8</ele>
        <time>2022-08-30T06:41:20Z</time>
      </trkpt>
      <trkpt lat="46.52769" lon="5.18166">
        <ele>198</ele>
        <time>2022-08-30T06:41:23Z</time>
      </trkpt>
      <trkpt lat="46.52764" lon="5.18213">
        <ele>197.8</ele>
        <time>2022-08-30T06:41:27Z</time>
      </trkpt>
      <trkpt lat="46.52761" lon="5.18225">
        <ele>197.8</ele>
        <time>2022-08-30T06:41:28Z</time>
      </trkpt>
      <trkpt lat="46.52757" lon="5.18236">
        <ele>197.6</ele>
        <time>2022-08-30T06:41:29Z</time>
      </trkpt>
      <trkpt lat="46.52744" lon="5.18269">
        <ele>196.6</ele>
        <time>2022-08-30T06:41:32Z</time>
      </trkpt>
      <trkpt lat="46.52716" lon="5.18329">
        <ele>195.6</ele>
        <time>2022-08-30T06:41:38Z</time>
      </trkpt>
      <trkpt lat="46.52705" lon="5.18354">
        <ele>195.2</ele>
        <time>2022-08-30T06:41:41Z</time>
      </trkpt>
      <trkpt lat="46.52675" lon="5.18419">
        <ele>195</ele>
        <time>2022-08-30T06:41:48Z</time>
      </trkpt>
      <trkpt lat="46.52671" lon="5.18428">
        <ele>195.2</ele>
        <time>2022-08-30T06:41:49Z</time>
      </trkpt>
      <trkpt lat="46.52639" lon="5.18497">
        <ele>195.4</ele>
        <time>2022-08-30T06:41:58Z</time>
      </trkpt>
      <trkpt lat="46.52628" lon="5.18543">
        <ele>196.4</ele>
        <time>2022-08-30T06:42:04Z</time>
      </trkpt>
      <trkpt lat="46.52626" lon="5.18558">
        <ele>196.8</ele>
        <time>2022-08-30T06:42:06Z</time>
      </trkpt>
      <trkpt lat="46.52623" lon="5.1859">
        <ele>197.6</ele>
        <time>2022-08-30T06:42:10Z</time>
      </trkpt>
      <trkpt lat="46.52623" lon="5.18596">
        <ele>198</ele>
        <time>2022-08-30T06:42:11Z</time>
      </trkpt>
      <trkpt lat="46.52622" lon="5.18618">
        <ele>199</ele>
        <time>2022-08-30T06:42:14Z</time>
      </trkpt>
      <trkpt lat="46.52623" lon="5.18647">
        <ele>200.2</ele>
        <time>2022-08-30T06:42:18Z</time>
      </trkpt>
      <trkpt lat="46.5262" lon="5.18705">
        <ele>201.4</ele>
        <time>2022-08-30T06:42:25Z</time>
      </trkpt>
      <trkpt lat="46.52617" lon="5.18753">
        <ele>201.6</ele>
        <time>2022-08-30T06:42:30Z</time>
      </trkpt>
      <trkpt lat="46.52614" lon="5.18816">
        <ele>201.2</ele>
        <time>2022-08-30T06:42:36Z</time>
      </trkpt>
      <trkpt lat="46.52612" lon="5.18837">
        <ele>200.8</ele>
        <time>2022-08-30T06:42:38Z</time>
      </trkpt>
      <trkpt lat="46.52606" lon="5.18867">
        <ele>200.6</ele>
        <time>2022-08-30T06:42:41Z</time>
      </trkpt>
      <trkpt lat="46.5259" lon="5.18907">
        <ele>200.6</ele>
        <time>2022-08-30T06:42:46Z</time>
      </trkpt>
      <trkpt lat="46.52569" lon="5.18954">
        <ele>201.6</ele>
        <time>2022-08-30T06:42:53Z</time>
      </trkpt>
      <trkpt lat="46.52561" lon="5.18972">
        <ele>202.4</ele>
        <time>2022-08-30T06:42:56Z</time>
      </trkpt>
      <trkpt lat="46.52547" lon="5.19">
        <ele>203.6</ele>
        <time>2022-08-30T06:43:01Z</time>
      </trkpt>
      <trkpt lat="46.52542" lon="5.19013">
        <ele>204</ele>
        <time>2022-08-30T06:43:03Z</time>
      </trkpt>
      <trkpt lat="46.52534" lon="5.19031">
        <ele>204.6</ele>
        <time>2022-08-30T06:43:06Z</time>
      </trkpt>
      <trkpt lat="46.52524" lon="5.1905">
        <ele>205.2</ele>
        <time>2022-08-30T06:43:09Z</time>
      </trkpt>
      <trkpt lat="46.52517" lon="5.1907">
        <ele>205.8</ele>
        <time>2022-08-30T06:43:12Z</time>
      </trkpt>
      <trkpt lat="46.52507" lon="5.19106">
        <ele>206.2</ele>
        <time>2022-08-30T06:43:17Z</time>
      </trkpt>
      <trkpt lat="46.52503" lon="5.19152">
        <ele>206.6</ele>
        <time>2022-08-30T06:43:22Z</time>
      </trkpt>
      <trkpt lat="46.52503" lon="5.19228">
        <ele>206.8</ele>
        <time>2022-08-30T06:43:30Z</time>
      </trkpt>
      <trkpt lat="46.52504" lon="5.19277">
        <ele>206.8</ele>
        <time>2022-08-30T06:43:35Z</time>
      </trkpt>
      <trkpt lat="46.52504" lon="5.19328">
        <ele>207</ele>
        <time>2022-08-30T06:43:40Z</time>
      </trkpt>
      <trkpt lat="46.52506" lon="5.19409">
        <ele>206.8</ele>
        <time>2022-08-30T06:43:48Z</time>
      </trkpt>
      <trkpt lat="46.52507" lon="5.1944">
        <ele>206.6</ele>
        <time>2022-08-30T06:43:51Z</time>
      </trkpt>
      <trkpt lat="46.52508" lon="5.19521">
        <ele>206.6</ele>
        <time>2022-08-30T06:43:59Z</time>
      </trkpt>
      <trkpt lat="46.52509" lon="5.19552">
        <ele>206.8</ele>
        <time>2022-08-30T06:44:02Z</time>
      </trkpt>
      <trkpt lat="46.5251" lon="5.19637">
        <ele>206.8</ele>
        <time>2022-08-30T06:44:10Z</time>
      </trkpt>
      <trkpt lat="46.52511" lon="5.19672">
        <ele>206.6</ele>
        <time>2022-08-30T06:44:13Z</time>
      </trkpt>
      <trkpt lat="46.52513" lon="5.19745">
        <ele>206</ele>
        <time>2022-08-30T06:44:19Z</time>
      </trkpt>
      <trkpt lat="46.52514" lon="5.19758">
        <ele>205.6</ele>
        <time>2022-08-30T06:44:20Z</time>
      </trkpt>
      <trkpt lat="46.52515" lon="5.19811">
        <ele>204.6</ele>
        <time>2022-08-30T06:44:24Z</time>
      </trkpt>
      <trkpt lat="46.52515" lon="5.19824">
        <ele>204.2</ele>
        <time>2022-08-30T06:44:25Z</time>
      </trkpt>
      <trkpt lat="46.52516" lon="5.19864">
        <ele>203.4</ele>
        <time>2022-08-30T06:44:28Z</time>
      </trkpt>
      <trkpt lat="46.52516" lon="5.19916">
        <ele>202</ele>
        <time>2022-08-30T06:44:32Z</time>
      </trkpt>
      <trkpt lat="46.52514" lon="5.20002">
        <ele>201</ele>
        <time>2022-08-30T06:44:39Z</time>
      </trkpt>
      <trkpt lat="46.52514" lon="5.20014">
        <ele>200.8</ele>
        <time>2022-08-30T06:44:40Z</time>
      </trkpt>
      <trkpt lat="46.52512" lon="5.20056">
        <ele>200.2</ele>
        <time>2022-08-30T06:44:44Z</time>
      </trkpt>
      <trkpt lat="46.5251" lon="5.20118">
        <ele>200.2</ele>
        <time>2022-08-30T06:44:49Z</time>
      </trkpt>
      <trkpt lat="46.52513" lon="5.20192">
        <ele>200</ele>
        <time>2022-08-30T06:44:56Z</time>
      </trkpt>
      <trkpt lat="46.52517" lon="5.2025">
        <ele>200.6</ele>
        <time>2022-08-30T06:45:02Z</time>
      </trkpt>
      <trkpt lat="46.52522" lon="5.20315">
        <ele>201.4</ele>
        <time>2022-08-30T06:45:10Z</time>
      </trkpt>
      <trkpt lat="46.52525" lon="5.20347">
        <ele>202</ele>
        <time>2022-08-30T06:45:14Z</time>
      </trkpt>
      <trkpt lat="46.52527" lon="5.20386">
        <ele>203.2</ele>
        <time>2022-08-30T06:45:19Z</time>
      </trkpt>
      <trkpt lat="46.52531" lon="5.20433">
        <ele>204.6</ele>
        <time>2022-08-30T06:45:25Z</time>
      </trkpt>
      <trkpt lat="46.52533" lon="5.20457">
        <ele>205</ele>
        <time>2022-08-30T06:45:28Z</time>
      </trkpt>
      <trkpt lat="46.52535" lon="5.20489">
        <ele>206</ele>
        <time>2022-08-30T06:45:32Z</time>
      </trkpt>
      <trkpt lat="46.52538" lon="5.20527">
        <ele>207</ele>
        <time>2022-08-30T06:45:37Z</time>
      </trkpt>
      <trkpt lat="46.52538" lon="5.20534">
        <ele>207.2</ele>
        <time>2022-08-30T06:45:38Z</time>
      </trkpt>
      <trkpt lat="46.52541" lon="5.20579">
        <ele>207.8</ele>
        <time>2022-08-30T06:45:44Z</time>
      </trkpt>
      <trkpt lat="46.52545" lon="5.20654">
        <ele>207.6</ele>
        <time>2022-08-30T06:45:52Z</time>
      </trkpt>
      <trkpt lat="46.52551" lon="5.2074">
        <ele>207.6</ele>
        <time>2022-08-30T06:46:01Z</time>
      </trkpt>
      <trkpt lat="46.52551" lon="5.20749">
        <ele>207.6</ele>
        <time>2022-08-30T06:46:02Z</time>
      </trkpt>
      <trkpt lat="46.52557" lon="5.20836">
        <ele>207.4</ele>
        <time>2022-08-30T06:46:11Z</time>
      </trkpt>
      <trkpt lat="46.52558" lon="5.20846">
        <ele>207.4</ele>
        <time>2022-08-30T06:46:12Z</time>
      </trkpt>
      <trkpt lat="46.52563" lon="5.20929">
        <ele>207.4</ele>
        <time>2022-08-30T06:46:20Z</time>
      </trkpt>
      <trkpt lat="46.52564" lon="5.2094">
        <ele>207.4</ele>
        <time>2022-08-30T06:46:21Z</time>
      </trkpt>
      <trkpt lat="46.52568" lon="5.20999">
        <ele>207.2</ele>
        <time>2022-08-30T06:46:26Z</time>
      </trkpt>
      <trkpt lat="46.52581" lon="5.21086">
        <ele>205.6</ele>
        <time>2022-08-30T06:46:33Z</time>
      </trkpt>
      <trkpt lat="46.52595" lon="5.21171">
        <ele>204.4</ele>
        <time>2022-08-30T06:46:40Z</time>
      </trkpt>
      <trkpt lat="46.52601" lon="5.21211">
        <ele>204.2</ele>
        <time>2022-08-30T06:46:44Z</time>
      </trkpt>
      <trkpt lat="46.5261" lon="5.21265">
        <ele>204.2</ele>
        <time>2022-08-30T06:46:49Z</time>
      </trkpt>
      <trkpt lat="46.52618" lon="5.21311">
        <ele>204.8</ele>
        <time>2022-08-30T06:46:54Z</time>
      </trkpt>
      <trkpt lat="46.52619" lon="5.2132">
        <ele>204.8</ele>
        <time>2022-08-30T06:46:55Z</time>
      </trkpt>
      <trkpt lat="46.52623" lon="5.21356">
        <ele>205.4</ele>
        <time>2022-08-30T06:46:59Z</time>
      </trkpt>
      <trkpt lat="46.52626" lon="5.21384">
        <ele>206.2</ele>
        <time>2022-08-30T06:47:02Z</time>
      </trkpt>
      <trkpt lat="46.52631" lon="5.21412">
        <ele>206.6</ele>
        <time>2022-08-30T06:47:05Z</time>
      </trkpt>
      <trkpt lat="46.52641" lon="5.21468">
        <ele>206.8</ele>
        <time>2022-08-30T06:47:11Z</time>
      </trkpt>
      <trkpt lat="46.52651" lon="5.21532">
        <ele>207.6</ele>
        <time>2022-08-30T06:47:18Z</time>
      </trkpt>
      <trkpt lat="46.52655" lon="5.21559">
        <ele>208</ele>
        <time>2022-08-30T06:47:21Z</time>
      </trkpt>
      <trkpt lat="46.52669" lon="5.2164">
        <ele>208.2</ele>
        <time>2022-08-30T06:47:30Z</time>
      </trkpt>
      <trkpt lat="46.52672" lon="5.21659">
        <ele>208.2</ele>
        <time>2022-08-30T06:47:32Z</time>
      </trkpt>
      <trkpt lat="46.52686" lon="5.21742">
        <ele>208.2</ele>
        <time>2022-08-30T06:47:41Z</time>
      </trkpt>
      <trkpt lat="46.52688" lon="5.21757">
        <ele>208.4</ele>
        <time>2022-08-30T06:47:43Z</time>
      </trkpt>
      <trkpt lat="46.52701" lon="5.21837">
        <ele>208.6</ele>
        <time>2022-08-30T06:47:51Z</time>
      </trkpt>
      <trkpt lat="46.52702" lon="5.21847">
        <ele>208.4</ele>
        <time>2022-08-30T06:47:52Z</time>
      </trkpt>
      <trkpt lat="46.52716" lon="5.21932">
        <ele>208.2</ele>
        <time>2022-08-30T06:48:01Z</time>
      </trkpt>
      <trkpt lat="46.5272" lon="5.21961">
        <ele>207.8</ele>
        <time>2022-08-30T06:48:04Z</time>
      </trkpt>
      <trkpt lat="46.52728" lon="5.22035">
        <ele>207.4</ele>
        <time>2022-08-30T06:48:11Z</time>
      </trkpt>
      <trkpt lat="46.52723" lon="5.22082">
        <ele>206.6</ele>
        <time>2022-08-30T06:48:15Z</time>
      </trkpt>
      <trkpt lat="46.52718" lon="5.22106">
        <ele>206.2</ele>
        <time>2022-08-30T06:48:17Z</time>
      </trkpt>
      <trkpt lat="46.52706" lon="5.22156">
        <ele>205.6</ele>
        <time>2022-08-30T06:48:21Z</time>
      </trkpt>
      <trkpt lat="46.52703" lon="5.22169">
        <ele>205.2</ele>
        <time>2022-08-30T06:48:22Z</time>
      </trkpt>
      <trkpt lat="46.52689" lon="5.22224">
        <ele>203.8</ele>
        <time>2022-08-30T06:48:26Z</time>
      </trkpt>
      <trkpt lat="46.52682" lon="5.22251">
        <ele>202.6</ele>
        <time>2022-08-30T06:48:28Z</time>
      </trkpt>
      <trkpt lat="46.52672" lon="5.22292">
        <ele>201.6</ele>
        <time>2022-08-30T06:48:31Z</time>
      </trkpt>
      <trkpt lat="46.52666" lon="5.22319">
        <ele>200.6</ele>
        <time>2022-08-30T06:48:33Z</time>
      </trkpt>
      <trkpt lat="46.52656" lon="5.22359">
        <ele>199.2</ele>
        <time>2022-08-30T06:48:36Z</time>
      </trkpt>
      <trkpt lat="46.52653" lon="5.22372">
        <ele>199</ele>
        <time>2022-08-30T06:48:37Z</time>
      </trkpt>
      <trkpt lat="46.52647" lon="5.22398">
        <ele>198.2</ele>
        <time>2022-08-30T06:48:39Z</time>
      </trkpt>
      <trkpt lat="46.52636" lon="5.22443">
        <ele>197.2</ele>
        <time>2022-08-30T06:48:43Z</time>
      </trkpt>
      <trkpt lat="46.52626" lon="5.22484">
        <ele>196.8</ele>
        <time>2022-08-30T06:48:46Z</time>
      </trkpt>
      <trkpt lat="46.52618" lon="5.22543">
        <ele>196.4</ele>
        <time>2022-08-30T06:48:51Z</time>
      </trkpt>
      <trkpt lat="46.52617" lon="5.22555">
        <ele>196.4</ele>
        <time>2022-08-30T06:48:52Z</time>
      </trkpt>
      <trkpt lat="46.52615" lon="5.22632">
        <ele>197</ele>
        <time>2022-08-30T06:48:59Z</time>
      </trkpt>
      <trkpt lat="46.52614" lon="5.22711">
        <ele>197.2</ele>
        <time>2022-08-30T06:49:06Z</time>
      </trkpt>
      <trkpt lat="46.52613" lon="5.22734">
        <ele>197.4</ele>
        <time>2022-08-30T06:49:08Z</time>
      </trkpt>
      <trkpt lat="46.52611" lon="5.2282">
        <ele>197.4</ele>
        <time>2022-08-30T06:49:16Z</time>
      </trkpt>
      <trkpt lat="46.5261" lon="5.22852">
        <ele>197.4</ele>
        <time>2022-08-30T06:49:19Z</time>
      </trkpt>
      <trkpt lat="46.52609" lon="5.22938">
        <ele>197.8</ele>
        <time>2022-08-30T06:49:28Z</time>
      </trkpt>
      <trkpt lat="46.52609" lon="5.22971">
        <ele>198.6</ele>
        <time>2022-08-30T06:49:32Z</time>
      </trkpt>
      <trkpt lat="46.52608" lon="5.22994">
        <ele>199.2</ele>
        <time>2022-08-30T06:49:35Z</time>
      </trkpt>
      <trkpt lat="46.52607" lon="5.23016">
        <ele>199.6</ele>
        <time>2022-08-30T06:49:38Z</time>
      </trkpt>
      <trkpt lat="46.52603" lon="5.23045">
        <ele>200.6</ele>
        <time>2022-08-30T06:49:42Z</time>
      </trkpt>
      <trkpt lat="46.52601" lon="5.23059">
        <ele>201</ele>
        <time>2022-08-30T06:49:44Z</time>
      </trkpt>
      <trkpt lat="46.526" lon="5.23065">
        <ele>201.2</ele>
        <time>2022-08-30T06:49:45Z</time>
      </trkpt>
      <trkpt lat="46.52594" lon="5.23083">
        <ele>202</ele>
        <time>2022-08-30T06:49:48Z</time>
      </trkpt>
      <trkpt lat="46.52589" lon="5.23095">
        <ele>202.4</ele>
        <time>2022-08-30T06:49:50Z</time>
      </trkpt>
      <trkpt lat="46.52577" lon="5.2312">
        <ele>203.2</ele>
        <time>2022-08-30T06:49:54Z</time>
      </trkpt>
      <trkpt lat="46.52569" lon="5.23138">
        <ele>203.6</ele>
        <time>2022-08-30T06:49:57Z</time>
      </trkpt>
      <trkpt lat="46.52567" lon="5.23144">
        <ele>203.8</ele>
        <time>2022-08-30T06:49:58Z</time>
      </trkpt>
      <trkpt lat="46.52559" lon="5.2316">
        <ele>204.2</ele>
        <time>2022-08-30T06:50:01Z</time>
      </trkpt>
      <trkpt lat="46.52555" lon="5.23173">
        <ele>204.4</ele>
        <time>2022-08-30T06:50:03Z</time>
      </trkpt>
      <trkpt lat="46.52547" lon="5.23192">
        <ele>205.4</ele>
        <time>2022-08-30T06:50:06Z</time>
      </trkpt>
      <trkpt lat="46.52536" lon="5.23219">
        <ele>206</ele>
        <time>2022-08-30T06:50:10Z</time>
      </trkpt>
      <trkpt lat="46.52532" lon="5.23227">
        <ele>206.4</ele>
        <time>2022-08-30T06:50:11Z</time>
      </trkpt>
      <trkpt lat="46.52517" lon="5.23262">
        <ele>207.6</ele>
        <time>2022-08-30T06:50:16Z</time>
      </trkpt>
      <trkpt lat="46.52508" lon="5.23283">
        <ele>208</ele>
        <time>2022-08-30T06:50:19Z</time>
      </trkpt>
      <trkpt lat="46.5249" lon="5.23328">
        <ele>208.6</ele>
        <time>2022-08-30T06:50:25Z</time>
      </trkpt>
      <trkpt lat="46.52487" lon="5.23335">
        <ele>208.4</ele>
        <time>2022-08-30T06:50:26Z</time>
      </trkpt>
      <trkpt lat="46.52456" lon="5.23408">
        <ele>208.8</ele>
        <time>2022-08-30T06:50:36Z</time>
      </trkpt>
      <trkpt lat="46.5245" lon="5.23423">
        <ele>208.6</ele>
        <time>2022-08-30T06:50:38Z</time>
      </trkpt>
      <trkpt lat="46.52421" lon="5.23493">
        <ele>208.4</ele>
        <time>2022-08-30T06:50:47Z</time>
      </trkpt>
      <trkpt lat="46.52416" lon="5.23511">
        <ele>208.2</ele>
        <time>2022-08-30T06:50:49Z</time>
      </trkpt>
      <trkpt lat="46.52413" lon="5.2353">
        <ele>208.2</ele>
        <time>2022-08-30T06:50:51Z</time>
      </trkpt>
      <trkpt lat="46.52413" lon="5.2354">
        <ele>208.2</ele>
        <time>2022-08-30T06:50:52Z</time>
      </trkpt>
      <trkpt lat="46.52413" lon="5.2355">
        <ele>208.2</ele>
        <time>2022-08-30T06:50:53Z</time>
      </trkpt>
      <trkpt lat="46.52419" lon="5.23578">
        <ele>208.2</ele>
        <time>2022-08-30T06:50:56Z</time>
      </trkpt>
      <trkpt lat="46.52439" lon="5.23654">
        <ele>207.8</ele>
        <time>2022-08-30T06:51:04Z</time>
      </trkpt>
      <trkpt lat="46.52458" lon="5.23729">
        <ele>207.8</ele>
        <time>2022-08-30T06:51:12Z</time>
      </trkpt>
      <trkpt lat="46.5246" lon="5.23738">
        <ele>207.8</ele>
        <time>2022-08-30T06:51:13Z</time>
      </trkpt>
      <trkpt lat="46.52481" lon="5.23818">
        <ele>208</ele>
        <time>2022-08-30T06:51:22Z</time>
      </trkpt>
      <trkpt lat="46.52496" lon="5.23879">
        <ele>208.4</ele>
        <time>2022-08-30T06:51:29Z</time>
      </trkpt>
      <trkpt lat="46.52499" lon="5.23925">
        <ele>208.8</ele>
        <time>2022-08-30T06:51:34Z</time>
      </trkpt>
      <trkpt lat="46.52499" lon="5.23934">
        <ele>209</ele>
        <time>2022-08-30T06:51:35Z</time>
      </trkpt>
      <trkpt lat="46.52495" lon="5.2397">
        <ele>209.4</ele>
        <time>2022-08-30T06:51:39Z</time>
      </trkpt>
      <trkpt lat="46.52492" lon="5.23988">
        <ele>209.4</ele>
        <time>2022-08-30T06:51:42Z</time>
      </trkpt>
      <trkpt lat="46.5248" lon="5.24068">
        <ele>209.4</ele>
        <time>2022-08-30T06:51:50Z</time>
      </trkpt>
      <trkpt lat="46.52469" lon="5.24119">
        <ele>209.4</ele>
        <time>2022-08-30T06:51:57Z</time>
      </trkpt>
      <trkpt lat="46.52464" lon="5.24125">
        <ele>209.4</ele>
        <time>2022-08-30T06:52:00Z</time>
      </trkpt>
      <trkpt lat="46.52467" lon="5.2414">
        <ele>209.4</ele>
        <time>2022-08-30T06:52:03Z</time>
      </trkpt>
      <trkpt lat="46.52471" lon="5.24155">
        <ele>209.4</ele>
        <time>2022-08-30T06:52:05Z</time>
      </trkpt>
      <trkpt lat="46.52474" lon="5.24174">
        <ele>209.4</ele>
        <time>2022-08-30T06:52:07Z</time>
      </trkpt>
      <trkpt lat="46.5248" lon="5.24229">
        <ele>209.2</ele>
        <time>2022-08-30T06:52:12Z</time>
      </trkpt>
      <trkpt lat="46.52491" lon="5.24308">
        <ele>208.2</ele>
        <time>2022-08-30T06:52:19Z</time>
      </trkpt>
      <trkpt lat="46.52493" lon="5.24319">
        <ele>208.2</ele>
        <time>2022-08-30T06:52:20Z</time>
      </trkpt>
      <trkpt lat="46.52504" lon="5.24398">
        <ele>207.8</ele>
        <time>2022-08-30T06:52:27Z</time>
      </trkpt>
      <trkpt lat="46.52507" lon="5.24419">
        <ele>207.6</ele>
        <time>2022-08-30T06:52:29Z</time>
      </trkpt>
      <trkpt lat="46.52518" lon="5.24479">
        <ele>207.4</ele>
        <time>2022-08-30T06:52:35Z</time>
      </trkpt>
      <trkpt lat="46.52534" lon="5.24531">
        <ele>207.8</ele>
        <time>2022-08-30T06:52:42Z</time>
      </trkpt>
      <trkpt lat="46.5256" lon="5.24602">
        <ele>209.2</ele>
        <time>2022-08-30T06:52:50Z</time>
      </trkpt>
      <trkpt lat="46.52563" lon="5.2461">
        <ele>209.2</ele>
        <time>2022-08-30T06:52:51Z</time>
      </trkpt>
      <trkpt lat="46.52578" lon="5.24669">
        <ele>210</ele>
        <time>2022-08-30T06:52:58Z</time>
      </trkpt>
      <trkpt lat="46.52581" lon="5.24707">
        <ele>210.2</ele>
        <time>2022-08-30T06:53:02Z</time>
      </trkpt>
      <trkpt lat="46.52581" lon="5.24717">
        <ele>210.4</ele>
        <time>2022-08-30T06:53:03Z</time>
      </trkpt>
      <trkpt lat="46.52584" lon="5.24796">
        <ele>210</ele>
        <time>2022-08-30T06:53:11Z</time>
      </trkpt>
      <trkpt lat="46.52587" lon="5.24882">
        <ele>210.2</ele>
        <time>2022-08-30T06:53:20Z</time>
      </trkpt>
      <trkpt lat="46.52588" lon="5.24901">
        <ele>210.2</ele>
        <time>2022-08-30T06:53:22Z</time>
      </trkpt>
      <trkpt lat="46.526" lon="5.24985">
        <ele>210.2</ele>
        <time>2022-08-30T06:53:31Z</time>
      </trkpt>
      <trkpt lat="46.52609" lon="5.25067">
        <ele>210.4</ele>
        <time>2022-08-30T06:53:40Z</time>
      </trkpt>
      <trkpt lat="46.52613" lon="5.2515">
        <ele>210.8</ele>
        <time>2022-08-30T06:53:49Z</time>
      </trkpt>
      <trkpt lat="46.52613" lon="5.25159">
        <ele>210.8</ele>
        <time>2022-08-30T06:53:50Z</time>
      </trkpt>
      <trkpt lat="46.52615" lon="5.25244">
        <ele>211</ele>
        <time>2022-08-30T06:53:59Z</time>
      </trkpt>
      <trkpt lat="46.52616" lon="5.25253">
        <ele>211</ele>
        <time>2022-08-30T06:54:00Z</time>
      </trkpt>
      <trkpt lat="46.52617" lon="5.25263">
        <ele>211.2</ele>
        <time>2022-08-30T06:54:01Z</time>
      </trkpt>
      <trkpt lat="46.52624" lon="5.25309">
        <ele>211.4</ele>
        <time>2022-08-30T06:54:06Z</time>
      </trkpt>
      <trkpt lat="46.52627" lon="5.25318">
        <ele>211.6</ele>
        <time>2022-08-30T06:54:07Z</time>
      </trkpt>
      <trkpt lat="46.52649" lon="5.25368">
        <ele>211.6</ele>
        <time>2022-08-30T06:54:13Z</time>
      </trkpt>
      <trkpt lat="46.52684" lon="5.25423">
        <ele>211.2</ele>
        <time>2022-08-30T06:54:20Z</time>
      </trkpt>
      <trkpt lat="46.52709" lon="5.25462">
        <ele>210.6</ele>
        <time>2022-08-30T06:54:25Z</time>
      </trkpt>
      <trkpt lat="46.52713" lon="5.25471">
        <ele>210.4</ele>
        <time>2022-08-30T06:54:26Z</time>
      </trkpt>
      <trkpt lat="46.52715" lon="5.25482">
        <ele>210.4</ele>
        <time>2022-08-30T06:54:27Z</time>
      </trkpt>
      <trkpt lat="46.52717" lon="5.25504">
        <ele>210.4</ele>
        <time>2022-08-30T06:54:29Z</time>
      </trkpt>
      <trkpt lat="46.52716" lon="5.25526">
        <ele>210</ele>
        <time>2022-08-30T06:54:31Z</time>
      </trkpt>
      <trkpt lat="46.52712" lon="5.25605">
        <ele>209.8</ele>
        <time>2022-08-30T06:54:38Z</time>
      </trkpt>
      <trkpt lat="46.52708" lon="5.25693">
        <ele>209</ele>
        <time>2022-08-30T06:54:46Z</time>
      </trkpt>
      <trkpt lat="46.52707" lon="5.25704">
        <ele>209</ele>
        <time>2022-08-30T06:54:47Z</time>
      </trkpt>
      <trkpt lat="46.52696" lon="5.25756">
        <ele>208.8</ele>
        <time>2022-08-30T06:54:52Z</time>
      </trkpt>
      <trkpt lat="46.52688" lon="5.25786">
        <ele>208.6</ele>
        <time>2022-08-30T06:54:55Z</time>
      </trkpt>
      <trkpt lat="46.52685" lon="5.25818">
        <ele>208.2</ele>
        <time>2022-08-30T06:54:58Z</time>
      </trkpt>
      <trkpt lat="46.52686" lon="5.25853">
        <ele>207.8</ele>
        <time>2022-08-30T06:55:01Z</time>
      </trkpt>
      <trkpt lat="46.52685" lon="5.25866">
        <ele>207.4</ele>
        <time>2022-08-30T06:55:02Z</time>
      </trkpt>
      <trkpt lat="46.52684" lon="5.25878">
        <ele>207.2</ele>
        <time>2022-08-30T06:55:03Z</time>
      </trkpt>
      <trkpt lat="46.52682" lon="5.25891">
        <ele>207.2</ele>
        <time>2022-08-30T06:55:04Z</time>
      </trkpt>
      <trkpt lat="46.52674" lon="5.25915">
        <ele>206.4</ele>
        <time>2022-08-30T06:55:06Z</time>
      </trkpt>
      <trkpt lat="46.52663" lon="5.25936">
        <ele>205.6</ele>
        <time>2022-08-30T06:55:08Z</time>
      </trkpt>
      <trkpt lat="46.52656" lon="5.25942">
        <ele>205.2</ele>
        <time>2022-08-30T06:55:09Z</time>
      </trkpt>
      <trkpt lat="46.52639" lon="5.25951">
        <ele>204.6</ele>
        <time>2022-08-30T06:55:11Z</time>
      </trkpt>
      <trkpt lat="46.52639" lon="5.25951">
        <ele>204.2</ele>
        <time>2022-08-30T06:55:12Z</time>
      </trkpt>
      <trkpt lat="46.52625" lon="5.25954">
        <ele>203.8</ele>
        <time>2022-08-30T06:55:13Z</time>
      </trkpt>
      <trkpt lat="46.52616" lon="5.25959">
        <ele>203.6</ele>
        <time>2022-08-30T06:55:14Z</time>
      </trkpt>
      <trkpt lat="46.52605" lon="5.2597">
        <ele>202.6</ele>
        <time>2022-08-30T06:55:15Z</time>
      </trkpt>
      <trkpt lat="46.52599" lon="5.25982">
        <ele>202</ele>
        <time>2022-08-30T06:55:16Z</time>
      </trkpt>
      <trkpt lat="46.52594" lon="5.25994">
        <ele>201.2</ele>
        <time>2022-08-30T06:55:17Z</time>
      </trkpt>
      <trkpt lat="46.5259" lon="5.26008">
        <ele>201</ele>
        <time>2022-08-30T06:55:18Z</time>
      </trkpt>
      <trkpt lat="46.52583" lon="5.26037">
        <ele>199.2</ele>
        <time>2022-08-30T06:55:20Z</time>
      </trkpt>
      <trkpt lat="46.52578" lon="5.26065">
        <ele>197.8</ele>
        <time>2022-08-30T06:55:22Z</time>
      </trkpt>
      <trkpt lat="46.52575" lon="5.26077">
        <ele>197.4</ele>
        <time>2022-08-30T06:55:23Z</time>
      </trkpt>
      <trkpt lat="46.52572" lon="5.26089">
        <ele>196.6</ele>
        <time>2022-08-30T06:55:24Z</time>
      </trkpt>
      <trkpt lat="46.52568" lon="5.26099">
        <ele>196.4</ele>
        <time>2022-08-30T06:55:25Z</time>
      </trkpt>
      <trkpt lat="46.52563" lon="5.26108">
        <ele>195.6</ele>
        <time>2022-08-30T06:55:26Z</time>
      </trkpt>
      <trkpt lat="46.52556" lon="5.26115">
        <ele>195</ele>
        <time>2022-08-30T06:55:27Z</time>
      </trkpt>
      <trkpt lat="46.52548" lon="5.26119">
        <ele>194</ele>
        <time>2022-08-30T06:55:28Z</time>
      </trkpt>
      <trkpt lat="46.5254" lon="5.2612">
        <ele>193.2</ele>
        <time>2022-08-30T06:55:29Z</time>
      </trkpt>
      <trkpt lat="46.52523" lon="5.26123">
        <ele>191.8</ele>
        <time>2022-08-30T06:55:31Z</time>
      </trkpt>
      <trkpt lat="46.52515" lon="5.26125">
        <ele>191.2</ele>
        <time>2022-08-30T06:55:32Z</time>
      </trkpt>
      <trkpt lat="46.52507" lon="5.26131">
        <ele>190.6</ele>
        <time>2022-08-30T06:55:33Z</time>
      </trkpt>
      <trkpt lat="46.52501" lon="5.26139">
        <ele>190.4</ele>
        <time>2022-08-30T06:55:34Z</time>
      </trkpt>
      <trkpt lat="46.52493" lon="5.26158">
        <ele>189.8</ele>
        <time>2022-08-30T06:55:36Z</time>
      </trkpt>
      <trkpt lat="46.52485" lon="5.26178">
        <ele>189.4</ele>
        <time>2022-08-30T06:55:38Z</time>
      </trkpt>
      <trkpt lat="46.52458" lon="5.26248">
        <ele>189</ele>
        <time>2022-08-30T06:55:45Z</time>
      </trkpt>
      <trkpt lat="46.52454" lon="5.26258">
        <ele>189</ele>
        <time>2022-08-30T06:55:46Z</time>
      </trkpt>
      <trkpt lat="46.52426" lon="5.26334">
        <ele>188.8</ele>
        <time>2022-08-30T06:55:54Z</time>
      </trkpt>
      <trkpt lat="46.524" lon="5.26405">
        <ele>189</ele>
        <time>2022-08-30T06:56:02Z</time>
      </trkpt>
      <trkpt lat="46.52392" lon="5.26422">
        <ele>188.8</ele>
        <time>2022-08-30T06:56:04Z</time>
      </trkpt>
      <trkpt lat="46.52385" lon="5.26438">
        <ele>188.8</ele>
        <time>2022-08-30T06:56:06Z</time>
      </trkpt>
      <trkpt lat="46.52375" lon="5.26452">
        <ele>189</ele>
        <time>2022-08-30T06:56:08Z</time>
      </trkpt>
      <trkpt lat="46.5237" lon="5.26457">
        <ele>189</ele>
        <time>2022-08-30T06:56:09Z</time>
      </trkpt>
      <trkpt lat="46.52364" lon="5.26461">
        <ele>189.2</ele>
        <time>2022-08-30T06:56:10Z</time>
      </trkpt>
      <trkpt lat="46.52343" lon="5.26472">
        <ele>189.6</ele>
        <time>2022-08-30T06:56:14Z</time>
      </trkpt>
      <trkpt lat="46.52315" lon="5.26485">
        <ele>190.6</ele>
        <time>2022-08-30T06:56:19Z</time>
      </trkpt>
      <trkpt lat="46.52304" lon="5.2649">
        <ele>190.8</ele>
        <time>2022-08-30T06:56:21Z</time>
      </trkpt>
      <trkpt lat="46.52285" lon="5.26499">
        <ele>191.6</ele>
        <time>2022-08-30T06:56:25Z</time>
      </trkpt>
      <trkpt lat="46.52257" lon="5.26512">
        <ele>192.8</ele>
        <time>2022-08-30T06:56:31Z</time>
      </trkpt>
      <trkpt lat="46.5223" lon="5.26524">
        <ele>193.8</ele>
        <time>2022-08-30T06:56:37Z</time>
      </trkpt>
      <trkpt lat="46.52225" lon="5.26527">
        <ele>194</ele>
        <time>2022-08-30T06:56:38Z</time>
      </trkpt>
      <trkpt lat="46.52207" lon="5.26536">
        <ele>194.8</ele>
        <time>2022-08-30T06:56:42Z</time>
      </trkpt>
      <trkpt lat="46.52203" lon="5.26539">
        <ele>195.2</ele>
        <time>2022-08-30T06:56:43Z</time>
      </trkpt>
      <trkpt lat="46.52189" lon="5.26549">
        <ele>195.2</ele>
        <time>2022-08-30T06:56:46Z</time>
      </trkpt>
      <trkpt lat="46.52166" lon="5.26579">
        <ele>196</ele>
        <time>2022-08-30T06:56:52Z</time>
      </trkpt>
      <trkpt lat="46.52139" lon="5.26628">
        <ele>196.6</ele>
        <time>2022-08-30T06:57:00Z</time>
      </trkpt>
      <trkpt lat="46.52124" lon="5.26652">
        <ele>197</ele>
        <time>2022-08-30T06:57:04Z</time>
      </trkpt>
      <trkpt lat="46.52111" lon="5.26667">
        <ele>197.2</ele>
        <time>2022-08-30T06:57:07Z</time>
      </trkpt>
      <trkpt lat="46.52088" lon="5.26688">
        <ele>198.4</ele>
        <time>2022-08-30T06:57:13Z</time>
      </trkpt>
      <trkpt lat="46.52071" lon="5.26702">
        <ele>199</ele>
        <time>2022-08-30T06:57:16Z</time>
      </trkpt>
      <trkpt lat="46.52061" lon="5.26711">
        <ele>199.4</ele>
        <time>2022-08-30T06:57:19Z</time>
      </trkpt>
      <trkpt lat="46.52045" lon="5.26724">
        <ele>200</ele>
        <time>2022-08-30T06:57:23Z</time>
      </trkpt>
      <trkpt lat="46.52038" lon="5.26729">
        <ele>200.8</ele>
        <time>2022-08-30T06:57:25Z</time>
      </trkpt>
      <trkpt lat="46.52017" lon="5.26747">
        <ele>201.6</ele>
        <time>2022-08-30T06:57:31Z</time>
      </trkpt>
      <trkpt lat="46.52014" lon="5.2675">
        <ele>201.8</ele>
        <time>2022-08-30T06:57:32Z</time>
      </trkpt>
      <trkpt lat="46.52002" lon="5.2676">
        <ele>202.8</ele>
        <time>2022-08-30T06:57:36Z</time>
      </trkpt>
      <trkpt lat="46.51991" lon="5.26768">
        <ele>203.4</ele>
        <time>2022-08-30T06:57:39Z</time>
      </trkpt>
      <trkpt lat="46.51978" lon="5.2678">
        <ele>203.8</ele>
        <time>2022-08-30T06:57:43Z</time>
      </trkpt>
      <trkpt lat="46.51965" lon="5.26792">
        <ele>204.6</ele>
        <time>2022-08-30T06:57:47Z</time>
      </trkpt>
      <trkpt lat="46.51962" lon="5.26796">
        <ele>204.8</ele>
        <time>2022-08-30T06:57:48Z</time>
      </trkpt>
      <trkpt lat="46.51948" lon="5.2682">
        <ele>206</ele>
        <time>2022-08-30T06:57:54Z</time>
      </trkpt>
      <trkpt lat="46.51944" lon="5.26845">
        <ele>207</ele>
        <time>2022-08-30T06:57:59Z</time>
      </trkpt>
      <trkpt lat="46.51946" lon="5.26873">
        <ele>208.2</ele>
        <time>2022-08-30T06:58:04Z</time>
      </trkpt>
      <trkpt lat="46.51947" lon="5.26878">
        <ele>208.4</ele>
        <time>2022-08-30T06:58:05Z</time>
      </trkpt>
      <trkpt lat="46.51953" lon="5.269">
        <ele>209.2</ele>
        <time>2022-08-30T06:58:09Z</time>
      </trkpt>
      <trkpt lat="46.51961" lon="5.26921">
        <ele>210.2</ele>
        <time>2022-08-30T06:58:13Z</time>
      </trkpt>
      <trkpt lat="46.51971" lon="5.2696">
        <ele>211</ele>
        <time>2022-08-30T06:58:19Z</time>
      </trkpt>
      <trkpt lat="46.51979" lon="5.26999">
        <ele>211</ele>
        <time>2022-08-30T06:58:24Z</time>
      </trkpt>
      <trkpt lat="46.51987" lon="5.27075">
        <ele>210.6</ele>
        <time>2022-08-30T06:58:32Z</time>
      </trkpt>
      <trkpt lat="46.51996" lon="5.27151">
        <ele>209.8</ele>
        <time>2022-08-30T06:58:39Z</time>
      </trkpt>
      <trkpt lat="46.52001" lon="5.27175">
        <ele>209</ele>
        <time>2022-08-30T06:58:41Z</time>
      </trkpt>
      <trkpt lat="46.52011" lon="5.27218">
        <ele>207.8</ele>
        <time>2022-08-30T06:58:45Z</time>
      </trkpt>
      <trkpt lat="46.52025" lon="5.27255">
        <ele>206.2</ele>
        <time>2022-08-30T06:58:48Z</time>
      </trkpt>
      <trkpt lat="46.52037" lon="5.27275">
        <ele>205.2</ele>
        <time>2022-08-30T06:58:50Z</time>
      </trkpt>
      <trkpt lat="46.52052" lon="5.2729">
        <ele>204.4</ele>
        <time>2022-08-30T06:58:52Z</time>
      </trkpt>
      <trkpt lat="46.5206" lon="5.27295">
        <ele>203.8</ele>
        <time>2022-08-30T06:58:53Z</time>
      </trkpt>
      <trkpt lat="46.521" lon="5.27318">
        <ele>202.6</ele>
        <time>2022-08-30T06:58:58Z</time>
      </trkpt>
      <trkpt lat="46.52113" lon="5.27335">
        <ele>202.2</ele>
        <time>2022-08-30T06:59:00Z</time>
      </trkpt>
      <trkpt lat="46.52116" lon="5.27348">
        <ele>202</ele>
        <time>2022-08-30T06:59:01Z</time>
      </trkpt>
      <trkpt lat="46.52117" lon="5.27361">
        <ele>201.6</ele>
        <time>2022-08-30T06:59:02Z</time>
      </trkpt>
      <trkpt lat="46.52115" lon="5.27389">
        <ele>201</ele>
        <time>2022-08-30T06:59:04Z</time>
      </trkpt>
      <trkpt lat="46.52108" lon="5.27416">
        <ele>200.2</ele>
        <time>2022-08-30T06:59:06Z</time>
      </trkpt>
      <trkpt lat="46.52102" lon="5.27428">
        <ele>199.8</ele>
        <time>2022-08-30T06:59:07Z</time>
      </trkpt>
      <trkpt lat="46.52084" lon="5.27462">
        <ele>199</ele>
        <time>2022-08-30T06:59:10Z</time>
      </trkpt>
      <trkpt lat="46.5207" lon="5.27483">
        <ele>198</ele>
        <time>2022-08-30T06:59:12Z</time>
      </trkpt>
      <trkpt lat="46.52055" lon="5.27502">
        <ele>196.6</ele>
        <time>2022-08-30T06:59:14Z</time>
      </trkpt>
      <trkpt lat="46.52025" lon="5.27543">
        <ele>195.6</ele>
        <time>2022-08-30T06:59:18Z</time>
      </trkpt>
      <trkpt lat="46.5201" lon="5.27564">
        <ele>194.6</ele>
        <time>2022-08-30T06:59:20Z</time>
      </trkpt>
      <trkpt lat="46.52003" lon="5.27574">
        <ele>194.2</ele>
        <time>2022-08-30T06:59:21Z</time>
      </trkpt>
      <trkpt lat="46.51974" lon="5.27612">
        <ele>193.2</ele>
        <time>2022-08-30T06:59:25Z</time>
      </trkpt>
      <trkpt lat="46.51948" lon="5.27648">
        <ele>192.4</ele>
        <time>2022-08-30T06:59:29Z</time>
      </trkpt>
      <trkpt lat="46.51911" lon="5.27692">
        <ele>192.4</ele>
        <time>2022-08-30T06:59:35Z</time>
      </trkpt>
      <trkpt lat="46.51879" lon="5.27726">
        <ele>193.4</ele>
        <time>2022-08-30T06:59:41Z</time>
      </trkpt>
      <trkpt lat="46.51854" lon="5.2775">
        <ele>194.6</ele>
        <time>2022-08-30T06:59:46Z</time>
      </trkpt>
      <trkpt lat="46.51844" lon="5.27761">
        <ele>195.2</ele>
        <time>2022-08-30T06:59:48Z</time>
      </trkpt>
      <trkpt lat="46.5184" lon="5.27766">
        <ele>195.6</ele>
        <time>2022-08-30T06:59:49Z</time>
      </trkpt>
      <trkpt lat="46.51813" lon="5.27795">
        <ele>196.6</ele>
        <time>2022-08-30T06:59:55Z</time>
      </trkpt>
      <trkpt lat="46.51808" lon="5.27799">
        <ele>196.8</ele>
        <time>2022-08-30T06:59:56Z</time>
      </trkpt>
      <trkpt lat="46.51786" lon="5.27822">
        <ele>197.8</ele>
        <time>2022-08-30T07:00:01Z</time>
      </trkpt>
      <trkpt lat="46.51764" lon="5.27845">
        <ele>198.8</ele>
        <time>2022-08-30T07:00:06Z</time>
      </trkpt>
      <trkpt lat="46.51759" lon="5.27849">
        <ele>199.4</ele>
        <time>2022-08-30T07:00:07Z</time>
      </trkpt>
      <trkpt lat="46.51745" lon="5.27863">
        <ele>200.4</ele>
        <time>2022-08-30T07:00:10Z</time>
      </trkpt>
      <trkpt lat="46.51728" lon="5.27882">
        <ele>201.6</ele>
        <time>2022-08-30T07:00:14Z</time>
      </trkpt>
      <trkpt lat="46.51701" lon="5.27909">
        <ele>202.6</ele>
        <time>2022-08-30T07:00:20Z</time>
      </trkpt>
      <trkpt lat="46.51673" lon="5.27937">
        <ele>203.6</ele>
        <time>2022-08-30T07:00:26Z</time>
      </trkpt>
      <trkpt lat="46.51668" lon="5.27942">
        <ele>203.6</ele>
        <time>2022-08-30T07:00:27Z</time>
      </trkpt>
      <trkpt lat="46.51626" lon="5.27985">
        <ele>204.8</ele>
        <time>2022-08-30T07:00:36Z</time>
      </trkpt>
      <trkpt lat="46.51603" lon="5.28013">
        <ele>205.2</ele>
        <time>2022-08-30T07:00:41Z</time>
      </trkpt>
      <trkpt lat="46.51599" lon="5.28021">
        <ele>205.4</ele>
        <time>2022-08-30T07:00:42Z</time>
      </trkpt>
      <trkpt lat="46.51584" lon="5.28053">
        <ele>205.2</ele>
        <time>2022-08-30T07:00:46Z</time>
      </trkpt>
      <trkpt lat="46.51568" lon="5.28104">
        <ele>204.6</ele>
        <time>2022-08-30T07:00:51Z</time>
      </trkpt>
      <trkpt lat="46.51558" lon="5.28138">
        <ele>203.6</ele>
        <time>2022-08-30T07:00:54Z</time>
      </trkpt>
      <trkpt lat="46.51547" lon="5.28172">
        <ele>203</ele>
        <time>2022-08-30T07:00:57Z</time>
      </trkpt>
      <trkpt lat="46.5154" lon="5.28196">
        <ele>202.6</ele>
        <time>2022-08-30T07:00:59Z</time>
      </trkpt>
      <trkpt lat="46.51522" lon="5.28242">
        <ele>201.6</ele>
        <time>2022-08-30T07:01:03Z</time>
      </trkpt>
      <trkpt lat="46.51505" lon="5.28275">
        <ele>200.4</ele>
        <time>2022-08-30T07:01:06Z</time>
      </trkpt>
      <trkpt lat="46.51488" lon="5.28308">
        <ele>199</ele>
        <time>2022-08-30T07:01:09Z</time>
      </trkpt>
      <trkpt lat="46.51483" lon="5.28319">
        <ele>198.6</ele>
        <time>2022-08-30T07:01:10Z</time>
      </trkpt>
      <trkpt lat="46.51472" lon="5.2834">
        <ele>197.8</ele>
        <time>2022-08-30T07:01:12Z</time>
      </trkpt>
      <trkpt lat="46.51444" lon="5.28397">
        <ele>196.6</ele>
        <time>2022-08-30T07:01:17Z</time>
      </trkpt>
      <trkpt lat="46.51426" lon="5.28432">
        <ele>195.6</ele>
        <time>2022-08-30T07:01:20Z</time>
      </trkpt>
      <trkpt lat="46.5142" lon="5.28444">
        <ele>195.2</ele>
        <time>2022-08-30T07:01:21Z</time>
      </trkpt>
      <trkpt lat="46.51416" lon="5.28456">
        <ele>194.4</ele>
        <time>2022-08-30T07:01:22Z</time>
      </trkpt>
      <trkpt lat="46.51414" lon="5.2847">
        <ele>193.6</ele>
        <time>2022-08-30T07:01:23Z</time>
      </trkpt>
      <trkpt lat="46.51413" lon="5.28484">
        <ele>193</ele>
        <time>2022-08-30T07:01:24Z</time>
      </trkpt>
      <trkpt lat="46.51415" lon="5.28497">
        <ele>193</ele>
        <time>2022-08-30T07:01:25Z</time>
      </trkpt>
      <trkpt lat="46.51418" lon="5.2851">
        <ele>192.4</ele>
        <time>2022-08-30T07:01:26Z</time>
      </trkpt>
      <trkpt lat="46.51431" lon="5.28547">
        <ele>191.6</ele>
        <time>2022-08-30T07:01:29Z</time>
      </trkpt>
      <trkpt lat="46.51435" lon="5.28559">
        <ele>191.2</ele>
        <time>2022-08-30T07:01:30Z</time>
      </trkpt>
      <trkpt lat="46.5146" lon="5.28632">
        <ele>190.4</ele>
        <time>2022-08-30T07:01:36Z</time>
      </trkpt>
      <trkpt lat="46.51464" lon="5.28644">
        <ele>190.4</ele>
        <time>2022-08-30T07:01:37Z</time>
      </trkpt>
      <trkpt lat="46.51489" lon="5.28721">
        <ele>190.2</ele>
        <time>2022-08-30T07:01:44Z</time>
      </trkpt>
      <trkpt lat="46.51502" lon="5.2878">
        <ele>190.2</ele>
        <time>2022-08-30T07:01:49Z</time>
      </trkpt>
      <trkpt lat="46.51505" lon="5.28815">
        <ele>190.4</ele>
        <time>2022-08-30T07:01:52Z</time>
      </trkpt>
      <trkpt lat="46.51505" lon="5.28828">
        <ele>190.2</ele>
        <time>2022-08-30T07:01:53Z</time>
      </trkpt>
      <trkpt lat="46.51493" lon="5.28898">
        <ele>190.2</ele>
        <time>2022-08-30T07:01:59Z</time>
      </trkpt>
      <trkpt lat="46.51479" lon="5.28977">
        <ele>190.2</ele>
        <time>2022-08-30T07:02:06Z</time>
      </trkpt>
      <trkpt lat="46.51477" lon="5.28987">
        <ele>190.2</ele>
        <time>2022-08-30T07:02:07Z</time>
      </trkpt>
      <trkpt lat="46.51465" lon="5.29058">
        <ele>190.6</ele>
        <time>2022-08-30T07:02:14Z</time>
      </trkpt>
      <trkpt lat="46.51456" lon="5.29106">
        <ele>191</ele>
        <time>2022-08-30T07:02:19Z</time>
      </trkpt>
      <trkpt lat="46.51451" lon="5.29135">
        <ele>191.2</ele>
        <time>2022-08-30T07:02:22Z</time>
      </trkpt>
      <trkpt lat="46.51435" lon="5.29208">
        <ele>191.6</ele>
        <time>2022-08-30T07:02:30Z</time>
      </trkpt>
      <trkpt lat="46.51431" lon="5.29216">
        <ele>191.6</ele>
        <time>2022-08-30T07:02:31Z</time>
      </trkpt>
      <trkpt lat="46.51414" lon="5.29245">
        <ele>191.8</ele>
        <time>2022-08-30T07:02:35Z</time>
      </trkpt>
      <trkpt lat="46.51387" lon="5.2929">
        <ele>191.8</ele>
        <time>2022-08-30T07:02:42Z</time>
      </trkpt>
      <trkpt lat="46.51365" lon="5.29329">
        <ele>191.8</ele>
        <time>2022-08-30T07:02:46Z</time>
      </trkpt>
      <trkpt lat="46.51354" lon="5.29343">
        <ele>191.8</ele>
        <time>2022-08-30T07:02:48Z</time>
      </trkpt>
      <trkpt lat="46.51342" lon="5.29354">
        <ele>191.8</ele>
        <time>2022-08-30T07:02:50Z</time>
      </trkpt>
      <trkpt lat="46.51322" lon="5.29366">
        <ele>191.6</ele>
        <time>2022-08-30T07:02:53Z</time>
      </trkpt>
      <trkpt lat="46.51271" lon="5.29395">
        <ele>191.6</ele>
        <time>2022-08-30T07:03:01Z</time>
      </trkpt>
      <trkpt lat="46.51224" lon="5.29408">
        <ele>192</ele>
        <time>2022-08-30T07:03:08Z</time>
      </trkpt>
      <trkpt lat="46.51217" lon="5.29409">
        <ele>192</ele>
        <time>2022-08-30T07:03:09Z</time>
      </trkpt>
      <trkpt lat="46.51172" lon="5.2942">
        <ele>192.2</ele>
        <time>2022-08-30T07:03:16Z</time>
      </trkpt>
      <trkpt lat="46.51114" lon="5.29436">
        <ele>192.6</ele>
        <time>2022-08-30T07:03:25Z</time>
      </trkpt>
      <trkpt lat="46.51076" lon="5.29448">
        <ele>193</ele>
        <time>2022-08-30T07:03:31Z</time>
      </trkpt>
      <trkpt lat="46.51051" lon="5.2946">
        <ele>193.2</ele>
        <time>2022-08-30T07:03:35Z</time>
      </trkpt>
      <trkpt lat="46.51019" lon="5.29481">
        <ele>193.8</ele>
        <time>2022-08-30T07:03:41Z</time>
      </trkpt>
      <trkpt lat="46.51011" lon="5.29488">
        <ele>194</ele>
        <time>2022-08-30T07:03:43Z</time>
      </trkpt>
      <trkpt lat="46.50981" lon="5.29511">
        <ele>195</ele>
        <time>2022-08-30T07:03:49Z</time>
      </trkpt>
      <trkpt lat="46.50977" lon="5.29514">
        <ele>195.4</ele>
        <time>2022-08-30T07:03:50Z</time>
      </trkpt>
      <trkpt lat="46.50953" lon="5.29532">
        <ele>196.6</ele>
        <time>2022-08-30T07:03:56Z</time>
      </trkpt>
      <trkpt lat="46.50949" lon="5.29535">
        <ele>196.8</ele>
        <time>2022-08-30T07:03:57Z</time>
      </trkpt>
      <trkpt lat="46.50945" lon="5.29538">
        <ele>197</ele>
        <time>2022-08-30T07:03:58Z</time>
      </trkpt>
      <trkpt lat="46.50934" lon="5.29545">
        <ele>197.8</ele>
        <time>2022-08-30T07:04:01Z</time>
      </trkpt>
      <trkpt lat="46.50927" lon="5.2955">
        <ele>198.4</ele>
        <time>2022-08-30T07:04:03Z</time>
      </trkpt>
      <trkpt lat="46.50923" lon="5.29553">
        <ele>199</ele>
        <time>2022-08-30T07:04:04Z</time>
      </trkpt>
      <trkpt lat="46.50908" lon="5.29562">
        <ele>200</ele>
        <time>2022-08-30T07:04:08Z</time>
      </trkpt>
      <trkpt lat="46.50897" lon="5.29568">
        <ele>201</ele>
        <time>2022-08-30T07:04:11Z</time>
      </trkpt>
      <trkpt lat="46.50893" lon="5.2957">
        <ele>201.2</ele>
        <time>2022-08-30T07:04:12Z</time>
      </trkpt>
      <trkpt lat="46.50888" lon="5.29571">
        <ele>201.4</ele>
        <time>2022-08-30T07:04:13Z</time>
      </trkpt>
      <trkpt lat="46.50875" lon="5.29571">
        <ele>202.2</ele>
        <time>2022-08-30T07:04:16Z</time>
      </trkpt>
      <trkpt lat="46.50867" lon="5.2957">
        <ele>202.8</ele>
        <time>2022-08-30T07:04:18Z</time>
      </trkpt>
      <trkpt lat="46.50859" lon="5.2957">
        <ele>203.4</ele>
        <time>2022-08-30T07:04:20Z</time>
      </trkpt>
      <trkpt lat="46.50843" lon="5.29567">
        <ele>204.6</ele>
        <time>2022-08-30T07:04:24Z</time>
      </trkpt>
      <trkpt lat="46.50839" lon="5.29567">
        <ele>204.8</ele>
        <time>2022-08-30T07:04:25Z</time>
      </trkpt>
      <trkpt lat="46.50827" lon="5.29566">
        <ele>205.6</ele>
        <time>2022-08-30T07:04:28Z</time>
      </trkpt>
      <trkpt lat="46.50806" lon="5.29564">
        <ele>206.8</ele>
        <time>2022-08-30T07:04:33Z</time>
      </trkpt>
      <trkpt lat="46.50778" lon="5.29564">
        <ele>207.8</ele>
        <time>2022-08-30T07:04:40Z</time>
      </trkpt>
      <trkpt lat="46.50768" lon="5.29563">
        <ele>208.4</ele>
        <time>2022-08-30T07:04:43Z</time>
      </trkpt>
      <trkpt lat="46.50755" lon="5.2956">
        <ele>209</ele>
        <time>2022-08-30T07:04:46Z</time>
      </trkpt>
      <trkpt lat="46.50731" lon="5.29552">
        <ele>210</ele>
        <time>2022-08-30T07:04:52Z</time>
      </trkpt>
      <trkpt lat="46.50715" lon="5.29545">
        <ele>211</ele>
        <time>2022-08-30T07:04:56Z</time>
      </trkpt>
      <trkpt lat="46.50711" lon="5.29543">
        <ele>211.2</ele>
        <time>2022-08-30T07:04:57Z</time>
      </trkpt>
      <trkpt lat="46.50682" lon="5.2953">
        <ele>212.4</ele>
        <time>2022-08-30T07:05:04Z</time>
      </trkpt>
      <trkpt lat="46.5067" lon="5.29525">
        <ele>212.8</ele>
        <time>2022-08-30T07:05:07Z</time>
      </trkpt>
      <trkpt lat="46.50652" lon="5.29523">
        <ele>213.4</ele>
        <time>2022-08-30T07:05:11Z</time>
      </trkpt>
      <trkpt lat="46.50643" lon="5.29526">
        <ele>213.6</ele>
        <time>2022-08-30T07:05:13Z</time>
      </trkpt>
      <trkpt lat="46.50615" lon="5.29543">
        <ele>214.4</ele>
        <time>2022-08-30T07:05:19Z</time>
      </trkpt>
      <trkpt lat="46.5061" lon="5.29547">
        <ele>214.6</ele>
        <time>2022-08-30T07:05:20Z</time>
      </trkpt>
      <trkpt lat="46.50574" lon="5.29576">
        <ele>215.2</ele>
        <time>2022-08-30T07:05:27Z</time>
      </trkpt>
      <trkpt lat="46.50525" lon="5.29614">
        <ele>215.2</ele>
        <time>2022-08-30T07:05:36Z</time>
      </trkpt>
      <trkpt lat="46.50519" lon="5.29618">
        <ele>215.2</ele>
        <time>2022-08-30T07:05:37Z</time>
      </trkpt>
      <trkpt lat="46.50465" lon="5.29655">
        <ele>215.4</ele>
        <time>2022-08-30T07:05:46Z</time>
      </trkpt>
      <trkpt lat="46.50423" lon="5.29685">
        <ele>215.4</ele>
        <time>2022-08-30T07:05:53Z</time>
      </trkpt>
      <trkpt lat="46.50405" lon="5.29697">
        <ele>215.4</ele>
        <time>2022-08-30T07:05:56Z</time>
      </trkpt>
      <trkpt lat="46.50355" lon="5.29725">
        <ele>215.6</ele>
        <time>2022-08-30T07:06:04Z</time>
      </trkpt>
      <trkpt lat="46.50349" lon="5.29728">
        <ele>215.6</ele>
        <time>2022-08-30T07:06:05Z</time>
      </trkpt>
      <trkpt lat="46.50292" lon="5.29751">
        <ele>215.2</ele>
        <time>2022-08-30T07:06:14Z</time>
      </trkpt>
      <trkpt lat="46.5024" lon="5.2977">
        <ele>215</ele>
        <time>2022-08-30T07:06:21Z</time>
      </trkpt>
      <trkpt lat="46.50233" lon="5.2977">
        <ele>214.8</ele>
        <time>2022-08-30T07:06:22Z</time>
      </trkpt>
      <trkpt lat="46.50181" lon="5.29768">
        <ele>214.4</ele>
        <time>2022-08-30T07:06:29Z</time>
      </trkpt>
      <trkpt lat="46.50174" lon="5.29769">
        <ele>214.2</ele>
        <time>2022-08-30T07:06:30Z</time>
      </trkpt>
      <trkpt lat="46.50128" lon="5.29776">
        <ele>214</ele>
        <time>2022-08-30T07:06:36Z</time>
      </trkpt>
      <trkpt lat="46.50086" lon="5.2979">
        <ele>213.2</ele>
        <time>2022-08-30T07:06:41Z</time>
      </trkpt>
      <trkpt lat="46.50069" lon="5.29797">
        <ele>212.6</ele>
        <time>2022-08-30T07:06:43Z</time>
      </trkpt>
      <trkpt lat="46.50061" lon="5.29801">
        <ele>212.2</ele>
        <time>2022-08-30T07:06:44Z</time>
      </trkpt>
      <trkpt lat="46.50051" lon="5.29808">
        <ele>211.8</ele>
        <time>2022-08-30T07:06:45Z</time>
      </trkpt>
      <trkpt lat="46.50038" lon="5.2982">
        <ele>211.2</ele>
        <time>2022-08-30T07:06:47Z</time>
      </trkpt>
      <trkpt lat="46.50032" lon="5.29828">
        <ele>210.8</ele>
        <time>2022-08-30T07:06:48Z</time>
      </trkpt>
      <trkpt lat="46.50017" lon="5.29851">
        <ele>210</ele>
        <time>2022-08-30T07:06:51Z</time>
      </trkpt>
      <trkpt lat="46.50016" lon="5.29868">
        <ele>209.6</ele>
        <time>2022-08-30T07:06:53Z</time>
      </trkpt>
      <trkpt lat="46.50022" lon="5.29882">
        <ele>209.4</ele>
        <time>2022-08-30T07:06:55Z</time>
      </trkpt>
      <trkpt lat="46.50027" lon="5.29888">
        <ele>209.4</ele>
        <time>2022-08-30T07:06:56Z</time>
      </trkpt>
      <trkpt lat="46.50039" lon="5.29901">
        <ele>209.2</ele>
        <time>2022-08-30T07:06:58Z</time>
      </trkpt>
      <trkpt lat="46.50048" lon="5.29914">
        <ele>209.2</ele>
        <time>2022-08-30T07:07:00Z</time>
      </trkpt>
      <trkpt lat="46.5007" lon="5.29959">
        <ele>209.2</ele>
        <time>2022-08-30T07:07:05Z</time>
      </trkpt>
      <trkpt lat="46.50073" lon="5.29969">
        <ele>209.4</ele>
        <time>2022-08-30T07:07:06Z</time>
      </trkpt>
      <trkpt lat="46.50082" lon="5.30019">
        <ele>209.8</ele>
        <time>2022-08-30T07:07:11Z</time>
      </trkpt>
      <trkpt lat="46.50085" lon="5.30104">
        <ele>210.4</ele>
        <time>2022-08-30T07:07:19Z</time>
      </trkpt>
      <trkpt lat="46.50085" lon="5.30114">
        <ele>210.4</ele>
        <time>2022-08-30T07:07:20Z</time>
      </trkpt>
      <trkpt lat="46.50084" lon="5.30146">
        <ele>210.8</ele>
        <time>2022-08-30T07:07:23Z</time>
      </trkpt>
      <trkpt lat="46.50084" lon="5.30202">
        <ele>210.4</ele>
        <time>2022-08-30T07:07:28Z</time>
      </trkpt>
      <trkpt lat="46.50083" lon="5.30267">
        <ele>210</ele>
        <time>2022-08-30T07:07:34Z</time>
      </trkpt>
      <trkpt lat="46.50078" lon="5.30311">
        <ele>209.8</ele>
        <time>2022-08-30T07:07:38Z</time>
      </trkpt>
      <trkpt lat="46.50071" lon="5.30334">
        <ele>209.8</ele>
        <time>2022-08-30T07:07:40Z</time>
      </trkpt>
      <trkpt lat="46.50067" lon="5.30345">
        <ele>209.4</ele>
        <time>2022-08-30T07:07:41Z</time>
      </trkpt>
      <trkpt lat="46.50052" lon="5.30375">
        <ele>208.6</ele>
        <time>2022-08-30T07:07:44Z</time>
      </trkpt>
      <trkpt lat="46.50045" lon="5.30384">
        <ele>208.4</ele>
        <time>2022-08-30T07:07:45Z</time>
      </trkpt>
      <trkpt lat="46.50032" lon="5.30399">
        <ele>207.8</ele>
        <time>2022-08-30T07:07:47Z</time>
      </trkpt>
      <trkpt lat="46.50025" lon="5.30405">
        <ele>207.6</ele>
        <time>2022-08-30T07:07:48Z</time>
      </trkpt>
      <trkpt lat="46.50004" lon="5.30421">
        <ele>207.4</ele>
        <time>2022-08-30T07:07:51Z</time>
      </trkpt>
      <trkpt lat="46.49991" lon="5.3043">
        <ele>207.2</ele>
        <time>2022-08-30T07:07:53Z</time>
      </trkpt>
      <trkpt lat="46.4996" lon="5.30462">
        <ele>207.4</ele>
        <time>2022-08-30T07:07:59Z</time>
      </trkpt>
      <trkpt lat="46.49946" lon="5.3049">
        <ele>208</ele>
        <time>2022-08-30T07:08:03Z</time>
      </trkpt>
      <trkpt lat="46.49943" lon="5.30497">
        <ele>208.2</ele>
        <time>2022-08-30T07:08:04Z</time>
      </trkpt>
      <trkpt lat="46.4994" lon="5.30505">
        <ele>208.4</ele>
        <time>2022-08-30T07:08:05Z</time>
      </trkpt>
      <trkpt lat="46.49935" lon="5.3052">
        <ele>208.6</ele>
        <time>2022-08-30T07:08:07Z</time>
      </trkpt>
      <trkpt lat="46.49931" lon="5.30543">
        <ele>209.2</ele>
        <time>2022-08-30T07:08:10Z</time>
      </trkpt>
      <trkpt lat="46.49929" lon="5.30551">
        <ele>209.6</ele>
        <time>2022-08-30T07:08:11Z</time>
      </trkpt>
      <trkpt lat="46.49929" lon="5.30564">
        <ele>210</ele>
        <time>2022-08-30T07:08:13Z</time>
      </trkpt>
      <trkpt lat="46.49929" lon="5.30582">
        <ele>210.4</ele>
        <time>2022-08-30T07:08:15Z</time>
      </trkpt>
      <trkpt lat="46.49929" lon="5.3059">
        <ele>210.8</ele>
        <time>2022-08-30T07:08:16Z</time>
      </trkpt>
      <trkpt lat="46.4993" lon="5.30605">
        <ele>211</ele>
        <time>2022-08-30T07:08:18Z</time>
      </trkpt>
      <trkpt lat="46.49933" lon="5.30627">
        <ele>211.4</ele>
        <time>2022-08-30T07:08:21Z</time>
      </trkpt>
      <trkpt lat="46.49936" lon="5.3064">
        <ele>211.8</ele>
        <time>2022-08-30T07:08:23Z</time>
      </trkpt>
      <trkpt lat="46.49945" lon="5.30684">
        <ele>212.8</ele>
        <time>2022-08-30T07:08:29Z</time>
      </trkpt>
      <trkpt lat="46.49947" lon="5.307">
        <ele>213.4</ele>
        <time>2022-08-30T07:08:31Z</time>
      </trkpt>
      <trkpt lat="46.49952" lon="5.30723">
        <ele>214</ele>
        <time>2022-08-30T07:08:34Z</time>
      </trkpt>
      <trkpt lat="46.49958" lon="5.30767">
        <ele>215.2</ele>
        <time>2022-08-30T07:08:39Z</time>
      </trkpt>
      <trkpt lat="46.4996" lon="5.30774">
        <ele>215.2</ele>
        <time>2022-08-30T07:08:40Z</time>
      </trkpt>
      <trkpt lat="46.49971" lon="5.30824">
        <ele>215.4</ele>
        <time>2022-08-30T07:08:45Z</time>
      </trkpt>
      <trkpt lat="46.49994" lon="5.30892">
        <ele>214.8</ele>
        <time>2022-08-30T07:08:52Z</time>
      </trkpt>
      <trkpt lat="46.50015" lon="5.30948">
        <ele>213.6</ele>
        <time>2022-08-30T07:08:57Z</time>
      </trkpt>
      <trkpt lat="46.50019" lon="5.3096">
        <ele>213.4</ele>
        <time>2022-08-30T07:08:58Z</time>
      </trkpt>
      <trkpt lat="46.50027" lon="5.30984">
        <ele>212.6</ele>
        <time>2022-08-30T07:09:00Z</time>
      </trkpt>
      <trkpt lat="46.50041" lon="5.31021">
        <ele>211.4</ele>
        <time>2022-08-30T07:09:03Z</time>
      </trkpt>
      <trkpt lat="46.5005" lon="5.31048">
        <ele>210.4</ele>
        <time>2022-08-30T07:09:05Z</time>
      </trkpt>
      <trkpt lat="46.50054" lon="5.31062">
        <ele>210.4</ele>
        <time>2022-08-30T07:09:06Z</time>
      </trkpt>
      <trkpt lat="46.50063" lon="5.31087">
        <ele>209.2</ele>
        <time>2022-08-30T07:09:08Z</time>
      </trkpt>
      <trkpt lat="46.50073" lon="5.31118">
        <ele>207.4</ele>
        <time>2022-08-30T07:09:10Z</time>
      </trkpt>
      <trkpt lat="46.50082" lon="5.31145">
        <ele>206.2</ele>
        <time>2022-08-30T07:09:12Z</time>
      </trkpt>
      <trkpt lat="46.50096" lon="5.31184">
        <ele>205.2</ele>
        <time>2022-08-30T07:09:15Z</time>
      </trkpt>
      <trkpt lat="46.50108" lon="5.31219">
        <ele>204.8</ele>
        <time>2022-08-30T07:09:18Z</time>
      </trkpt>
      <trkpt lat="46.50131" lon="5.31283">
        <ele>205</ele>
        <time>2022-08-30T07:09:24Z</time>
      </trkpt>
      <trkpt lat="46.50157" lon="5.31359">
        <ele>205.4</ele>
        <time>2022-08-30T07:09:31Z</time>
      </trkpt>
      <trkpt lat="46.50164" lon="5.31382">
        <ele>205.6</ele>
        <time>2022-08-30T07:09:33Z</time>
      </trkpt>
      <trkpt lat="46.50189" lon="5.31455">
        <ele>205.2</ele>
        <time>2022-08-30T07:09:39Z</time>
      </trkpt>
      <trkpt lat="46.5021" lon="5.31514">
        <ele>203.6</ele>
        <time>2022-08-30T07:09:44Z</time>
      </trkpt>
      <trkpt lat="46.50218" lon="5.31532">
        <ele>203.2</ele>
        <time>2022-08-30T07:09:45Z</time>
      </trkpt>
      <trkpt lat="46.50224" lon="5.31544">
        <ele>202.6</ele>
        <time>2022-08-30T07:09:46Z</time>
      </trkpt>
      <trkpt lat="46.50231" lon="5.31555">
        <ele>202.2</ele>
        <time>2022-08-30T07:09:47Z</time>
      </trkpt>
      <trkpt lat="46.50245" lon="5.31575">
        <ele>201</ele>
        <time>2022-08-30T07:09:49Z</time>
      </trkpt>
      <trkpt lat="46.50253" lon="5.31584">
        <ele>200.8</ele>
        <time>2022-08-30T07:09:50Z</time>
      </trkpt>
      <trkpt lat="46.50275" lon="5.31604">
        <ele>200</ele>
        <time>2022-08-30T07:09:53Z</time>
      </trkpt>
      <trkpt lat="46.50293" lon="5.31618">
        <ele>199.4</ele>
        <time>2022-08-30T07:09:55Z</time>
      </trkpt>
      <trkpt lat="46.50324" lon="5.31641">
        <ele>198.8</ele>
        <time>2022-08-30T07:09:59Z</time>
      </trkpt>
      <trkpt lat="46.50338" lon="5.31652">
        <ele>198.6</ele>
        <time>2022-08-30T07:10:01Z</time>
      </trkpt>
      <trkpt lat="46.50371" lon="5.31686">
        <ele>198.6</ele>
        <time>2022-08-30T07:10:06Z</time>
      </trkpt>
      <trkpt lat="46.50395" lon="5.31729">
        <ele>198.6</ele>
        <time>2022-08-30T07:10:11Z</time>
      </trkpt>
      <trkpt lat="46.50415" lon="5.31787">
        <ele>198.8</ele>
        <time>2022-08-30T07:10:17Z</time>
      </trkpt>
      <trkpt lat="46.50433" lon="5.31869">
        <ele>199.4</ele>
        <time>2022-08-30T07:10:25Z</time>
      </trkpt>
      <trkpt lat="46.50434" lon="5.3188">
        <ele>199.4</ele>
        <time>2022-08-30T07:10:26Z</time>
      </trkpt>
      <trkpt lat="46.50435" lon="5.31933">
        <ele>199.4</ele>
        <time>2022-08-30T07:10:31Z</time>
      </trkpt>
      <trkpt lat="46.50434" lon="5.31964">
        <ele>199.6</ele>
        <time>2022-08-30T07:10:34Z</time>
      </trkpt>
      <trkpt lat="46.50433" lon="5.31996">
        <ele>199.8</ele>
        <time>2022-08-30T07:10:37Z</time>
      </trkpt>
      <trkpt lat="46.50432" lon="5.32028">
        <ele>200.2</ele>
        <time>2022-08-30T07:10:40Z</time>
      </trkpt>
      <trkpt lat="46.5043" lon="5.32109">
        <ele>200.6</ele>
        <time>2022-08-30T07:10:48Z</time>
      </trkpt>
      <trkpt lat="46.50429" lon="5.32119">
        <ele>200.6</ele>
        <time>2022-08-30T07:10:49Z</time>
      </trkpt>
      <trkpt lat="46.50429" lon="5.32147">
        <ele>201</ele>
        <time>2022-08-30T07:10:52Z</time>
      </trkpt>
      <trkpt lat="46.50428" lon="5.32184">
        <ele>201.4</ele>
        <time>2022-08-30T07:10:56Z</time>
      </trkpt>
      <trkpt lat="46.50427" lon="5.32228">
        <ele>201.8</ele>
        <time>2022-08-30T07:11:01Z</time>
      </trkpt>
      <trkpt lat="46.50428" lon="5.32263">
        <ele>202.4</ele>
        <time>2022-08-30T07:11:05Z</time>
      </trkpt>
      <trkpt lat="46.50435" lon="5.32315">
        <ele>202.6</ele>
        <time>2022-08-30T07:11:12Z</time>
      </trkpt>
      <trkpt lat="46.50439" lon="5.32339">
        <ele>202.8</ele>
        <time>2022-08-30T07:11:14Z</time>
      </trkpt>
      <trkpt lat="46.50451" lon="5.32391">
        <ele>203</ele>
        <time>2022-08-30T07:11:19Z</time>
      </trkpt>
      <trkpt lat="46.50465" lon="5.32476">
        <ele>202.8</ele>
        <time>2022-08-30T07:11:28Z</time>
      </trkpt>
      <trkpt lat="46.5047" lon="5.32548">
        <ele>203.4</ele>
        <time>2022-08-30T07:11:36Z</time>
      </trkpt>
      <trkpt lat="46.50472" lon="5.32592">
        <ele>204</ele>
        <time>2022-08-30T07:11:41Z</time>
      </trkpt>
      <trkpt lat="46.50473" lon="5.32654">
        <ele>204.4</ele>
        <time>2022-08-30T07:11:48Z</time>
      </trkpt>
      <trkpt lat="46.50472" lon="5.32707">
        <ele>205</ele>
        <time>2022-08-30T07:11:54Z</time>
      </trkpt>
      <trkpt lat="46.50472" lon="5.32734">
        <ele>205.6</ele>
        <time>2022-08-30T07:11:57Z</time>
      </trkpt>
      <trkpt lat="46.5047" lon="5.32796">
        <ele>206.2</ele>
        <time>2022-08-30T07:12:04Z</time>
      </trkpt>
      <trkpt lat="46.50469" lon="5.32842">
        <ele>206.6</ele>
        <time>2022-08-30T07:12:09Z</time>
      </trkpt>
      <trkpt lat="46.50468" lon="5.32892">
        <ele>207.2</ele>
        <time>2022-08-30T07:12:15Z</time>
      </trkpt>
      <trkpt lat="46.50469" lon="5.32914">
        <ele>207.6</ele>
        <time>2022-08-30T07:12:18Z</time>
      </trkpt>
      <trkpt lat="46.50468" lon="5.32929">
        <ele>208.2</ele>
        <time>2022-08-30T07:12:20Z</time>
      </trkpt>
      <trkpt lat="46.50468" lon="5.32972">
        <ele>209.2</ele>
        <time>2022-08-30T07:12:26Z</time>
      </trkpt>
      <trkpt lat="46.50468" lon="5.3298">
        <ele>209.6</ele>
        <time>2022-08-30T07:12:27Z</time>
      </trkpt>
      <trkpt lat="46.50467" lon="5.33009">
        <ele>210.6</ele>
        <time>2022-08-30T07:12:31Z</time>
      </trkpt>
      <trkpt lat="46.50467" lon="5.33042">
        <ele>211.6</ele>
        <time>2022-08-30T07:12:36Z</time>
      </trkpt>
      <trkpt lat="46.50467" lon="5.33074">
        <ele>212.8</ele>
        <time>2022-08-30T07:12:41Z</time>
      </trkpt>
      <trkpt lat="46.50467" lon="5.33082">
        <ele>213</ele>
        <time>2022-08-30T07:12:43Z</time>
      </trkpt>
      <trkpt lat="46.50467" lon="5.33101">
        <ele>213.8</ele>
        <time>2022-08-30T07:12:46Z</time>
      </trkpt>
      <trkpt lat="46.50466" lon="5.33118">
        <ele>214.8</ele>
        <time>2022-08-30T07:12:49Z</time>
      </trkpt>
      <trkpt lat="46.50466" lon="5.33123">
        <ele>215</ele>
        <time>2022-08-30T07:12:50Z</time>
      </trkpt>
      <trkpt lat="46.50467" lon="5.33138">
        <ele>215.8</ele>
        <time>2022-08-30T07:12:53Z</time>
      </trkpt>
      <trkpt lat="46.50467" lon="5.33149">
        <ele>216.4</ele>
        <time>2022-08-30T07:12:55Z</time>
      </trkpt>
      <trkpt lat="46.50465" lon="5.33178">
        <ele>217.4</ele>
        <time>2022-08-30T07:12:59Z</time>
      </trkpt>
      <trkpt lat="46.50464" lon="5.33186">
        <ele>217.6</ele>
        <time>2022-08-30T07:13:00Z</time>
      </trkpt>
      <trkpt lat="46.50463" lon="5.33201">
        <ele>218</ele>
        <time>2022-08-30T07:13:02Z</time>
      </trkpt>
      <trkpt lat="46.50463" lon="5.33236">
        <ele>218.6</ele>
        <time>2022-08-30T07:13:06Z</time>
      </trkpt>
      <trkpt lat="46.50461" lon="5.33291">
        <ele>219.2</ele>
        <time>2022-08-30T07:13:12Z</time>
      </trkpt>
      <trkpt lat="46.50459" lon="5.33331">
        <ele>218.8</ele>
        <time>2022-08-30T07:13:16Z</time>
      </trkpt>
      <trkpt lat="46.50458" lon="5.33341">
        <ele>218.8</ele>
        <time>2022-08-30T07:13:17Z</time>
      </trkpt>
      <trkpt lat="46.50448" lon="5.334">
        <ele>218.6</ele>
        <time>2022-08-30T07:13:23Z</time>
      </trkpt>
      <trkpt lat="46.50442" lon="5.33417">
        <ele>218.4</ele>
        <time>2022-08-30T07:13:25Z</time>
      </trkpt>
      <trkpt lat="46.5043" lon="5.33439">
        <ele>218.4</ele>
        <time>2022-08-30T07:13:28Z</time>
      </trkpt>
      <trkpt lat="46.50397" lon="5.33477">
        <ele>219</ele>
        <time>2022-08-30T07:13:35Z</time>
      </trkpt>
      <trkpt lat="46.50368" lon="5.3351">
        <ele>219.6</ele>
        <time>2022-08-30T07:13:41Z</time>
      </trkpt>
      <trkpt lat="46.50347" lon="5.33532">
        <ele>220.4</ele>
        <time>2022-08-30T07:13:45Z</time>
      </trkpt>
      <trkpt lat="46.50337" lon="5.33543">
        <ele>220.6</ele>
        <time>2022-08-30T07:13:47Z</time>
      </trkpt>
      <trkpt lat="46.50304" lon="5.33579">
        <ele>220.8</ele>
        <time>2022-08-30T07:13:54Z</time>
      </trkpt>
      <trkpt lat="46.50264" lon="5.3362">
        <ele>221.4</ele>
        <time>2022-08-30T07:14:02Z</time>
      </trkpt>
      <trkpt lat="46.50255" lon="5.33631">
        <ele>221.6</ele>
        <time>2022-08-30T07:14:04Z</time>
      </trkpt>
      <trkpt lat="46.50235" lon="5.33653">
        <ele>221.8</ele>
        <time>2022-08-30T07:14:08Z</time>
      </trkpt>
      <trkpt lat="46.50208" lon="5.33682">
        <ele>222.4</ele>
        <time>2022-08-30T07:14:14Z</time>
      </trkpt>
      <trkpt lat="46.50181" lon="5.3371">
        <ele>222.6</ele>
        <time>2022-08-30T07:14:19Z</time>
      </trkpt>
      <trkpt lat="46.5017" lon="5.33723">
        <ele>222.6</ele>
        <time>2022-08-30T07:14:21Z</time>
      </trkpt>
      <trkpt lat="46.50149" lon="5.33746">
        <ele>222.6</ele>
        <time>2022-08-30T07:14:25Z</time>
      </trkpt>
      <trkpt lat="46.50137" lon="5.33759">
        <ele>222.4</ele>
        <time>2022-08-30T07:14:27Z</time>
      </trkpt>
      <trkpt lat="46.50095" lon="5.33805">
        <ele>222.2</ele>
        <time>2022-08-30T07:14:34Z</time>
      </trkpt>
      <trkpt lat="46.50053" lon="5.33851">
        <ele>222.2</ele>
        <time>2022-08-30T07:14:42Z</time>
      </trkpt>
      <trkpt lat="46.50024" lon="5.33883">
        <ele>222.8</ele>
        <time>2022-08-30T07:14:48Z</time>
      </trkpt>
      <trkpt lat="46.49999" lon="5.3391">
        <ele>223.6</ele>
        <time>2022-08-30T07:14:53Z</time>
      </trkpt>
      <trkpt lat="46.49984" lon="5.33924">
        <ele>224</ele>
        <time>2022-08-30T07:14:56Z</time>
      </trkpt>
      <trkpt lat="46.49939" lon="5.33973">
        <ele>224.6</ele>
        <time>2022-08-30T07:15:04Z</time>
      </trkpt>
      <trkpt lat="46.49899" lon="5.34016">
        <ele>224.2</ele>
        <time>2022-08-30T07:15:10Z</time>
      </trkpt>
      <trkpt lat="46.49854" lon="5.3407">
        <ele>222.6</ele>
        <time>2022-08-30T07:15:17Z</time>
      </trkpt>
      <trkpt lat="46.49847" lon="5.34078">
        <ele>222.4</ele>
        <time>2022-08-30T07:15:18Z</time>
      </trkpt>
      <trkpt lat="46.49822" lon="5.34118">
        <ele>221.8</ele>
        <time>2022-08-30T07:15:23Z</time>
      </trkpt>
      <trkpt lat="46.49793" lon="5.34166">
        <ele>221.8</ele>
        <time>2022-08-30T07:15:29Z</time>
      </trkpt>
      <trkpt lat="46.49754" lon="5.34232">
        <ele>221.8</ele>
        <time>2022-08-30T07:15:37Z</time>
      </trkpt>
      <trkpt lat="46.49743" lon="5.3425">
        <ele>221.6</ele>
        <time>2022-08-30T07:15:39Z</time>
      </trkpt>
      <trkpt lat="46.49715" lon="5.34301">
        <ele>221.6</ele>
        <time>2022-08-30T07:15:45Z</time>
      </trkpt>
      <trkpt lat="46.49695" lon="5.34354">
        <ele>221.6</ele>
        <time>2022-08-30T07:15:51Z</time>
      </trkpt>
      <trkpt lat="46.49683" lon="5.34397">
        <ele>221.2</ele>
        <time>2022-08-30T07:15:55Z</time>
      </trkpt>
      <trkpt lat="46.49676" lon="5.34418">
        <ele>220.8</ele>
        <time>2022-08-30T07:15:57Z</time>
      </trkpt>
      <trkpt lat="46.49661" lon="5.34475">
        <ele>220.2</ele>
        <time>2022-08-30T07:16:02Z</time>
      </trkpt>
      <trkpt lat="46.49658" lon="5.34486">
        <ele>219.8</ele>
        <time>2022-08-30T07:16:03Z</time>
      </trkpt>
      <trkpt lat="46.49651" lon="5.34509">
        <ele>219.4</ele>
        <time>2022-08-30T07:16:05Z</time>
      </trkpt>
      <trkpt lat="46.49645" lon="5.3453">
        <ele>219</ele>
        <time>2022-08-30T07:16:07Z</time>
      </trkpt>
      <trkpt lat="46.49634" lon="5.34548">
        <ele>218.4</ele>
        <time>2022-08-30T07:16:09Z</time>
      </trkpt>
      <trkpt lat="46.49621" lon="5.34562">
        <ele>218</ele>
        <time>2022-08-30T07:16:11Z</time>
      </trkpt>
      <trkpt lat="46.49608" lon="5.34577">
        <ele>217.6</ele>
        <time>2022-08-30T07:16:13Z</time>
      </trkpt>
      <trkpt lat="46.49592" lon="5.34602">
        <ele>216.8</ele>
        <time>2022-08-30T07:16:16Z</time>
      </trkpt>
      <trkpt lat="46.49576" lon="5.34625">
        <ele>216.4</ele>
        <time>2022-08-30T07:16:19Z</time>
      </trkpt>
      <trkpt lat="46.49546" lon="5.34664">
        <ele>217</ele>
        <time>2022-08-30T07:16:25Z</time>
      </trkpt>
      <trkpt lat="46.49529" lon="5.34683">
        <ele>218</ele>
        <time>2022-08-30T07:16:29Z</time>
      </trkpt>
      <trkpt lat="46.49522" lon="5.34691">
        <ele>218.4</ele>
        <time>2022-08-30T07:16:31Z</time>
      </trkpt>
      <trkpt lat="46.49518" lon="5.34696">
        <ele>218.6</ele>
        <time>2022-08-30T07:16:32Z</time>
      </trkpt>
      <trkpt lat="46.49514" lon="5.34701">
        <ele>219</ele>
        <time>2022-08-30T07:16:33Z</time>
      </trkpt>
      <trkpt lat="46.49503" lon="5.34713">
        <ele>219.4</ele>
        <time>2022-08-30T07:16:36Z</time>
      </trkpt>
      <trkpt lat="46.495" lon="5.34716">
        <ele>219.8</ele>
        <time>2022-08-30T07:16:37Z</time>
      </trkpt>
      <trkpt lat="46.49497" lon="5.34721">
        <ele>220</ele>
        <time>2022-08-30T07:16:38Z</time>
      </trkpt>
      <trkpt lat="46.49493" lon="5.34725">
        <ele>220</ele>
        <time>2022-08-30T07:16:39Z</time>
      </trkpt>
      <trkpt lat="46.49483" lon="5.34736">
        <ele>220.8</ele>
        <time>2022-08-30T07:16:42Z</time>
      </trkpt>
      <trkpt lat="46.49477" lon="5.34744">
        <ele>221.4</ele>
        <time>2022-08-30T07:16:44Z</time>
      </trkpt>
      <trkpt lat="46.49465" lon="5.34756">
        <ele>222.4</ele>
        <time>2022-08-30T07:16:48Z</time>
      </trkpt>
      <trkpt lat="46.49462" lon="5.34759">
        <ele>222.6</ele>
        <time>2022-08-30T07:16:49Z</time>
      </trkpt>
      <trkpt lat="46.49451" lon="5.3477">
        <ele>223.8</ele>
        <time>2022-08-30T07:16:52Z</time>
      </trkpt>
      <trkpt lat="46.49447" lon="5.34773">
        <ele>224</ele>
        <time>2022-08-30T07:16:53Z</time>
      </trkpt>
      <trkpt lat="46.49438" lon="5.34779">
        <ele>225</ele>
        <time>2022-08-30T07:16:56Z</time>
      </trkpt>
      <trkpt lat="46.49435" lon="5.34781">
        <ele>225</ele>
        <time>2022-08-30T07:16:57Z</time>
      </trkpt>
      <trkpt lat="46.49423" lon="5.34792">
        <ele>225.8</ele>
        <time>2022-08-30T07:17:01Z</time>
      </trkpt>
      <trkpt lat="46.49421" lon="5.34794">
        <ele>226</ele>
        <time>2022-08-30T07:17:02Z</time>
      </trkpt>
      <trkpt lat="46.49417" lon="5.34797">
        <ele>226.4</ele>
        <time>2022-08-30T07:17:03Z</time>
      </trkpt>
      <trkpt lat="46.49412" lon="5.34805">
        <ele>226.8</ele>
        <time>2022-08-30T07:17:05Z</time>
      </trkpt>
      <trkpt lat="46.49406" lon="5.34809">
        <ele>227.2</ele>
        <time>2022-08-30T07:17:07Z</time>
      </trkpt>
      <trkpt lat="46.49405" lon="5.3481">
        <ele>227.6</ele>
        <time>2022-08-30T07:17:10Z</time>
      </trkpt>
      <trkpt lat="46.49403" lon="5.34811">
        <ele>227.4</ele>
        <time>2022-08-30T07:17:51Z</time>
      </trkpt>
      <trkpt lat="46.4939" lon="5.34815">
        <ele>227.4</ele>
        <time>2022-08-30T07:17:56Z</time>
      </trkpt>
      <trkpt lat="46.49364" lon="5.34819">
        <ele>227.4</ele>
        <time>2022-08-30T07:18:00Z</time>
      </trkpt>
      <trkpt lat="46.49356" lon="5.3482">
        <ele>227.4</ele>
        <time>2022-08-30T07:18:01Z</time>
      </trkpt>
      <trkpt lat="46.49342" lon="5.34822">
        <ele>227.6</ele>
        <time>2022-08-30T07:18:03Z</time>
      </trkpt>
      <trkpt lat="46.49334" lon="5.34823">
        <ele>227.6</ele>
        <time>2022-08-30T07:18:04Z</time>
      </trkpt>
      <trkpt lat="46.49317" lon="5.34825">
        <ele>227.8</ele>
        <time>2022-08-30T07:18:06Z</time>
      </trkpt>
      <trkpt lat="46.49302" lon="5.34828">
        <ele>227.8</ele>
        <time>2022-08-30T07:18:08Z</time>
      </trkpt>
      <trkpt lat="46.49271" lon="5.34847">
        <ele>227.6</ele>
        <time>2022-08-30T07:18:13Z</time>
      </trkpt>
      <trkpt lat="46.49266" lon="5.34854">
        <ele>227.6</ele>
        <time>2022-08-30T07:18:14Z</time>
      </trkpt>
      <trkpt lat="46.49253" lon="5.3487">
        <ele>227.6</ele>
        <time>2022-08-30T07:18:16Z</time>
      </trkpt>
      <trkpt lat="46.49225" lon="5.34918">
        <ele>228.4</ele>
        <time>2022-08-30T07:18:22Z</time>
      </trkpt>
      <trkpt lat="46.49186" lon="5.34978">
        <ele>228.2</ele>
        <time>2022-08-30T07:18:30Z</time>
      </trkpt>
      <trkpt lat="46.49154" lon="5.35019">
        <ele>228</ele>
        <time>2022-08-30T07:18:35Z</time>
      </trkpt>
      <trkpt lat="46.49139" lon="5.35035">
        <ele>228.2</ele>
        <time>2022-08-30T07:18:38Z</time>
      </trkpt>
      <trkpt lat="46.49128" lon="5.35047">
        <ele>228.2</ele>
        <time>2022-08-30T07:18:40Z</time>
      </trkpt>
      <trkpt lat="46.49102" lon="5.3507">
        <ele>228.4</ele>
        <time>2022-08-30T07:18:45Z</time>
      </trkpt>
      <trkpt lat="46.49091" lon="5.35077">
        <ele>228.8</ele>
        <time>2022-08-30T07:18:47Z</time>
      </trkpt>
      <trkpt lat="46.4907" lon="5.35089">
        <ele>229.2</ele>
        <time>2022-08-30T07:18:51Z</time>
      </trkpt>
      <trkpt lat="46.4906" lon="5.35094">
        <ele>229.6</ele>
        <time>2022-08-30T07:18:53Z</time>
      </trkpt>
      <trkpt lat="46.49046" lon="5.35106">
        <ele>229.4</ele>
        <time>2022-08-30T07:18:56Z</time>
      </trkpt>
      <trkpt lat="46.49041" lon="5.35111">
        <ele>229.6</ele>
        <time>2022-08-30T07:18:57Z</time>
      </trkpt>
      <trkpt lat="46.49037" lon="5.35116">
        <ele>229.6</ele>
        <time>2022-08-30T07:18:58Z</time>
      </trkpt>
      <trkpt lat="46.49024" lon="5.35135">
        <ele>230</ele>
        <time>2022-08-30T07:19:01Z</time>
      </trkpt>
      <trkpt lat="46.49021" lon="5.35142">
        <ele>230</ele>
        <time>2022-08-30T07:19:02Z</time>
      </trkpt>
      <trkpt lat="46.48999" lon="5.35193">
        <ele>230.6</ele>
        <time>2022-08-30T07:19:08Z</time>
      </trkpt>
      <trkpt lat="46.48971" lon="5.35256">
        <ele>229.2</ele>
        <time>2022-08-30T07:19:15Z</time>
      </trkpt>
      <trkpt lat="46.48937" lon="5.35331">
        <ele>228.4</ele>
        <time>2022-08-30T07:19:23Z</time>
      </trkpt>
      <trkpt lat="46.48929" lon="5.35349">
        <ele>228.2</ele>
        <time>2022-08-30T07:19:25Z</time>
      </trkpt>
      <trkpt lat="46.48898" lon="5.35421">
        <ele>227.8</ele>
        <time>2022-08-30T07:19:33Z</time>
      </trkpt>
      <trkpt lat="46.48894" lon="5.35431">
        <ele>228</ele>
        <time>2022-08-30T07:19:34Z</time>
      </trkpt>
      <trkpt lat="46.48865" lon="5.35495">
        <ele>228.6</ele>
        <time>2022-08-30T07:19:42Z</time>
      </trkpt>
      <trkpt lat="46.48845" lon="5.35542">
        <ele>229.4</ele>
        <time>2022-08-30T07:19:48Z</time>
      </trkpt>
      <trkpt lat="46.48834" lon="5.35566">
        <ele>229.6</ele>
        <time>2022-08-30T07:19:51Z</time>
      </trkpt>
      <trkpt lat="46.48809" lon="5.35628">
        <ele>229.6</ele>
        <time>2022-08-30T07:19:58Z</time>
      </trkpt>
      <trkpt lat="46.48777" lon="5.35699">
        <ele>229.6</ele>
        <time>2022-08-30T07:20:06Z</time>
      </trkpt>
      <trkpt lat="46.48748" lon="5.35764">
        <ele>229.6</ele>
        <time>2022-08-30T07:20:14Z</time>
      </trkpt>
      <trkpt lat="46.48744" lon="5.35773">
        <ele>229.6</ele>
        <time>2022-08-30T07:20:15Z</time>
      </trkpt>
      <trkpt lat="46.48713" lon="5.35844">
        <ele>229.6</ele>
        <time>2022-08-30T07:20:23Z</time>
      </trkpt>
      <trkpt lat="46.48695" lon="5.35889">
        <ele>230</ele>
        <time>2022-08-30T07:20:29Z</time>
      </trkpt>
      <trkpt lat="46.48685" lon="5.35922">
        <ele>230.4</ele>
        <time>2022-08-30T07:20:33Z</time>
      </trkpt>
      <trkpt lat="46.48684" lon="5.35929">
        <ele>230.6</ele>
        <time>2022-08-30T07:20:34Z</time>
      </trkpt>
      <trkpt lat="46.48681" lon="5.35947">
        <ele>231</ele>
        <time>2022-08-30T07:20:36Z</time>
      </trkpt>
      <trkpt lat="46.48677" lon="5.35976">
        <ele>231.8</ele>
        <time>2022-08-30T07:20:39Z</time>
      </trkpt>
      <trkpt lat="46.48672" lon="5.36007">
        <ele>232.2</ele>
        <time>2022-08-30T07:20:42Z</time>
      </trkpt>
      <trkpt lat="46.4867" lon="5.36017">
        <ele>232</ele>
        <time>2022-08-30T07:20:43Z</time>
      </trkpt>
      <trkpt lat="46.4866" lon="5.36064">
        <ele>232.2</ele>
        <time>2022-08-30T07:20:47Z</time>
      </trkpt>
      <trkpt lat="46.48644" lon="5.36148">
        <ele>231</ele>
        <time>2022-08-30T07:20:54Z</time>
      </trkpt>
      <trkpt lat="46.48638" lon="5.36214">
        <ele>230.6</ele>
        <time>2022-08-30T07:21:00Z</time>
      </trkpt>
      <trkpt lat="46.48628" lon="5.36291">
        <ele>231</ele>
        <time>2022-08-30T07:21:08Z</time>
      </trkpt>
      <trkpt lat="46.48622" lon="5.36306">
        <ele>231.6</ele>
        <time>2022-08-30T07:21:10Z</time>
      </trkpt>
      <trkpt lat="46.48618" lon="5.36313">
        <ele>231.6</ele>
        <time>2022-08-30T07:21:11Z</time>
      </trkpt>
      <trkpt lat="46.48612" lon="5.36319">
        <ele>231.8</ele>
        <time>2022-08-30T07:21:12Z</time>
      </trkpt>
      <trkpt lat="46.48604" lon="5.36322">
        <ele>232</ele>
        <time>2022-08-30T07:21:14Z</time>
      </trkpt>
      <trkpt lat="46.48584" lon="5.36326">
        <ele>232.6</ele>
        <time>2022-08-30T07:21:17Z</time>
      </trkpt>
      <trkpt lat="46.48573" lon="5.36328">
        <ele>233.6</ele>
        <time>2022-08-30T07:21:19Z</time>
      </trkpt>
      <trkpt lat="46.48562" lon="5.36329">
        <ele>233.8</ele>
        <time>2022-08-30T07:21:21Z</time>
      </trkpt>
      <trkpt lat="46.48534" lon="5.36333">
        <ele>235</ele>
        <time>2022-08-30T07:21:26Z</time>
      </trkpt>
      <trkpt lat="46.48515" lon="5.36336">
        <ele>235.6</ele>
        <time>2022-08-30T07:21:29Z</time>
      </trkpt>
      <trkpt lat="46.48496" lon="5.36339">
        <ele>236.2</ele>
        <time>2022-08-30T07:21:32Z</time>
      </trkpt>
      <trkpt lat="46.48465" lon="5.36344">
        <ele>237</ele>
        <time>2022-08-30T07:21:37Z</time>
      </trkpt>
      <trkpt lat="46.48452" lon="5.36346">
        <ele>237.2</ele>
        <time>2022-08-30T07:21:39Z</time>
      </trkpt>
      <trkpt lat="46.48417" lon="5.36355">
        <ele>237.4</ele>
        <time>2022-08-30T07:21:45Z</time>
      </trkpt>
      <trkpt lat="46.484" lon="5.36366">
        <ele>237.4</ele>
        <time>2022-08-30T07:21:48Z</time>
      </trkpt>
      <trkpt lat="46.4839" lon="5.36375">
        <ele>237.4</ele>
        <time>2022-08-30T07:21:50Z</time>
      </trkpt>
      <trkpt lat="46.48385" lon="5.3638">
        <ele>237.4</ele>
        <time>2022-08-30T07:21:51Z</time>
      </trkpt>
      <trkpt lat="46.4835" lon="5.36418">
        <ele>237.8</ele>
        <time>2022-08-30T07:21:58Z</time>
      </trkpt>
      <trkpt lat="46.48337" lon="5.36433">
        <ele>238.4</ele>
        <time>2022-08-30T07:22:01Z</time>
      </trkpt>
      <trkpt lat="46.48315" lon="5.36456">
        <ele>239.4</ele>
        <time>2022-08-30T07:22:06Z</time>
      </trkpt>
      <trkpt lat="46.48307" lon="5.36466">
        <ele>239.8</ele>
        <time>2022-08-30T07:22:08Z</time>
      </trkpt>
      <trkpt lat="46.48289" lon="5.36486">
        <ele>240.6</ele>
        <time>2022-08-30T07:22:12Z</time>
      </trkpt>
      <trkpt lat="46.4827" lon="5.36507">
        <ele>241.2</ele>
        <time>2022-08-30T07:22:17Z</time>
      </trkpt>
      <trkpt lat="46.48257" lon="5.36522">
        <ele>241.6</ele>
        <time>2022-08-30T07:22:20Z</time>
      </trkpt>
      <trkpt lat="46.48223" lon="5.36556">
        <ele>242.4</ele>
        <time>2022-08-30T07:22:28Z</time>
      </trkpt>
      <trkpt lat="46.48217" lon="5.36558">
        <ele>242.4</ele>
        <time>2022-08-30T07:22:29Z</time>
      </trkpt>
      <trkpt lat="46.48207" lon="5.36559">
        <ele>242.6</ele>
        <time>2022-08-30T07:22:31Z</time>
      </trkpt>
      <trkpt lat="46.48201" lon="5.3656">
        <ele>242.8</ele>
        <time>2022-08-30T07:22:32Z</time>
      </trkpt>
      <trkpt lat="46.48192" lon="5.36568">
        <ele>243.2</ele>
        <time>2022-08-30T07:22:34Z</time>
      </trkpt>
      <trkpt lat="46.48187" lon="5.36581">
        <ele>243.6</ele>
        <time>2022-08-30T07:22:36Z</time>
      </trkpt>
      <trkpt lat="46.48184" lon="5.36589">
        <ele>243.8</ele>
        <time>2022-08-30T07:22:37Z</time>
      </trkpt>
      <trkpt lat="46.48181" lon="5.36597">
        <ele>243.8</ele>
        <time>2022-08-30T07:22:38Z</time>
      </trkpt>
      <trkpt lat="46.48174" lon="5.36609">
        <ele>244</ele>
        <time>2022-08-30T07:22:40Z</time>
      </trkpt>
      <trkpt lat="46.48169" lon="5.36616">
        <ele>244</ele>
        <time>2022-08-30T07:22:41Z</time>
      </trkpt>
      <trkpt lat="46.48151" lon="5.36634">
        <ele>244.4</ele>
        <time>2022-08-30T07:22:45Z</time>
      </trkpt>
      <trkpt lat="46.48144" lon="5.36639">
        <ele>244.4</ele>
        <time>2022-08-30T07:22:46Z</time>
      </trkpt>
      <trkpt lat="46.4814" lon="5.36642">
        <ele>244.4</ele>
        <time>2022-08-30T07:22:47Z</time>
      </trkpt>
      <trkpt lat="46.48134" lon="5.36647">
        <ele>244.4</ele>
        <time>2022-08-30T07:22:48Z</time>
      </trkpt>
      <trkpt lat="46.48123" lon="5.36664">
        <ele>244.6</ele>
        <time>2022-08-30T07:22:51Z</time>
      </trkpt>
      <trkpt lat="46.48116" lon="5.36671">
        <ele>244.8</ele>
        <time>2022-08-30T07:22:53Z</time>
      </trkpt>
      <trkpt lat="46.48106" lon="5.36682">
        <ele>245</ele>
        <time>2022-08-30T07:22:56Z</time>
      </trkpt>
      <trkpt lat="46.48101" lon="5.36688">
        <ele>245.2</ele>
        <time>2022-08-30T07:22:58Z</time>
      </trkpt>
      <trkpt lat="46.481" lon="5.36693">
        <ele>245.4</ele>
        <time>2022-08-30T07:22:59Z</time>
      </trkpt>
      <trkpt lat="46.48103" lon="5.36702">
        <ele>245.8</ele>
        <time>2022-08-30T07:23:01Z</time>
      </trkpt>
      <trkpt lat="46.48106" lon="5.36705">
        <ele>246</ele>
        <time>2022-08-30T07:23:02Z</time>
      </trkpt>
      <trkpt lat="46.4811" lon="5.36709">
        <ele>246</ele>
        <time>2022-08-30T07:23:03Z</time>
      </trkpt>
      <trkpt lat="46.48136" lon="5.36731">
        <ele>246.8</ele>
        <time>2022-08-30T07:23:09Z</time>
      </trkpt>
      <trkpt lat="46.48161" lon="5.36751">
        <ele>248.2</ele>
        <time>2022-08-30T07:23:15Z</time>
      </trkpt>
      <trkpt lat="46.48177" lon="5.36765">
        <ele>249</ele>
        <time>2022-08-30T07:23:19Z</time>
      </trkpt>
      <trkpt lat="46.48181" lon="5.36768">
        <ele>249.4</ele>
        <time>2022-08-30T07:23:20Z</time>
      </trkpt>
      <trkpt lat="46.482" lon="5.36785">
        <ele>250.2</ele>
        <time>2022-08-30T07:23:25Z</time>
      </trkpt>
      <trkpt lat="46.48208" lon="5.36791">
        <ele>250.8</ele>
        <time>2022-08-30T07:23:27Z</time>
      </trkpt>
      <trkpt lat="46.48218" lon="5.368">
        <ele>251.4</ele>
        <time>2022-08-30T07:23:30Z</time>
      </trkpt>
      <trkpt lat="46.48236" lon="5.36814">
        <ele>252.4</ele>
        <time>2022-08-30T07:23:35Z</time>
      </trkpt>
      <trkpt lat="46.48252" lon="5.36826">
        <ele>253.6</ele>
        <time>2022-08-30T07:23:39Z</time>
      </trkpt>
      <trkpt lat="46.48256" lon="5.3683">
        <ele>253.6</ele>
        <time>2022-08-30T07:23:40Z</time>
      </trkpt>
    </trkseg>
  </trk>
</gpx>